Wetterdaten: Sonntag, 14.07.2019
Datum Zeit Temp. A. Pool Temp. Temp. 5cm Feuchte A. Luftdruck Regen Wind Richtung Richtung Sonnenschein ET UV Solar Taupunkt Windchill Windben Empfang
14.07.2019 00:01 14,2 C 20,0 C 13,9 C 92 % 1014,9 hPa 0,0 l/m 11,7 km/h (2 Bft) W 267 0 min 0,000 mm 0,0 UV-I 0 W/m 12,9 C 11,5 C 17,7 km/h (3 Bft) 100,00 %
14.07.2019 00:02 14,2 C 20,0 C 13,9 C 92 % 1014,9 hPa 0,0 l/m 14,7 km/h (3 Bft) W 274 0 min 0,000 mm 0,0 UV-I 0 W/m 12,9 C 10,3 C 20,9 km/h (4 Bft) 100,00 %
14.07.2019 00:04 14,1 C 20,0 C 13,9 C 92 % 1014,9 hPa 0,0 l/m 13,9 km/h (3 Bft) W 271 0 min 0,000 mm 0,0 UV-I 0 W/m 12,8 C 10,5 C 19,3 km/h (3 Bft) 100,00 %
14.07.2019 00:06 14,1 C 20,0 C 13,9 C 92 % 1014,9 hPa 0,0 l/m 14,8 km/h (3 Bft) W 261 0 min 0,000 mm 0,0 UV-I 0 W/m 12,8 C 10,2 C 24,1 km/h (4 Bft) 97,87 %
14.07.2019 00:08 14,1 C 20,0 C 13,9 C 92 % 1014,9 hPa 0,0 l/m 15,1 km/h (3 Bft) W-SW 246 0 min 0,000 mm 0,0 UV-I 0 W/m 12,8 C 10,1 C 20,9 km/h (4 Bft) 97,37 %
14.07.2019 00:10 14,2 C 20,0 C 13,9 C 92 % 1014,9 hPa 0,0 l/m 13,0 km/h (3 Bft) W 259 0 min 0,000 mm 0,0 UV-I 0 W/m 12,9 C 11,0 C 19,3 km/h (3 Bft) 100,00 %
14.07.2019 00:12 14,2 C 20,0 C 13,9 C 92 % 1014,9 hPa 0,0 l/m 14,7 km/h (3 Bft) W-SW 255 0 min 0,000 mm 0,0 UV-I 0 W/m 12,9 C 10,3 C 25,7 km/h (4 Bft) 100,00 %
14.07.2019 00:14 14,2 C 20,0 C 13,9 C 92 % 1014,9 hPa 0,0 l/m 12,8 km/h (3 Bft) SW 231 0 min 0,000 mm 0,0 UV-I 0 W/m 12,9 C 11,0 C 17,7 km/h (3 Bft) 100,00 %
14.07.2019 00:16 14,2 C 20,0 C 13,9 C 92 % 1014,9 hPa 0,0 l/m 12,3 km/h (3 Bft) W-SW 254 0 min 0,000 mm 0,0 UV-I 0 W/m 12,9 C 11,2 C 19,3 km/h (3 Bft) 100,00 %
14.07.2019 00:18 14,2 C 20,0 C 13,9 C 92 % 1014,9 hPa 0,0 l/m 15,6 km/h (3 Bft) SW 233 0 min 0,000 mm 0,0 UV-I 0 W/m 12,9 C 10,0 C 20,9 km/h (4 Bft) 100,00 %
14.07.2019 00:20 14,2 C 20,0 C 13,9 C 92 % 1014,8 hPa 0,0 l/m 14,9 km/h (3 Bft) SW 231 0 min 0,000 mm 0,0 UV-I 0 W/m 12,9 C 10,3 C 19,3 km/h (3 Bft) 100,00 %
14.07.2019 00:22 14,1 C 20,0 C 13,9 C 92 % 1014,9 hPa 0,0 l/m 13,1 km/h (3 Bft) SW 229 0 min 0,000 mm 0,0 UV-I 0 W/m 12,8 C 10,8 C 22,5 km/h (4 Bft) 100,00 %
14.07.2019 00:24 14,2 C 20,0 C 13,9 C 92 % 1014,9 hPa 0,0 l/m 16,2 km/h (3 Bft) S-SW 196 0 min 0,000 mm 0,0 UV-I 0 W/m 12,9 C 9,8 C 24,1 km/h (4 Bft) 97,87 %
14.07.2019 00:26 14,2 C 20,0 C 13,9 C 92 % 1014,9 hPa 0,0 l/m 14,3 km/h (3 Bft) W-SW 238 0 min 0,000 mm 0,0 UV-I 0 W/m 12,9 C 10,5 C 19,3 km/h (3 Bft) 97,92 %
14.07.2019 00:28 14,2 C 20,0 C 13,9 C 92 % 1014,9 hPa 0,0 l/m 12,6 km/h (3 Bft) W-SW 251 0 min 0,000 mm 0,0 UV-I 0 W/m 12,9 C 11,1 C 20,9 km/h (4 Bft) 96,00 %
14.07.2019 00:30 14,2 C 20,0 C 13,9 C 92 % 1014,9 hPa 0,0 l/m 9,8 km/h (2 Bft) SW 219 0 min 0,000 mm 0,0 UV-I 0 W/m 12,9 C 12,3 C 14,5 km/h (3 Bft) 100,00 %
14.07.2019 00:32 14,2 C 20,0 C 13,9 C 92 % 1014,9 hPa 0,0 l/m 11,9 km/h (2 Bft) SW 232 0 min 0,000 mm 0,0 UV-I 0 W/m 12,9 C 11,4 C 17,7 km/h (3 Bft) 97,87 %
14.07.2019 00:34 14,2 C 20,0 C 13,9 C 92 % 1014,9 hPa 0,0 l/m 13,6 km/h (3 Bft) W-SW 248 0 min 0,000 mm 0,0 UV-I 0 W/m 12,9 C 10,7 C 19,3 km/h (3 Bft) 97,87 %
14.07.2019 00:36 14,2 C 20,0 C 13,9 C 92 % 1014,9 hPa 0,0 l/m 11,9 km/h (2 Bft) W 277 0 min 0,000 mm 0,0 UV-I 0 W/m 12,9 C 11,4 C 17,7 km/h (3 Bft) 100,00 %
14.07.2019 00:38 14,2 C 20,0 C 13,9 C 92 % 1014,9 hPa 0,0 l/m 11,6 km/h (2 Bft) SW 217 0 min 0,000 mm 0,0 UV-I 0 W/m 12,9 C 11,5 C 17,7 km/h (3 Bft) 97,87 %
14.07.2019 00:40 14,2 C 20,0 C 13,9 C 92 % 1014,9 hPa 0,0 l/m 13,2 km/h (3 Bft) W 260 0 min 0,000 mm 0,0 UV-I 0 W/m 12,9 C 10,9 C 17,7 km/h (3 Bft) 100,00 %
14.07.2019 00:42 14,2 C 20,0 C 13,9 C 92 % 1015,0 hPa 0,0 l/m 12,3 km/h (3 Bft) W-SW 255 0 min 0,000 mm 0,0 UV-I 0 W/m 12,9 C 11,2 C 22,5 km/h (4 Bft) 100,00 %
14.07.2019 00:44 14,2 C 20,0 C 13,9 C 92 % 1015,0 hPa 0,0 l/m 13,7 km/h (3 Bft) SW 234 0 min 0,000 mm 0,0 UV-I 0 W/m 12,9 C 10,7 C 20,9 km/h (4 Bft) 100,00 %
14.07.2019 00:46 14,2 C 20,0 C 13,9 C 92 % 1014,9 hPa 0,0 l/m 12,0 km/h (2 Bft) W-SW 257 0 min 0,000 mm 0,0 UV-I 0 W/m 12,9 C 11,4 C 19,3 km/h (3 Bft) 94,74 %
14.07.2019 00:48 14,2 C 20,0 C 13,9 C 91 % 1014,9 hPa 0,0 l/m 12,8 km/h (3 Bft) SW 236 0 min 0,000 mm 0,0 UV-I 0 W/m 12,8 C 11,0 C 19,3 km/h (3 Bft) 100,00 %
14.07.2019 00:50 14,2 C 20,0 C 13,9 C 91 % 1014,9 hPa 0,0 l/m 16,4 km/h (3 Bft) W 261 0 min 0,000 mm 0,0 UV-I 0 W/m 12,8 C 9,8 C 25,7 km/h (4 Bft) 100,00 %
14.07.2019 00:52 14,2 C 20,0 C 13,9 C 91 % 1014,9 hPa 0,0 l/m 16,0 km/h (3 Bft) SW 226 0 min 0,000 mm 0,0 UV-I 0 W/m 12,8 C 9,9 C 22,5 km/h (4 Bft) 100,00 %
14.07.2019 00:54 14,2 C 20,0 C 13,9 C 91 % 1014,8 hPa 0,0 l/m 14,5 km/h (3 Bft) SW 233 0 min 0,000 mm 0,0 UV-I 0 W/m 12,8 C 10,4 C 19,3 km/h (3 Bft) 97,87 %
14.07.2019 00:56 14,2 C 20,0 C 13,9 C 91 % 1014,8 hPa 0,0 l/m 16,4 km/h (3 Bft) W-SW 249 0 min 0,000 mm 0,0 UV-I 0 W/m 12,8 C 9,8 C 25,7 km/h (4 Bft) 100,00 %
14.07.2019 00:58 14,2 C 20,0 C 13,9 C 91 % 1014,8 hPa 0,0 l/m 14,4 km/h (3 Bft) SW 234 0 min 0,000 mm 0,0 UV-I 0 W/m 12,8 C 10,4 C 19,3 km/h (3 Bft) 100,00 %
14.07.2019 01:00 14,2 C 20,0 C 13,9 C 91 % 1014,9 hPa 0,0 l/m 12,8 km/h (3 Bft) W-SW 238 0 min 0,025 mm 0,0 UV-I 0 W/m 12,8 C 11,0 C 17,7 km/h (3 Bft) 100,00 %
14.07.2019 01:02 14,2 C 20,0 C 13,9 C 91 % 1014,9 hPa 0,0 l/m 11,1 km/h (2 Bft) SW 223 0 min 0,000 mm 0,0 UV-I 0 W/m 12,8 C 11,7 C 17,7 km/h (3 Bft) 98,00 %
14.07.2019 01:04 14,2 C 20,0 C 13,9 C 91 % 1014,9 hPa 0,0 l/m 10,4 km/h (2 Bft) W-SW 245 0 min 0,000 mm 0,0 UV-I 0 W/m 12,8 C 12,0 C 16,1 km/h (3 Bft) 97,78 %
14.07.2019 01:06 14,2 C 20,0 C 13,9 C 91 % 1014,8 hPa 0,0 l/m 10,9 km/h (2 Bft) W-SW 243 0 min 0,000 mm 0,0 UV-I 0 W/m 12,8 C 11,8 C 19,3 km/h (3 Bft) 97,87 %
14.07.2019 01:08 14,2 C 20,0 C 13,9 C 91 % 1014,9 hPa 0,0 l/m 12,5 km/h (3 Bft) W-SW 244 0 min 0,000 mm 0,0 UV-I 0 W/m 12,8 C 11,1 C 17,7 km/h (3 Bft) 97,87 %
14.07.2019 01:10 14,2 C 20,0 C 13,9 C 91 % 1014,9 hPa 0,0 l/m 11,1 km/h (2 Bft) W-SW 248 0 min 0,000 mm 0,0 UV-I 0 W/m 12,8 C 11,7 C 16,1 km/h (3 Bft) 98,00 %
14.07.2019 01:12 14,2 C 20,0 C 13,9 C 91 % 1014,9 hPa 0,0 l/m 14,3 km/h (3 Bft) W-SW 243 0 min 0,000 mm 0,0 UV-I 0 W/m 12,8 C 10,5 C 24,1 km/h (4 Bft) 94,00 %
14.07.2019 01:14 14,2 C 19,4 C 13,9 C 91 % 1014,9 hPa 0,0 l/m 11,2 km/h (2 Bft) SW 233 0 min 0,000 mm 0,0 UV-I 0 W/m 12,8 C 11,7 C 16,1 km/h (3 Bft) 95,74 %
14.07.2019 01:16 14,2 C 19,4 C 13,9 C 91 % 1014,9 hPa 0,0 l/m 10,9 km/h (2 Bft) W-SW 258 0 min 0,000 mm 0,0 UV-I 0 W/m 12,8 C 11,8 C 16,1 km/h (3 Bft) 100,00 %
14.07.2019 01:18 14,2 C 19,4 C 13,9 C 91 % 1014,8 hPa 0,0 l/m 10,8 km/h (2 Bft) W 263 0 min 0,000 mm 0,0 UV-I 0 W/m 12,8 C 11,9 C 19,3 km/h (3 Bft) 98,00 %
14.07.2019 01:20 14,2 C 19,4 C 13,9 C 91 % 1014,9 hPa 0,0 l/m 9,9 km/h (2 Bft) SW 234 0 min 0,000 mm 0,0 UV-I 0 W/m 12,8 C 12,3 C 14,5 km/h (3 Bft) 97,87 %
14.07.2019 01:22 14,2 C 19,4 C 13,9 C 91 % 1014,8 hPa 0,0 l/m 11,6 km/h (2 Bft) W 259 0 min 0,000 mm 0,0 UV-I 0 W/m 12,8 C 11,5 C 16,1 km/h (3 Bft) 92,11 %
14.07.2019 01:24 14,2 C 19,4 C 13,9 C 91 % 1014,8 hPa 0,0 l/m 11,9 km/h (2 Bft) W-SW 244 0 min 0,000 mm 0,0 UV-I 0 W/m 12,8 C 11,4 C 16,1 km/h (3 Bft) 95,16 %
14.07.2019 01:26 14,2 C 19,4 C 13,9 C 91 % 1014,8 hPa 0,0 l/m 13,1 km/h (3 Bft) W 268 0 min 0,000 mm 0,0 UV-I 0 W/m 12,8 C 10,9 C 25,7 km/h (4 Bft) 93,62 %
14.07.2019 01:28 14,2 C 19,4 C 13,9 C 91 % 1014,8 hPa 0,0 l/m 11,7 km/h (2 Bft) W-SW 238 0 min 0,000 mm 0,0 UV-I 0 W/m 12,8 C 11,5 C 16,1 km/h (3 Bft) 94,00 %
14.07.2019 01:30 14,2 C 19,4 C 13,9 C 91 % 1014,8 hPa 0,0 l/m 13,8 km/h (3 Bft) W-SW 242 0 min 0,000 mm 0,0 UV-I 0 W/m 12,8 C 10,6 C 20,9 km/h (4 Bft) 91,43 %
14.07.2019 01:32 14,2 C 19,4 C 13,9 C 91 % 1014,8 hPa 0,0 l/m 9,8 km/h (2 Bft) SW 231 0 min 0,000 mm 0,0 UV-I 0 W/m 12,8 C 12,3 C 16,1 km/h (3 Bft) 94,00 %
14.07.2019 01:34 14,2 C 19,4 C 13,9 C 91 % 1014,8 hPa 0,0 l/m 12,7 km/h (3 Bft) W 273 0 min 0,000 mm 0,0 UV-I 0 W/m 12,8 C 11,1 C 19,3 km/h (3 Bft) 94,00 %
14.07.2019 01:36 14,2 C 19,4 C 13,9 C 91 % 1014,8 hPa 0,0 l/m 12,3 km/h (3 Bft) W-SW 246 0 min 0,000 mm 0,0 UV-I 0 W/m 12,8 C 11,2 C 17,7 km/h (3 Bft) 95,12 %
14.07.2019 01:38 14,2 C 19,4 C 13,9 C 91 % 1014,8 hPa 0,0 l/m 13,0 km/h (3 Bft) W-SW 248 0 min 0,000 mm 0,0 UV-I 0 W/m 12,8 C 11,0 C 17,7 km/h (3 Bft) 95,74 %
14.07.2019 01:40 14,2 C 19,4 C 13,9 C 91 % 1014,7 hPa 0,0 l/m 12,1 km/h (2 Bft) W 268 0 min 0,000 mm 0,0 UV-I 0 W/m 12,8 C 11,3 C 19,3 km/h (3 Bft) 95,74 %
14.07.2019 01:42 14,2 C 19,4 C 13,9 C 91 % 1014,7 hPa 0,0 l/m 11,1 km/h (2 Bft) W-SW 258 0 min 0,000 mm 0,0 UV-I 0 W/m 12,8 C 11,7 C 17,7 km/h (3 Bft) 93,75 %
14.07.2019 01:44 14,2 C 19,4 C 13,9 C 92 % 1014,7 hPa 0,0 l/m 10,4 km/h (2 Bft) W 268 0 min 0,000 mm 0,0 UV-I 0 W/m 12,9 C 12,0 C 14,5 km/h (3 Bft) 93,62 %
14.07.2019 01:46 14,2 C 19,4 C 13,9 C 92 % 1014,7 hPa 0,0 l/m 11,0 km/h (2 Bft) W-SW 246 0 min 0,000 mm 0,0 UV-I 0 W/m 12,9 C 11,8 C 14,5 km/h (3 Bft) 95,74 %
14.07.2019 01:48 14,2 C 19,4 C 13,9 C 92 % 1014,7 hPa 0,0 l/m 13,0 km/h (3 Bft) W-SW 245 0 min 0,000 mm 0,0 UV-I 0 W/m 12,9 C 11,0 C 19,3 km/h (3 Bft) 93,62 %
14.07.2019 01:50 14,2 C 19,4 C 13,9 C 92 % 1014,7 hPa 0,0 l/m 11,4 km/h (2 Bft) W-SW 244 0 min 0,000 mm 0,0 UV-I 0 W/m 12,9 C 11,6 C 16,1 km/h (3 Bft) 92,00 %
14.07.2019 01:52 14,2 C 19,4 C 13,9 C 92 % 1014,7 hPa 0,0 l/m 10,6 km/h (2 Bft) W 272 0 min 0,000 mm 0,0 UV-I 0 W/m 12,9 C 12,0 C 14,5 km/h (3 Bft) 95,74 %
14.07.2019 01:54 14,2 C 19,4 C 13,9 C 92 % 1014,7 hPa 0,0 l/m 9,6 km/h (2 Bft) W-SW 244 0 min 0,000 mm 0,0 UV-I 0 W/m 12,9 C 12,4 C 14,5 km/h (3 Bft) 95,74 %
14.07.2019 01:56 14,2 C 19,4 C 13,9 C 92 % 1014,7 hPa 0,0 l/m 12,1 km/h (2 Bft) W-SW 257 0 min 0,000 mm 0,0 UV-I 0 W/m 12,9 C 11,3 C 17,7 km/h (3 Bft) 97,87 %
14.07.2019 01:58 14,2 C 19,4 C 13,9 C 92 % 1014,7 hPa 0,0 l/m 12,4 km/h (3 Bft) W 265 0 min 0,000 mm 0,0 UV-I 0 W/m 12,9 C 11,2 C 17,7 km/h (3 Bft) 95,74 %
14.07.2019 02:00 14,2 C 19,4 C 13,9 C 92 % 1014,7 hPa 0,0 l/m 12,9 km/h (3 Bft) W-SW 248 0 min 0,026 mm 0,0 UV-I 0 W/m 12,9 C 11,0 C 17,7 km/h (3 Bft) 95,74 %
14.07.2019 02:02 14,2 C 19,4 C 13,9 C 92 % 1014,7 hPa 0,0 l/m 10,9 km/h (2 Bft) W-SW 238 0 min 0,000 mm 0,0 UV-I 0 W/m 12,9 C 11,8 C 17,7 km/h (3 Bft) 91,49 %
14.07.2019 02:04 14,2 C 19,4 C 13,9 C 92 % 1014,7 hPa 0,0 l/m 12,1 km/h (2 Bft) W-SW 248 0 min 0,000 mm 0,0 UV-I 0 W/m 12,9 C 11,3 C 17,7 km/h (3 Bft) 93,62 %
14.07.2019 02:06 14,2 C 19,4 C 13,9 C 92 % 1014,7 hPa 0,0 l/m 13,7 km/h (3 Bft) W-SW 250 0 min 0,000 mm 0,0 UV-I 0 W/m 12,9 C 10,7 C 20,9 km/h (4 Bft) 98,00 %
14.07.2019 02:08 14,2 C 19,4 C 13,9 C 92 % 1014,7 hPa 0,0 l/m 12,9 km/h (3 Bft) W-SW 250 0 min 0,000 mm 0,0 UV-I 0 W/m 12,9 C 11,0 C 17,7 km/h (3 Bft) 97,87 %
14.07.2019 02:10 14,2 C 19,4 C 13,9 C 92 % 1014,7 hPa 0,0 l/m 10,7 km/h (2 Bft) W-SW 248 0 min 0,000 mm 0,0 UV-I 0 W/m 12,9 C 11,9 C 14,5 km/h (3 Bft) 97,87 %
14.07.2019 02:12 14,2 C 19,4 C 13,9 C 92 % 1014,7 hPa 0,0 l/m 11,7 km/h (2 Bft) W-SW 252 0 min 0,000 mm 0,0 UV-I 0 W/m 12,9 C 11,5 C 16,1 km/h (3 Bft) 97,56 %
14.07.2019 02:14 14,2 C 19,4 C 13,9 C 92 % 1014,7 hPa 0,0 l/m 11,4 km/h (2 Bft) W-NW 284 0 min 0,000 mm 0,0 UV-I 0 W/m 12,9 C 11,6 C 17,7 km/h (3 Bft) 95,74 %
14.07.2019 02:16 14,2 C 19,4 C 13,9 C 92 % 1014,6 hPa 0,0 l/m 11,9 km/h (2 Bft) W-SW 258 0 min 0,000 mm 0,0 UV-I 0 W/m 12,9 C 11,4 C 16,1 km/h (3 Bft) 96,00 %
14.07.2019 02:18 14,2 C 19,4 C 13,9 C 92 % 1014,7 hPa 0,0 l/m 9,2 km/h (2 Bft) W-SW 248 0 min 0,000 mm 0,0 UV-I 0 W/m 12,9 C 12,6 C 14,5 km/h (3 Bft) 97,87 %
14.07.2019 02:20 14,2 C 19,4 C 13,9 C 92 % 1014,7 hPa 0,0 l/m 10,2 km/h (2 Bft) W 266 0 min 0,000 mm 0,0 UV-I 0 W/m 12,9 C 12,1 C 16,1 km/h (3 Bft) 97,87 %
14.07.2019 02:22 14,2 C 19,4 C 13,9 C 92 % 1014,6 hPa 0,0 l/m 10,3 km/h (2 Bft) W-NW 285 0 min 0,000 mm 0,0 UV-I 0 W/m 12,9 C 12,1 C 12,9 km/h (3 Bft) 97,87 %
14.07.2019 02:24 14,2 C 19,4 C 13,9 C 92 % 1014,6 hPa 0,0 l/m 10,1 km/h (2 Bft) W-SW 242 0 min 0,000 mm 0,0 UV-I 0 W/m 12,9 C 12,2 C 17,7 km/h (3 Bft) 93,75 %
14.07.2019 02:26 14,2 C 19,4 C 13,9 C 92 % 1014,5 hPa 0,0 l/m 11,3 km/h (2 Bft) W-SW 253 0 min 0,000 mm 0,0 UV-I 0 W/m 12,9 C 11,6 C 19,3 km/h (3 Bft) 95,74 %
14.07.2019 02:28 14,2 C 19,4 C 13,9 C 92 % 1014,5 hPa 0,0 l/m 11,6 km/h (2 Bft) W-SW 245 0 min 0,000 mm 0,0 UV-I 0 W/m 12,9 C 11,5 C 17,7 km/h (3 Bft) 97,87 %
14.07.2019 02:30 14,2 C 19,4 C 13,9 C 92 % 1014,5 hPa 0,0 l/m 11,7 km/h (2 Bft) W-SW 249 0 min 0,000 mm 0,0 UV-I 0 W/m 12,9 C 11,5 C 16,1 km/h (3 Bft) 92,11 %
14.07.2019 02:32 14,2 C 19,4 C 13,9 C 92 % 1014,5 hPa 0,0 l/m 13,2 km/h (3 Bft) SW 233 0 min 0,000 mm 0,0 UV-I 0 W/m 12,9 C 10,9 C 19,3 km/h (3 Bft) 95,74 %
14.07.2019 02:34 14,2 C 19,4 C 13,9 C 92 % 1014,5 hPa 0,0 l/m 11,1 km/h (2 Bft) W 260 0 min 0,000 mm 0,0 UV-I 0 W/m 12,9 C 11,7 C 16,1 km/h (3 Bft) 94,00 %
14.07.2019 02:36 14,2 C 19,4 C 13,9 C 92 % 1014,5 hPa 0,0 l/m 11,9 km/h (2 Bft) W-SW 246 0 min 0,000 mm 0,0 UV-I 0 W/m 12,9 C 11,4 C 16,1 km/h (3 Bft) 97,87 %
14.07.2019 02:38 14,2 C 19,4 C 13,9 C 92 % 1014,5 hPa 0,0 l/m 11,0 km/h (2 Bft) W-SW 257 0 min 0,000 mm 0,0 UV-I 0 W/m 12,9 C 11,8 C 14,5 km/h (3 Bft) 95,74 %
14.07.2019 02:40 14,2 C 19,4 C 13,9 C 92 % 1014,4 hPa 0,0 l/m 10,5 km/h (2 Bft) W-SW 247 0 min 0,000 mm 0,0 UV-I 0 W/m 12,9 C 12,0 C 14,5 km/h (3 Bft) 97,87 %
14.07.2019 02:42 14,2 C 19,4 C 13,9 C 92 % 1014,4 hPa 0,0 l/m 14,5 km/h (3 Bft) W-SW 247 0 min 0,000 mm 0,0 UV-I 0 W/m 12,9 C 10,4 C 22,5 km/h (4 Bft) 97,87 %
14.07.2019 02:44 14,2 C 19,4 C 13,9 C 92 % 1014,3 hPa 0,0 l/m 13,3 km/h (3 Bft) W-SW 237 0 min 0,000 mm 0,0 UV-I 0 W/m 12,9 C 10,8 C 17,7 km/h (3 Bft) 97,87 %
14.07.2019 02:46 14,2 C 19,4 C 13,9 C 92 % 1014,3 hPa 0,0 l/m 12,4 km/h (3 Bft) W-SW 240 0 min 0,000 mm 0,0 UV-I 0 W/m 12,9 C 11,2 C 19,3 km/h (3 Bft) 93,62 %
14.07.2019 02:48 14,2 C 19,4 C 13,9 C 92 % 1014,3 hPa 0,0 l/m 12,9 km/h (3 Bft) W-SW 247 0 min 0,000 mm 0,0 UV-I 0 W/m 12,9 C 11,0 C 19,3 km/h (3 Bft) 93,62 %
14.07.2019 02:50 14,2 C 19,4 C 13,9 C 92 % 1014,3 hPa 0,0 l/m 9,5 km/h (2 Bft) W-SW 253 0 min 0,000 mm 0,0 UV-I 0 W/m 12,9 C 12,5 C 16,1 km/h (3 Bft) 93,62 %
14.07.2019 02:52 14,2 C 19,4 C 13,9 C 92 % 1014,3 hPa 0,0 l/m 12,8 km/h (3 Bft) SW 230 0 min 0,000 mm 0,0 UV-I 0 W/m 12,9 C 11,0 C 16,1 km/h (3 Bft) 97,87 %
14.07.2019 02:54 14,2 C 19,4 C 13,9 C 92 % 1014,3 hPa 0,0 l/m 10,9 km/h (2 Bft) W-SW 242 0 min 0,000 mm 0,0 UV-I 0 W/m 12,9 C 11,8 C 16,1 km/h (3 Bft) 95,74 %
14.07.2019 02:56 14,2 C 19,4 C 13,9 C 92 % 1014,3 hPa 0,0 l/m 13,1 km/h (3 Bft) W-SW 250 0 min 0,000 mm 0,0 UV-I 0 W/m 12,9 C 10,9 C 19,3 km/h (3 Bft) 97,87 %
14.07.2019 02:58 14,2 C 19,4 C 13,9 C 92 % 1014,2 hPa 0,0 l/m 11,5 km/h (2 Bft) W 271 0 min 0,000 mm 0,0 UV-I 0 W/m 12,9 C 11,6 C 20,9 km/h (4 Bft) 97,87 %
14.07.2019 03:00 14,2 C 19,4 C 13,9 C 92 % 1014,2 hPa 0,0 l/m 12,6 km/h (3 Bft) W 261 0 min 0,025 mm 0,0 UV-I 0 W/m 12,9 C 11,1 C 19,3 km/h (3 Bft) 100,00 %
14.07.2019 03:02 14,2 C 19,4 C 13,9 C 92 % 1014,2 hPa 0,0 l/m 14,0 km/h (3 Bft) W 265 0 min 0,000 mm 0,0 UV-I 0 W/m 12,9 C 10,6 C 22,5 km/h (4 Bft) 98,00 %
14.07.2019 03:04 14,2 C 19,4 C 13,9 C 92 % 1014,2 hPa 0,0 l/m 13,3 km/h (3 Bft) W-SW 248 0 min 0,000 mm 0,0 UV-I 0 W/m 12,9 C 10,8 C 19,3 km/h (3 Bft) 100,00 %
14.07.2019 03:06 14,2 C 19,4 C 13,9 C 92 % 1014,2 hPa 0,0 l/m 10,6 km/h (2 Bft) SW 224 0 min 0,000 mm 0,0 UV-I 0 W/m 12,9 C 12,0 C 17,7 km/h (3 Bft) 100,00 %
14.07.2019 03:08 14,2 C 19,4 C 13,9 C 92 % 1014,2 hPa 0,0 l/m 11,0 km/h (2 Bft) W-SW 244 0 min 0,000 mm 0,0 UV-I 0 W/m 12,9 C 11,8 C 17,7 km/h (3 Bft) 100,00 %
14.07.2019 03:10 14,2 C 19,4 C 13,9 C 92 % 1014,2 hPa 0,0 l/m 10,6 km/h (2 Bft) SW 234 0 min 0,000 mm 0,0 UV-I 0 W/m 12,9 C 12,0 C 17,7 km/h (3 Bft) 97,87 %
14.07.2019 03:12 14,2 C 19,4 C 13,9 C 92 % 1014,2 hPa 0,0 l/m 10,2 km/h (2 Bft) W-SW 252 0 min 0,000 mm 0,0 UV-I 0 W/m 12,9 C 12,1 C 12,9 km/h (3 Bft) 100,00 %
14.07.2019 03:14 14,2 C 19,4 C 13,9 C 92 % 1014,2 hPa 0,0 l/m 11,0 km/h (2 Bft) W-SW 238 0 min 0,000 mm 0,0 UV-I 0 W/m 12,9 C 11,8 C 20,9 km/h (4 Bft) 100,00 %
14.07.2019 03:16 14,2 C 19,4 C 13,9 C 92 % 1014,1 hPa 0,0 l/m 8,9 km/h (2 Bft) W 265 0 min 0,000 mm 0,0 UV-I 0 W/m 12,9 C 12,8 C 16,1 km/h (3 Bft) 100,00 %
14.07.2019 03:18 14,2 C 19,4 C 13,9 C 92 % 1014,1 hPa 0,0 l/m 10,5 km/h (2 Bft) W-SW 250 0 min 0,000 mm 0,0 UV-I 0 W/m 12,9 C 12,0 C 14,5 km/h (3 Bft) 100,00 %
14.07.2019 03:20 14,2 C 19,4 C 13,9 C 92 % 1014,1 hPa 0,0 l/m 12,7 km/h (3 Bft) W-SW 255 0 min 0,000 mm 0,0 UV-I 0 W/m 12,9 C 11,1 C 17,7 km/h (3 Bft) 97,87 %
14.07.2019 03:22 14,2 C 19,4 C 13,9 C 92 % 1014,1 hPa 0,0 l/m 12,1 km/h (2 Bft) W-SW 243 0 min 0,000 mm 0,0 UV-I 0 W/m 12,9 C 11,3 C 16,1 km/h (3 Bft) 100,00 %
14.07.2019 03:24 14,2 C 19,4 C 13,9 C 92 % 1014,1 hPa 0,0 l/m 12,9 km/h (3 Bft) W-SW 245 0 min 0,000 mm 0,0 UV-I 0 W/m 12,9 C 11,0 C 22,5 km/h (4 Bft) 95,74 %
14.07.2019 03:26 14,2 C 19,4 C 13,9 C 92 % 1014,1 hPa 0,0 l/m 11,8 km/h (2 Bft) W-SW 247 0 min 0,000 mm 0,0 UV-I 0 W/m 12,9 C 11,4 C 19,3 km/h (3 Bft) 93,62 %
14.07.2019 03:28 14,2 C 19,4 C 13,9 C 92 % 1014,1 hPa 0,0 l/m 10,1 km/h (2 Bft) W-SW 239 0 min 0,000 mm 0,0 UV-I 0 W/m 12,9 C 12,2 C 16,1 km/h (3 Bft) 97,87 %
14.07.2019 03:30 14,2 C 19,4 C 13,9 C 92 % 1014,0 hPa 0,0 l/m 10,5 km/h (2 Bft) W-SW 254 0 min 0,000 mm 0,0 UV-I 0 W/m 12,9 C 12,0 C 16,1 km/h (3 Bft) 95,74 %
14.07.2019 03:32 14,2 C 19,4 C 13,9 C 92 % 1014,1 hPa 0,0 l/m 9,8 km/h (2 Bft) W 261 0 min 0,000 mm 0,0 UV-I 0 W/m 12,9 C 12,3 C 16,1 km/h (3 Bft) 95,74 %
14.07.2019 03:34 14,2 C 19,4 C 13,9 C 92 % 1014,1 hPa 0,0 l/m 9,0 km/h (2 Bft) W-SW 246 0 min 0,000 mm 0,0 UV-I 0 W/m 12,9 C 12,7 C 14,5 km/h (3 Bft) 95,92 %
14.07.2019 03:36 14,2 C 19,4 C 13,9 C 92 % 1014,1 hPa 0,0 l/m 8,9 km/h (2 Bft) SW 231 0 min 0,000 mm 0,0 UV-I 0 W/m 12,9 C 12,8 C 14,5 km/h (3 Bft) 97,87 %
14.07.2019 03:38 14,2 C 19,4 C 13,9 C 92 % 1014,0 hPa 0,0 l/m 9,3 km/h (2 Bft) W-SW 254 0 min 0,000 mm 0,0 UV-I 0 W/m 12,9 C 12,6 C 17,7 km/h (3 Bft) 97,87 %
14.07.2019 03:40 14,2 C 19,4 C 13,9 C 92 % 1014,0 hPa 0,0 l/m 11,5 km/h (2 Bft) W-SW 240 0 min 0,000 mm 0,0 UV-I 0 W/m 12,9 C 11,6 C 16,1 km/h (3 Bft) 97,92 %
14.07.2019 03:42 14,2 C 19,4 C 13,9 C 92 % 1014,1 hPa 0,0 l/m 9,7 km/h (2 Bft) W 263 0 min 0,000 mm 0,0 UV-I 0 W/m 12,9 C 12,4 C 14,5 km/h (3 Bft) 97,87 %
14.07.2019 03:44 14,2 C 19,4 C 13,9 C 92 % 1014,0 hPa 0,0 l/m 11,4 km/h (2 Bft) W 270 0 min 0,000 mm 0,0 UV-I 0 W/m 12,9 C 11,6 C 17,7 km/h (3 Bft) 97,30 %
14.07.2019 03:46 14,2 C 19,4 C 13,9 C 92 % 1014,0 hPa 0,0 l/m 9,4 km/h (2 Bft) W 265 0 min 0,000 mm 0,0 UV-I 0 W/m 12,9 C 12,5 C 16,1 km/h (3 Bft) 98,00 %
14.07.2019 03:48 14,2 C 19,4 C 13,9 C 92 % 1014,0 hPa 0,0 l/m 9,0 km/h (2 Bft) W-SW 250 0 min 0,000 mm 0,0 UV-I 0 W/m 12,9 C 12,7 C 14,5 km/h (3 Bft) 97,87 %
14.07.2019 03:50 14,2 C 19,4 C 13,9 C 92 % 1014,0 hPa 0,0 l/m 12,3 km/h (3 Bft) W-SW 257 0 min 0,000 mm 0,0 UV-I 0 W/m 12,9 C 11,2 C 17,7 km/h (3 Bft) 94,00 %
14.07.2019 03:52 14,2 C 19,4 C 13,9 C 92 % 1014,0 hPa 0,0 l/m 11,7 km/h (2 Bft) SW 229 0 min 0,000 mm 0,0 UV-I 0 W/m 12,9 C 11,5 C 14,5 km/h (3 Bft) 97,87 %
14.07.2019 03:54 14,2 C 19,4 C 13,9 C 92 % 1014,0 hPa 0,0 l/m 12,1 km/h (2 Bft) W-SW 250 0 min 0,000 mm 0,0 UV-I 0 W/m 12,9 C 11,3 C 17,7 km/h (3 Bft) 97,87 %
14.07.2019 03:56 14,2 C 19,4 C 13,9 C 92 % 1014,0 hPa 0,0 l/m 12,1 km/h (2 Bft) W 274 0 min 0,000 mm 0,0 UV-I 0 W/m 12,9 C 11,3 C 17,7 km/h (3 Bft) 100,00 %
14.07.2019 03:58 14,3 C 19,4 C 14,4 C 92 % 1014,0 hPa 0,0 l/m 10,8 km/h (2 Bft) W-SW 251 0 min 0,000 mm 0,0 UV-I 0 W/m 13,0 C 12,0 C 16,1 km/h (3 Bft) 95,74 %
14.07.2019 04:00 14,2 C 19,4 C 13,9 C 92 % 1014,0 hPa 0,0 l/m 12,2 km/h (2 Bft) W 265 0 min 0,026 mm 0,0 UV-I 0 W/m 12,9 C 11,3 C 19,3 km/h (3 Bft) 93,62 %
14.07.2019 04:02 14,3 C 19,4 C 14,4 C 92 % 1014,0 hPa 0,0 l/m 11,8 km/h (2 Bft) W 279 0 min 0,000 mm 0,0 UV-I 0 W/m 13,0 C 11,5 C 16,1 km/h (3 Bft) 96,43 %
14.07.2019 04:04 14,3 C 19,4 C 13,9 C 92 % 1014,1 hPa 0,0 l/m 10,1 km/h (2 Bft) W-SW 248 0 min 0,000 mm 0,0 UV-I 0 W/m 13,0 C 12,3 C 16,1 km/h (3 Bft) 97,87 %
14.07.2019 04:06 14,3 C 19,4 C 14,4 C 92 % 1014,1 hPa 0,0 l/m 13,0 km/h (3 Bft) W 265 0 min 0,000 mm 0,0 UV-I 0 W/m 13,0 C 11,1 C 17,7 km/h (3 Bft) 97,87 %
14.07.2019 04:08 14,3 C 19,4 C 14,4 C 92 % 1014,1 hPa 0,0 l/m 12,8 km/h (3 Bft) W-SW 237 0 min 0,000 mm 0,0 UV-I 0 W/m 13,0 C 11,1 C 16,1 km/h (3 Bft) 97,87 %
14.07.2019 04:10 14,3 C 19,4 C 13,9 C 92 % 1014,1 hPa 0,0 l/m 12,8 km/h (3 Bft) W 267 0 min 0,000 mm 0,0 UV-I 0 W/m 13,0 C 11,1 C 17,7 km/h (3 Bft) 94,74 %
14.07.2019 04:12 14,3 C 19,4 C 14,4 C 92 % 1014,1 hPa 0,0 l/m 9,9 km/h (2 Bft) W-SW 255 0 min 0,000 mm 0,0 UV-I 0 W/m 13,0 C 12,4 C 16,1 km/h (3 Bft) 95,83 %
14.07.2019 04:14 14,3 C 19,4 C 14,4 C 92 % 1014,1 hPa 0,0 l/m 9,0 km/h (2 Bft) W-SW 244 0 min 0,000 mm 0,0 UV-I 0 W/m 13,0 C 12,8 C 12,9 km/h (3 Bft) 96,00 %
14.07.2019 04:16 14,3 C 19,4 C 14,4 C 92 % 1014,1 hPa 0,0 l/m 9,1 km/h (2 Bft) W 262 0 min 0,000 mm 0,0 UV-I 0 W/m 13,0 C 12,8 C 12,9 km/h (3 Bft) 95,74 %
14.07.2019 04:18 14,3 C 19,4 C 14,4 C 92 % 1014,1 hPa 0,0 l/m 7,6 km/h (2 Bft) W 264 0 min 0,000 mm 0,0 UV-I 0 W/m 13,0 C 13,6 C 14,5 km/h (3 Bft) 95,74 %
14.07.2019 04:20 14,3 C 19,4 C 14,4 C 92 % 1014,1 hPa 0,0 l/m 6,0 km/h (2 Bft) W 269 0 min 0,000 mm 0,0 UV-I 0 W/m 13,0 C 14,3 C 11,3 km/h (2 Bft) 98,00 %
14.07.2019 04:22 14,3 C 19,4 C 14,4 C 92 % 1014,2 hPa 0,0 l/m 8,4 km/h (2 Bft) W 278 0 min 0,000 mm 0,0 UV-I 0 W/m 13,0 C 13,1 C 14,5 km/h (3 Bft) 100,00 %
14.07.2019 04:24 14,3 C 19,4 C 14,4 C 92 % 1014,2 hPa 0,0 l/m 9,8 km/h (2 Bft) W 266 0 min 0,000 mm 0,0 UV-I 0 W/m 13,0 C 12,4 C 14,5 km/h (3 Bft) 100,00 %
14.07.2019 04:26 14,3 C 19,4 C 14,4 C 92 % 1014,2 hPa 0,0 l/m 10,6 km/h (2 Bft) W-SW 255 0 min 0,000 mm 0,0 UV-I 0 W/m 13,0 C 12,1 C 16,1 km/h (3 Bft) 100,00 %
14.07.2019 04:28 14,3 C 19,4 C 14,4 C 92 % 1014,2 hPa 0,0 l/m 8,9 km/h (2 Bft) W 259 0 min 0,000 mm 0,0 UV-I 0 W/m 13,0 C 12,9 C 12,9 km/h (3 Bft) 97,87 %
14.07.2019 04:30 14,3 C 19,4 C 14,4 C 92 % 1014,2 hPa 0,0 l/m 6,5 km/h (2 Bft) W 262 0 min 0,000 mm 0,0 UV-I 0 W/m 13,0 C 14,3 C 11,3 km/h (2 Bft) 100,00 %
14.07.2019 04:32 14,3 C 19,4 C 14,4 C 93 % 1014,1 hPa 0,0 l/m 8,1 km/h (2 Bft) SW 236 0 min 0,000 mm 0,0 UV-I 0 W/m 13,2 C 13,3 C 14,5 km/h (3 Bft) 100,00 %
14.07.2019 04:34 14,3 C 19,4 C 14,4 C 92 % 1014,1 hPa 0,0 l/m 7,2 km/h (2 Bft) W-SW 254 0 min 0,000 mm 0,0 UV-I 0 W/m 13,0 C 13,8 C 11,3 km/h (2 Bft) 97,87 %
14.07.2019 04:36 14,3 C 19,4 C 14,4 C 93 % 1014,1 hPa 0,0 l/m 7,7 km/h (2 Bft) SW 236 0 min 0,000 mm 0,0 UV-I 0 W/m 13,2 C 13,5 C 12,9 km/h (3 Bft) 100,00 %
14.07.2019 04:38 14,3 C 19,4 C 14,4 C 92 % 1014,2 hPa 0,0 l/m 9,1 km/h (2 Bft) W-SW 238 0 min 0,000 mm 0,0 UV-I 0 W/m 13,0 C 12,8 C 12,9 km/h (3 Bft) 97,87 %
14.07.2019 04:40 14,3 C 19,4 C 14,4 C 93 % 1014,2 hPa 0,0 l/m 6,9 km/h (2 Bft) W-SW 253 0 min 0,000 mm 0,0 UV-I 0 W/m 13,2 C 14,0 C 12,9 km/h (3 Bft) 100,00 %
14.07.2019 04:42 14,3 C 19,4 C 14,4 C 92 % 1014,2 hPa 0,0 l/m 9,4 km/h (2 Bft) W-SW 255 0 min 0,000 mm 0,0 UV-I 0 W/m 13,0 C 12,6 C 14,5 km/h (3 Bft) 97,87 %
14.07.2019 04:44 14,3 C 19,4 C 14,4 C 93 % 1014,1 hPa 0,0 l/m 7,6 km/h (2 Bft) W 267 0 min 0,000 mm 0,0 UV-I 0 W/m 13,2 C 13,6 C 11,3 km/h (2 Bft) 100,00 %
14.07.2019 04:46 14,3 C 19,4 C 14,4 C 93 % 1014,1 hPa 0,0 l/m 8,0 km/h (2 Bft) W-NW 299 0 min 0,000 mm 0,0 UV-I 0 W/m 13,2 C 13,4 C 11,3 km/h (2 Bft) 100,00 %
14.07.2019 04:48 14,3 C 19,4 C 14,4 C 93 % 1014,1 hPa 0,0 l/m 7,3 km/h (2 Bft) W-SW 254 0 min 0,000 mm 0,0 UV-I 0 W/m 13,2 C 13,8 C 12,9 km/h (3 Bft) 100,00 %
14.07.2019 04:50 14,3 C 19,4 C 14,4 C 93 % 1014,1 hPa 0,0 l/m 6,4 km/h (2 Bft) W 273 0 min 0,000 mm 0,0 UV-I 0 W/m 13,2 C 14,3 C 9,7 km/h (2 Bft) 100,00 %
14.07.2019 04:52 14,3 C 19,4 C 14,4 C 93 % 1014,1 hPa 0,0 l/m 8,8 km/h (2 Bft) W-SW 246 0 min 0,000 mm 0,0 UV-I 0 W/m 13,2 C 12,9 C 14,5 km/h (3 Bft) 97,44 %
14.07.2019 04:54 14,3 C 19,4 C 14,4 C 93 % 1014,1 hPa 0,0 l/m 7,3 km/h (2 Bft) W-SW 255 0 min 0,000 mm 0,0 UV-I 0 W/m 13,2 C 13,8 C 11,3 km/h (2 Bft) 100,00 %
14.07.2019 04:56 14,3 C 19,4 C 14,4 C 93 % 1014,1 hPa 0,0 l/m 5,8 km/h (2 Bft) W 262 0 min 0,000 mm 0,0 UV-I 0 W/m 13,2 C 14,3 C 9,7 km/h (2 Bft) 100,00 %
14.07.2019 04:58 14,3 C 19,4 C 14,4 C 93 % 1014,1 hPa 0,0 l/m 10,1 km/h (2 Bft) W 272 0 min 0,000 mm 0,0 UV-I 0 W/m 13,2 C 12,3 C 12,9 km/h (3 Bft) 100,00 %
14.07.2019 05:00 14,3 C 19,4 C 14,4 C 93 % 1014,1 hPa 0,0 l/m 10,6 km/h (2 Bft) W-SW 249 0 min 0,000 mm 0,0 UV-I 0 W/m 13,2 C 12,1 C 16,1 km/h (3 Bft) 100,00 %
14.07.2019 05:02 14,3 C 19,4 C 14,4 C 93 % 1014,1 hPa 0,0 l/m 8,4 km/h (2 Bft) W-SW 257 0 min 0,000 mm 0,0 UV-I 0 W/m 13,2 C 13,1 C 12,9 km/h (3 Bft) 100,00 %
14.07.2019 05:04 14,3 C 19,4 C 14,4 C 93 % 1014,1 hPa 0,0 l/m 8,7 km/h (2 Bft) W-SW 250 0 min 0,000 mm 0,0 UV-I 0 W/m 13,2 C 13,0 C 12,9 km/h (3 Bft) 100,00 %
14.07.2019 05:06 14,3 C 19,4 C 14,4 C 93 % 1014,1 hPa 0,0 l/m 11,6 km/h (2 Bft) W-SW 258 0 min 0,000 mm 0,0 UV-I 0 W/m 13,2 C 11,6 C 16,1 km/h (3 Bft) 95,74 %
14.07.2019 05:08 14,3 C 19,4 C 14,4 C 93 % 1014,1 hPa 0,0 l/m 10,6 km/h (2 Bft) W-SW 247 0 min 0,000 mm 0,0 UV-I 0 W/m 13,2 C 12,1 C 14,5 km/h (3 Bft) 100,00 %
14.07.2019 05:10 14,3 C 19,4 C 14,4 C 93 % 1014,1 hPa 0,0 l/m 9,3 km/h (2 Bft) W-SW 245 0 min 0,000 mm 0,0 UV-I 0 W/m 13,2 C 12,7 C 12,9 km/h (3 Bft) 100,00 %
14.07.2019 05:12 14,3 C 19,4 C 14,4 C 93 % 1014,1 hPa 0,0 l/m 11,4 km/h (2 Bft) W-SW 238 0 min 0,000 mm 0,0 UV-I 0 W/m 13,2 C 11,7 C 19,3 km/h (3 Bft) 97,87 %
14.07.2019 05:14 14,3 C 19,4 C 14,4 C 93 % 1014,1 hPa 0,0 l/m 9,4 km/h (2 Bft) W 263 0 min 0,000 mm 0,0 UV-I 0 W/m 13,2 C 12,6 C 14,5 km/h (3 Bft) 100,00 %
14.07.2019 05:16 14,3 C 19,4 C 14,4 C 93 % 1014,1 hPa 0,0 l/m 11,2 km/h (2 Bft) W 259 0 min 0,000 mm 0,0 UV-I 0 W/m 13,2 C 11,8 C 16,1 km/h (3 Bft) 97,87 %
14.07.2019 05:18 14,3 C 19,4 C 14,4 C 93 % 1014,0 hPa 0,0 l/m 9,9 km/h (2 Bft) SW 236 0 min 0,000 mm 0,0 UV-I 0 W/m 13,2 C 12,4 C 14,5 km/h (3 Bft) 100,00 %
14.07.2019 05:20 14,3 C 19,4 C 14,4 C 93 % 1014,0 hPa 0,0 l/m 10,6 km/h (2 Bft) SW 227 0 min 0,000 mm 0,0 UV-I 2 W/m 13,2 C 12,1 C 16,1 km/h (3 Bft) 97,87 %
14.07.2019 05:22 14,3 C 19,4 C 14,4 C 93 % 1013,9 hPa 0,0 l/m 9,9 km/h (2 Bft) W-SW 252 0 min 0,000 mm 0,0 UV-I 5 W/m 13,2 C 12,4 C 14,5 km/h (3 Bft) 97,87 %
14.07.2019 05:24 14,3 C 19,4 C 14,4 C 93 % 1014,0 hPa 0,0 l/m 11,4 km/h (2 Bft) W 265 0 min 0,000 mm 0,0 UV-I 5 W/m 13,2 C 11,7 C 17,7 km/h (3 Bft) 93,62 %
14.07.2019 05:26 14,3 C 19,4 C 14,4 C 93 % 1014,0 hPa 0,0 l/m 7,8 km/h (2 Bft) W-SW 249 0 min 0,000 mm 0,0 UV-I 5 W/m 13,2 C 13,5 C 16,1 km/h (3 Bft) 96,23 %
14.07.2019 05:28 14,3 C 19,4 C 14,4 C 93 % 1014,0 hPa 0,0 l/m 10,2 km/h (2 Bft) W-SW 246 0 min 0,000 mm 0,0 UV-I 5 W/m 13,2 C 12,3 C 16,1 km/h (3 Bft) 93,62 %
14.07.2019 05:30 14,3 C 19,4 C 14,4 C 93 % 1014,0 hPa 0,0 l/m 9,7 km/h (2 Bft) W 262 0 min 0,000 mm 0,0 UV-I 6 W/m 13,2 C 12,5 C 12,9 km/h (3 Bft) 91,49 %
14.07.2019 05:32 14,2 C 19,4 C 14,4 C 93 % 1014,0 hPa 0,0 l/m 12,9 km/h (3 Bft) W-SW 251 0 min 0,000 mm 0,0 UV-I 7 W/m 13,1 C 11,0 C 19,3 km/h (3 Bft) 95,74 %
14.07.2019 05:34 14,3 C 19,4 C 14,4 C 93 % 1014,0 hPa 0,0 l/m 10,4 km/h (2 Bft) W-SW 243 0 min 0,000 mm 0,0 UV-I 7 W/m 13,2 C 12,2 C 16,1 km/h (3 Bft) 93,75 %
14.07.2019 05:36 14,2 C 19,4 C 14,4 C 93 % 1014,0 hPa 0,0 l/m 10,8 km/h (2 Bft) W-SW 240 0 min 0,000 mm 0,0 UV-I 7 W/m 13,1 C 11,9 C 14,5 km/h (3 Bft) 93,62 %
14.07.2019 05:38 14,2 C 19,4 C 14,4 C 93 % 1014,0 hPa 0,0 l/m 10,4 km/h (2 Bft) W 274 0 min 0,000 mm 0,0 UV-I 9 W/m 13,1 C 12,0 C 16,1 km/h (3 Bft) 89,47 %
14.07.2019 05:40 14,2 C 19,4 C 14,4 C 93 % 1014,0 hPa 0,0 l/m 9,9 km/h (2 Bft) W-SW 252 0 min 0,000 mm 0,0 UV-I 9 W/m 13,1 C 12,3 C 12,9 km/h (3 Bft) 93,88 %
14.07.2019 05:42 14,2 C 19,4 C 14,4 C 93 % 1014,0 hPa 0,0 l/m 10,2 km/h (2 Bft) W-SW 256 0 min 0,000 mm 0,0 UV-I 9 W/m 13,1 C 12,1 C 14,5 km/h (3 Bft) 93,62 %
14.07.2019 05:44 14,2 C 19,4 C 14,4 C 93 % 1014,0 hPa 0,0 l/m 9,9 km/h (2 Bft) W 277 0 min 0,000 mm 0,0 UV-I 9 W/m 13,1 C 12,3 C 14,5 km/h (3 Bft) 91,49 %
14.07.2019 05:46 14,2 C 19,4 C 14,4 C 93 % 1014,0 hPa 0,0 l/m 8,1 km/h (2 Bft) W 271 0 min 0,000 mm 0,0 UV-I 9 W/m 13,1 C 13,2 C 14,5 km/h (3 Bft) 93,62 %
14.07.2019 05:48 14,2 C 19,4 C 14,4 C 93 % 1014,0 hPa 0,0 l/m 8,3 km/h (2 Bft) W-SW 254 0 min 0,000 mm 0,0 UV-I 9 W/m 13,1 C 13,1 C 12,9 km/h (3 Bft) 95,74 %
14.07.2019 05:50 14,2 C 19,4 C 14,4 C 93 % 1014,0 hPa 0,0 l/m 9,8 km/h (2 Bft) W 270 0 min 0,000 mm 0,0 UV-I 10 W/m 13,1 C 12,3 C 14,5 km/h (3 Bft) 95,74 %
14.07.2019 05:52 14,2 C 19,4 C 14,4 C 93 % 1014,0 hPa 0,0 l/m 10,2 km/h (2 Bft) W 269 0 min 0,000 mm 0,0 UV-I 11 W/m 13,1 C 12,1 C 14,5 km/h (3 Bft) 95,74 %
14.07.2019 05:54 14,2 C 19,4 C 14,4 C 93 % 1014,0 hPa 0,0 l/m 9,8 km/h (2 Bft) W 266 0 min 0,000 mm 0,0 UV-I 11 W/m 13,1 C 12,3 C 12,9 km/h (3 Bft) 96,00 %
14.07.2019 05:56 14,2 C 19,4 C 14,4 C 93 % 1014,1 hPa 0,0 l/m 9,1 km/h (2 Bft) W-SW 240 0 min 0,000 mm 0,0 UV-I 11 W/m 13,1 C 12,7 C 16,1 km/h (3 Bft) 96,00 %
14.07.2019 05:58 14,2 C 19,4 C 14,4 C 93 % 1014,0 hPa 0,0 l/m 9,0 km/h (2 Bft) W-SW 253 0 min 0,000 mm 0,0 UV-I 11 W/m 13,1 C 12,7 C 12,9 km/h (3 Bft) 97,87 %
14.07.2019 06:00 14,2 C 19,4 C 14,4 C 94 % 1014,0 hPa 0,0 l/m 10,4 km/h (2 Bft) W 261 0 min 0,000 mm 0,0 UV-I 12 W/m 13,2 C 12,0 C 14,5 km/h (3 Bft) 97,87 %
14.07.2019 06:02 14,2 C 19,4 C 14,4 C 94 % 1014,1 hPa 0,0 l/m 8,8 km/h (2 Bft) W 261 0 min 0,000 mm 0,0 UV-I 12 W/m 13,2 C 12,8 C 12,9 km/h (3 Bft) 97,22 %
14.07.2019 06:04 14,3 C 19,4 C 14,4 C 94 % 1014,0 hPa 0,0 l/m 8,6 km/h (2 Bft) W-SW 238 0 min 0,000 mm 0,0 UV-I 14 W/m 13,3 C 13,0 C 12,9 km/h (3 Bft) 98,28 %
14.07.2019 06:06 14,2 C 19,4 C 14,4 C 94 % 1014,0 hPa 0,2 l/m 8,7 km/h (2 Bft) W 261 0 min 0,000 mm 0,0 UV-I 15 W/m 13,2 C 12,9 C 12,9 km/h (3 Bft) 97,22 %
14.07.2019 06:08 14,2 C 19,4 C 14,4 C 94 % 1014,0 hPa 0,0 l/m 11,4 km/h (2 Bft) W 261 0 min 0,000 mm 0,0 UV-I 16 W/m 13,2 C 11,6 C 14,5 km/h (3 Bft) 98,00 %
14.07.2019 06:10 14,2 C 19,4 C 14,4 C 94 % 1014,0 hPa 0,0 l/m 10,2 km/h (2 Bft) W 259 0 min 0,000 mm 0,0 UV-I 16 W/m 13,2 C 12,1 C 12,9 km/h (3 Bft) 97,87 %
14.07.2019 06:12 14,2 C 19,4 C 14,4 C 94 % 1014,1 hPa 0,2 l/m 9,5 km/h (2 Bft) W-SW 250 0 min 0,000 mm 0,0 UV-I 19 W/m 13,2 C 12,5 C 12,9 km/h (3 Bft) 97,87 %
14.07.2019 06:14 14,2 C 19,4 C 14,4 C 95 % 1014,1 hPa 0,6 l/m 11,7 km/h (2 Bft) W 265 0 min 0,000 mm 0,0 UV-I 22 W/m 13,4 C 11,5 C 16,1 km/h (3 Bft) 95,74 %
14.07.2019 06:16 14,1 C 19,4 C 14,4 C 95 % 1014,0 hPa 0,8 l/m 10,2 km/h (2 Bft) W-SW 246 0 min 0,000 mm 0,0 UV-I 25 W/m 13,3 C 12,0 C 16,1 km/h (3 Bft) 98,00 %
14.07.2019 06:18 14,1 C 19,4 C 14,4 C 95 % 1014,0 hPa 0,2 l/m 12,1 km/h (2 Bft) W 265 0 min 0,000 mm 0,0 UV-I 31 W/m 13,3 C 11,2 C 16,1 km/h (3 Bft) 96,00 %
14.07.2019 06:20 14,1 C 19,4 C 14,4 C 95 % 1014,0 hPa 0,4 l/m 11,4 km/h (2 Bft) SW 229 0 min 0,000 mm 0,0 UV-I 32 W/m 13,3 C 11,5 C 16,1 km/h (3 Bft) 97,87 %
14.07.2019 06:22 14,1 C 19,4 C 14,4 C 95 % 1014,0 hPa 0,8 l/m 11,8 km/h (2 Bft) W-NW 288 0 min 0,000 mm 0,0 UV-I 31 W/m 13,3 C 11,3 C 22,5 km/h (4 Bft) 97,37 %
14.07.2019 06:24 14,1 C 19,4 C 14,4 C 95 % 1014,0 hPa 1,2 l/m 12,6 km/h (3 Bft) W-SW 252 0 min 0,000 mm 0,0 UV-I 30 W/m 13,3 C 11,0 C 20,9 km/h (4 Bft) 97,87 %
14.07.2019 06:26 14,1 C 19,4 C 14,4 C 95 % 1014,0 hPa 1,0 l/m 12,7 km/h (3 Bft) W-SW 238 0 min 0,000 mm 0,0 UV-I 28 W/m 13,3 C 11,0 C 16,1 km/h (3 Bft) 98,00 %
14.07.2019 06:28 14,0 C 19,4 C 14,4 C 95 % 1014,0 hPa 0,2 l/m 12,4 km/h (3 Bft) SW 227 0 min 0,000 mm 0,0 UV-I 27 W/m 13,2 C 11,0 C 16,1 km/h (3 Bft) 91,49 %
14.07.2019 06:30 14,1 C 19,4 C 14,4 C 95 % 1014,0 hPa 0,0 l/m 11,3 km/h (2 Bft) SW 230 0 min 0,000 mm 0,0 UV-I 25 W/m 13,3 C 11,5 C 16,1 km/h (3 Bft) 95,74 %
14.07.2019 06:32 14,1 C 19,4 C 14,4 C 96 % 1014,0 hPa 0,2 l/m 9,6 km/h (2 Bft) W-SW 237 0 min 0,000 mm 0,0 UV-I 28 W/m 13,5 C 12,3 C 16,1 km/h (3 Bft) 98,00 %
14.07.2019 06:34 14,1 C 19,4 C 14,4 C 96 % 1014,0 hPa 0,2 l/m 9,0 km/h (2 Bft) W 279 0 min 0,000 mm 0,0 UV-I 32 W/m 13,5 C 12,6 C 12,9 km/h (3 Bft) 97,87 %
14.07.2019 06:36 14,1 C 19,4 C 14,4 C 96 % 1014,0 hPa 0,0 l/m 9,9 km/h (2 Bft) SW 229 0 min 0,000 mm 0,0 UV-I 40 W/m 13,5 C 12,2 C 17,7 km/h (3 Bft) 95,74 %
14.07.2019 06:38 14,1 C 19,4 C 14,4 C 96 % 1014,0 hPa 0,0 l/m 8,8 km/h (2 Bft) W 261 0 min 0,000 mm 0,0 UV-I 43 W/m 13,5 C 12,7 C 12,9 km/h (3 Bft) 94,29 %
14.07.2019 06:40 14,1 C 19,4 C 14,4 C 96 % 1014,1 hPa 0,0 l/m 6,5 km/h (2 Bft) W-SW 248 0 min 0,000 mm 0,0 UV-I 42 W/m 13,5 C 14,1 C 9,7 km/h (2 Bft) 98,00 %
14.07.2019 06:42 14,1 C 19,4 C 14,4 C 96 % 1014,1 hPa 0,0 l/m 6,5 km/h (2 Bft) W 263 0 min 0,000 mm 0,0 UV-I 40 W/m 13,5 C 14,1 C 12,9 km/h (3 Bft) 97,87 %
14.07.2019 06:44 14,1 C 19,4 C 14,4 C 96 % 1014,1 hPa 0,0 l/m 5,1 km/h (1 Bft) W 259 0 min 0,000 mm 0,0 UV-I 39 W/m 13,5 C 14,1 C 9,7 km/h (2 Bft) 96,00 %
14.07.2019 06:46 14,1 C 19,4 C 14,4 C 96 % 1014,1 hPa 0,0 l/m 6,1 km/h (2 Bft) W-SW 252 0 min 0,000 mm 0,0 UV-I 39 W/m 13,5 C 14,1 C 11,3 km/h (2 Bft) 97,92 %
14.07.2019 06:48 14,1 C 19,4 C 14,4 C 96 % 1014,1 hPa 0,0 l/m 5,6 km/h (1 Bft) W-SW 239 0 min 0,000 mm 0,0 UV-I 40 W/m 13,5 C 14,1 C 8,0 km/h (2 Bft) 97,87 %
14.07.2019 06:50 14,1 C 19,4 C 14,4 C 96 % 1014,1 hPa 0,0 l/m 6,2 km/h (2 Bft) W-SW 239 0 min 0,000 mm 0,0 UV-I 43 W/m 13,5 C 14,1 C 9,7 km/h (2 Bft) 93,62 %
14.07.2019 06:52 14,2 C 19,4 C 15,0 C 96 % 1014,0 hPa 0,0 l/m 5,5 km/h (1 Bft) W-SW 243 0 min 0,000 mm 0,0 UV-I 53 W/m 13,6 C 14,2 C 9,7 km/h (2 Bft) 97,87 %
14.07.2019 06:54 14,2 C 19,4 C 15,0 C 96 % 1014,0 hPa 0,0 l/m 6,7 km/h (2 Bft) W 260 0 min 0,000 mm 0,0 UV-I 54 W/m 13,6 C 14,0 C 9,7 km/h (2 Bft) 97,87 %
14.07.2019 06:56 14,2 C 19,4 C 15,0 C 96 % 1014,1 hPa 0,0 l/m 7,0 km/h (2 Bft) SW 232 0 min 0,000 mm 0,0 UV-I 55 W/m 13,6 C 13,8 C 9,7 km/h (2 Bft) 97,87 %
14.07.2019 06:58 14,2 C 19,4 C 15,0 C 96 % 1014,1 hPa 0,0 l/m 6,4 km/h (2 Bft) W-SW 241 0 min 0,000 mm 0,0 UV-I 51 W/m 13,6 C 14,2 C 9,7 km/h (2 Bft) 97,87 %
14.07.2019 07:00 14,3 C 19,4 C 15,0 C 96 % 1014,1 hPa 0,0 l/m 5,6 km/h (1 Bft) SW 227 0 min 0,025 mm 0,0 UV-I 50 W/m 13,7 C 14,3 C 8,0 km/h (2 Bft) 98,00 %
14.07.2019 07:02 14,3 C 19,4 C 15,0 C 96 % 1014,1 hPa 0,0 l/m 7,1 km/h (2 Bft) W-SW 245 0 min 0,000 mm 0,0 UV-I 50 W/m 13,7 C 13,9 C 9,7 km/h (2 Bft) 97,87 %
14.07.2019 07:04 14,3 C 19,4 C 15,0 C 96 % 1014,1 hPa 0,0 l/m 5,1 km/h (1 Bft) SW 232 0 min 0,000 mm 0,0 UV-I 47 W/m 13,7 C 14,3 C 8,0 km/h (2 Bft) 95,74 %
14.07.2019 07:06 14,3 C 19,4 C 15,0 C 96 % 1014,1 hPa 0,0 l/m 4,7 km/h (1 Bft) W-SW 246 0 min 0,000 mm 0,0 UV-I 46 W/m 13,7 C 14,3 C 6,4 km/h (2 Bft) 97,87 %
14.07.2019 07:08 14,3 C 19,4 C 15,0 C 96 % 1014,1 hPa 0,0 l/m 4,5 km/h (1 Bft) SW 223 0 min 0,000 mm 0,0 UV-I 49 W/m 13,7 C 14,3 C 8,0 km/h (2 Bft) 97,37 %
14.07.2019 07:10 14,4 C 19,4 C 15,0 C 96 % 1014,1 hPa 0,0 l/m 6,7 km/h (2 Bft) W-SW 257 0 min 0,000 mm 0,0 UV-I 46 W/m 13,8 C 14,2 C 11,3 km/h (2 Bft) 97,87 %
14.07.2019 07:12 14,4 C 19,4 C 15,0 C 96 % 1014,1 hPa 0,0 l/m 4,7 km/h (1 Bft) W-SW 246 0 min 0,000 mm 0,0 UV-I 39 W/m 13,8 C 14,4 C 6,4 km/h (2 Bft) 98,00 %
14.07.2019 07:14 14,4 C 19,4 C 15,0 C 96 % 1014,1 hPa 0,0 l/m 5,5 km/h (1 Bft) W 265 0 min 0,000 mm 0,0 UV-I 36 W/m 13,8 C 14,4 C 9,7 km/h (2 Bft) 97,87 %
14.07.2019 07:16 14,4 C 19,4 C 15,6 C 96 % 1014,1 hPa 0,0 l/m 4,8 km/h (1 Bft) W 266 0 min 0,000 mm 0,0 UV-I 38 W/m 13,8 C 14,4 C 6,4 km/h (2 Bft) 100,00 %
14.07.2019 07:18 14,4 C 19,4 C 15,6 C 96 % 1014,1 hPa 0,0 l/m 7,0 km/h (2 Bft) W 259 0 min 0,000 mm 0,0 UV-I 42 W/m 13,8 C 14,1 C 11,3 km/h (2 Bft) 97,87 %
14.07.2019 07:20 14,4 C 19,4 C 15,6 C 96 % 1014,0 hPa 0,0 l/m 6,3 km/h (2 Bft) W-SW 245 0 min 0,000 mm 0,0 UV-I 47 W/m 13,8 C 14,4 C 11,3 km/h (2 Bft) 96,00 %
14.07.2019 07:22 14,4 C 19,4 C 15,6 C 96 % 1014,0 hPa 0,0 l/m 4,8 km/h (1 Bft) W-SW 255 0 min 0,000 mm 0,0 UV-I 42 W/m 13,8 C 14,4 C 6,4 km/h (2 Bft) 97,87 %
14.07.2019 07:24 14,5 C 19,4 C 15,6 C 96 % 1014,1 hPa 0,0 l/m 4,5 km/h (1 Bft) W-SW 248 0 min 0,000 mm 0,0 UV-I 42 W/m 13,9 C 14,5 C 6,4 km/h (2 Bft) 95,74 %
14.07.2019 07:26 14,5 C 19,4 C 15,6 C 96 % 1014,0 hPa 0,0 l/m 4,0 km/h (1 Bft) W-SW 254 0 min 0,000 mm 0,0 UV-I 42 W/m 13,9 C 14,5 C 6,4 km/h (2 Bft) 97,87 %
14.07.2019 07:28 14,5 C 19,4 C 15,6 C 96 % 1014,1 hPa 0,0 l/m 7,6 km/h (2 Bft) W-SW 258 0 min 0,000 mm 0,0 UV-I 44 W/m 13,9 C 13,8 C 11,3 km/h (2 Bft) 97,92 %
14.07.2019 07:30 14,5 C 19,4 C 15,6 C 96 % 1014,1 hPa 0,0 l/m 7,3 km/h (2 Bft) W 275 0 min 0,000 mm 0,0 UV-I 48 W/m 13,9 C 14,0 C 11,3 km/h (2 Bft) 93,62 %
14.07.2019 07:32 14,5 C 19,4 C 15,6 C 96 % 1014,1 hPa 0,0 l/m 7,0 km/h (2 Bft) W 269 0 min 0,000 mm 0,0 UV-I 52 W/m 13,9 C 14,2 C 11,3 km/h (2 Bft) 97,37 %
14.07.2019 07:34 14,6 C 19,4 C 15,6 C 96 % 1014,1 hPa 0,0 l/m 7,0 km/h (2 Bft) W-SW 258 0 min 0,000 mm 0,0 UV-I 57 W/m 14,0 C 14,3 C 11,3 km/h (2 Bft) 98,00 %
14.07.2019 07:36 14,5 C 19,4 C 15,6 C 96 % 1014,1 hPa 0,0 l/m 6,2 km/h (2 Bft) W 271 0 min 0,000 mm 0,0 UV-I 61 W/m 13,9 C 14,5 C 11,3 km/h (2 Bft) 96,00 %
14.07.2019 07:38 14,6 C 19,4 C 15,6 C 96 % 1014,1 hPa 0,0 l/m 7,2 km/h (2 Bft) W-SW 247 0 min 0,000 mm 0,0 UV-I 54 W/m 14,0 C 14,1 C 12,9 km/h (3 Bft) 95,74 %
14.07.2019 07:40 14,6 C 19,4 C 15,6 C 95 % 1014,1 hPa 0,0 l/m 4,6 km/h (1 Bft) W 259 0 min 0,000 mm 0,0 UV-I 59 W/m 13,8 C 14,6 C 9,7 km/h (2 Bft) 95,74 %
14.07.2019 07:42 14,5 C 19,4 C 15,6 C 95 % 1014,1 hPa 0,0 l/m 5,4 km/h (1 Bft) W 281 0 min 0,000 mm 0,0 UV-I 66 W/m 13,7 C 14,5 C 11,3 km/h (2 Bft) 95,74 %
14.07.2019 07:44 14,6 C 19,4 C 15,6 C 96 % 1014,2 hPa 0,0 l/m 4,6 km/h (1 Bft) NW 315 0 min 0,000 mm 0,0 UV-I 61 W/m 14,0 C 14,6 C 12,9 km/h (3 Bft) 95,12 %
14.07.2019 07:46 14,6 C 19,4 C 15,6 C 96 % 1014,2 hPa 0,0 l/m 5,7 km/h (1 Bft) W-NW 298 0 min 0,000 mm 0,0 UV-I 62 W/m 14,0 C 14,6 C 9,7 km/h (2 Bft) 98,00 %
14.07.2019 07:48 14,6 C 19,4 C 15,6 C 96 % 1014,2 hPa 0,0 l/m 3,0 km/h (1 Bft) W-NW 289 0 min 0,000 mm 0,0 UV-I 51 W/m 14,0 C 14,6 C 8,0 km/h (2 Bft) 95,74 %
14.07.2019 07:50 14,6 C 19,4 C 15,6 C 96 % 1014,2 hPa 0,0 l/m 4,4 km/h (1 Bft) W 264 0 min 0,000 mm 0,0 UV-I 52 W/m 14,0 C 14,6 C 6,4 km/h (2 Bft) 95,74 %
14.07.2019 07:52 14,6 C 19,4 C 15,6 C 96 % 1014,2 hPa 0,0 l/m 3,8 km/h (1 Bft) W-SW 252 0 min 0,000 mm 0,0 UV-I 48 W/m 14,0 C 14,6 C 8,0 km/h (2 Bft) 95,74 %
14.07.2019 07:54 14,5 C 19,4 C 15,6 C 96 % 1014,2 hPa 0,0 l/m 4,8 km/h (1 Bft) W-NW 282 0 min 0,000 mm 0,0 UV-I 47 W/m 13,9 C 14,5 C 9,7 km/h (2 Bft) 95,74 %
14.07.2019 07:56 14,6 C 19,4 C 15,6 C 96 % 1014,2 hPa 0,0 l/m 4,4 km/h (1 Bft) W-NW 284 0 min 0,000 mm 0,0 UV-I 45 W/m 14,0 C 14,6 C 6,4 km/h (2 Bft) 97,87 %
14.07.2019 07:58 14,5 C 19,4 C 15,6 C 96 % 1014,3 hPa 0,0 l/m 3,8 km/h (1 Bft) W-SW 251 0 min 0,000 mm 0,0 UV-I 52 W/m 13,9 C 14,5 C 6,4 km/h (2 Bft) 100,00 %
14.07.2019 08:00 14,5 C 19,4 C 15,6 C 96 % 1014,3 hPa 0,0 l/m 4,8 km/h (1 Bft) W-NW 290 0 min 0,025 mm 0,0 UV-I 63 W/m 13,9 C 14,5 C 9,7 km/h (2 Bft) 100,00 %
14.07.2019 08:02 14,6 C 19,4 C 15,6 C 96 % 1014,3 hPa 0,0 l/m 5,0 km/h (1 Bft) W 269 0 min 0,000 mm 0,0 UV-I 65 W/m 14,0 C 14,6 C 9,7 km/h (2 Bft) 100,00 %
14.07.2019 08:04 14,6 C 19,4 C 16,1 C 96 % 1014,3 hPa 0,0 l/m 4,4 km/h (1 Bft) W-NW 288 0 min 0,000 mm 0,0 UV-I 73 W/m 14,0 C 14,6 C 6,4 km/h (2 Bft) 100,00 %
14.07.2019 08:06 14,6 C 19,4 C 16,1 C 96 % 1014,3 hPa 0,0 l/m 5,4 km/h (1 Bft) W-NW 286 0 min 0,000 mm 0,0 UV-I 76 W/m 14,0 C 14,6 C 9,7 km/h (2 Bft) 100,00 %
14.07.2019 08:08 14,6 C 19,4 C 16,1 C 96 % 1014,3 hPa 0,0 l/m 4,5 km/h (1 Bft) W 266 0 min 0,000 mm 0,0 UV-I 85 W/m 14,0 C 14,6 C 6,4 km/h (2 Bft) 100,00 %
14.07.2019 08:10 14,6 C 19,4 C 16,1 C 96 % 1014,3 hPa 0,0 l/m 4,6 km/h (1 Bft) W 274 0 min 0,000 mm 0,0 UV-I 102 W/m 14,0 C 14,6 C 6,4 km/h (2 Bft) 100,00 %
14.07.2019 08:12 14,7 C 19,4 C 16,1 C 96 % 1014,2 hPa 0,0 l/m 3,5 km/h (1 Bft) W 273 0 min 0,000 mm 0,2 UV-I 118 W/m 14,1 C 14,7 C 4,8 km/h (1 Bft) 100,00 %
14.07.2019 08:14 14,7 C 19,4 C 16,7 C 96 % 1014,2 hPa 0,0 l/m 6,3 km/h (2 Bft) W 277 0 min 0,000 mm 0,5 UV-I 137 W/m 14,1 C 14,7 C 12,9 km/h (3 Bft) 98,00 %
14.07.2019 08:16 14,7 C 19,4 C 16,7 C 96 % 1014,2 hPa 0,0 l/m 9,0 km/h (2 Bft) W 265 0 min 0,000 mm 0,6 UV-I 141 W/m 14,1 C 13,3 C 14,5 km/h (3 Bft) 97,37 %
14.07.2019 08:18 14,8 C 19,4 C 16,7 C 96 % 1014,2 hPa 0,0 l/m 5,8 km/h (2 Bft) W 270 0 min 0,000 mm 0,6 UV-I 142 W/m 14,2 C 14,8 C 9,7 km/h (2 Bft) 97,87 %
14.07.2019 08:20 14,8 C 19,4 C 16,7 C 96 % 1014,2 hPa 0,0 l/m 8,9 km/h (2 Bft) W 273 0 min 0,000 mm 0,6 UV-I 145 W/m 14,2 C 13,4 C 16,1 km/h (3 Bft) 98,00 %
14.07.2019 08:22 14,8 C 19,4 C 16,7 C 96 % 1014,2 hPa 0,0 l/m 6,2 km/h (2 Bft) W-NW 288 0 min 0,000 mm 0,6 UV-I 142 W/m 14,2 C 14,8 C 9,7 km/h (2 Bft) 97,87 %
14.07.2019 08:24 14,8 C 19,4 C 16,7 C 96 % 1014,2 hPa 0,0 l/m 6,1 km/h (2 Bft) W 273 0 min 0,000 mm 0,6 UV-I 148 W/m 14,2 C 14,8 C 9,7 km/h (2 Bft) 97,87 %
14.07.2019 08:26 14,9 C 19,4 C 16,7 C 96 % 1014,2 hPa 0,0 l/m 10,4 km/h (2 Bft) W 261 0 min 0,000 mm 0,6 UV-I 163 W/m 14,3 C 12,8 C 16,1 km/h (3 Bft) 97,87 %
14.07.2019 08:28 14,9 C 19,4 C 16,7 C 95 % 1014,2 hPa 0,0 l/m 10,7 km/h (2 Bft) W-SW 250 0 min 0,000 mm 0,6 UV-I 164 W/m 14,1 C 12,7 C 16,1 km/h (3 Bft) 98,00 %
14.07.2019 08:30 14,9 C 19,4 C 16,7 C 95 % 1014,2 hPa 0,0 l/m 7,1 km/h (2 Bft) W 277 0 min 0,000 mm 0,6 UV-I 160 W/m 14,1 C 14,5 C 11,3 km/h (2 Bft) 95,74 %
14.07.2019 08:32 15,0 C 19,4 C 16,7 C 95 % 1014,2 hPa 0,0 l/m 9,0 km/h (2 Bft) W 260 0 min 0,000 mm 0,6 UV-I 160 W/m 14,2 C 13,6 C 16,1 km/h (3 Bft) 97,87 %
14.07.2019 08:34 15,1 C 19,4 C 17,2 C 95 % 1014,2 hPa 0,0 l/m 8,0 km/h (2 Bft) W 271 0 min 0,000 mm 0,6 UV-I 163 W/m 14,3 C 14,2 C 14,5 km/h (3 Bft) 97,37 %
14.07.2019 08:36 15,0 C 19,4 C 16,7 C 95 % 1014,3 hPa 0,0 l/m 7,8 km/h (2 Bft) W-NW 292 0 min 0,000 mm 0,7 UV-I 169 W/m 14,2 C 14,2 C 14,5 km/h (3 Bft) 97,87 %
14.07.2019 08:38 15,1 C 19,4 C 17,2 C 95 % 1014,3 hPa 0,0 l/m 6,0 km/h (2 Bft) W-SW 256 0 min 0,000 mm 0,7 UV-I 175 W/m 14,3 C 15,1 C 12,9 km/h (3 Bft) 97,92 %
14.07.2019 08:40 15,1 C 19,4 C 17,2 C 95 % 1014,3 hPa 0,0 l/m 3,7 km/h (1 Bft) NW 316 0 min 0,000 mm 0,7 UV-I 179 W/m 14,3 C 15,1 C 8,0 km/h (2 Bft) 97,87 %
14.07.2019 08:42 15,2 C 19,4 C 17,8 C 95 % 1014,3 hPa 0,0 l/m 3,2 km/h (1 Bft) W 269 0 min 0,000 mm 0,6 UV-I 182 W/m 14,4 C 15,2 C 4,8 km/h (1 Bft) 100,00 %
14.07.2019 08:44 15,3 C 19,4 C 17,8 C 95 % 1014,4 hPa 0,0 l/m 2,3 km/h (1 Bft) NW 316 0 min 0,000 mm 0,6 UV-I 175 W/m 14,5 C 15,3 C 6,4 km/h (2 Bft) 100,00 %
14.07.2019 08:46 15,2 C 19,4 C 17,8 C 95 % 1014,4 hPa 0,0 l/m 6,1 km/h (2 Bft) W 279 0 min 0,000 mm 0,6 UV-I 213 W/m 14,4 C 15,2 C 11,3 km/h (2 Bft) 100,00 %
14.07.2019 08:48 15,2 C 19,4 C 18,3 C 95 % 1014,4 hPa 0,0 l/m 2,6 km/h (1 Bft) W-NW 294 0 min 0,000 mm 0,6 UV-I 210 W/m 14,4 C 15,2 C 4,8 km/h (1 Bft) 97,87 %
14.07.2019 08:50 15,3 C 19,4 C 18,3 C 95 % 1014,4 hPa 0,0 l/m 3,9 km/h (1 Bft) S-SW 199 0 min 0,000 mm 0,6 UV-I 184 W/m 14,5 C 15,3 C 8,0 km/h (2 Bft) 97,87 %
14.07.2019 08:52 15,3 C 19,4 C 17,8 C 95 % 1014,4 hPa 0,0 l/m 3,8 km/h (1 Bft) W-SW 257 0 min 0,000 mm 0,6 UV-I 170 W/m 14,5 C 15,3 C 8,0 km/h (2 Bft) 100,00 %
14.07.2019 08:54 15,3 C 19,4 C 17,8 C 95 % 1014,4 hPa 0,0 l/m 3,9 km/h (1 Bft) W-SW 258 0 min 0,000 mm 0,6 UV-I 179 W/m 14,5 C 15,3 C 6,4 km/h (2 Bft) 95,74 %
14.07.2019 08:56 15,3 C 19,4 C 17,8 C 95 % 1014,4 hPa 0,0 l/m 3,8 km/h (1 Bft) W 265 0 min 0,000 mm 0,6 UV-I 185 W/m 14,5 C 15,3 C 8,0 km/h (2 Bft) 98,00 %
14.07.2019 08:58 15,4 C 19,4 C 17,8 C 95 % 1014,4 hPa 0,0 l/m 4,0 km/h (1 Bft) W 271 0 min 0,000 mm 0,7 UV-I 210 W/m 14,6 C 15,4 C 9,7 km/h (2 Bft) 97,87 %
14.07.2019 09:00 15,4 C 19,4 C 18,3 C 95 % 1014,4 hPa 0,0 l/m 5,1 km/h (1 Bft) W-SW 238 0 min 0,077 mm 0,8 UV-I 237 W/m 14,6 C 15,4 C 11,3 km/h (2 Bft) 97,37 %
14.07.2019 09:02 15,4 C 19,4 C 18,9 C 94 % 1014,4 hPa 0,0 l/m 7,2 km/h (2 Bft) W-SW 257 0 min 0,000 mm 0,9 UV-I 297 W/m 14,4 C 15,0 C 12,9 km/h (3 Bft) 100,00 %
14.07.2019 09:04 15,5 C 19,4 C 19,4 C 94 % 1014,4 hPa 0,0 l/m 7,8 km/h (2 Bft) W 278 2 min 0,000 mm 1,1 UV-I 400 W/m 14,5 C 14,7 C 14,5 km/h (3 Bft) 100,00 %
14.07.2019 09:06 15,6 C 19,4 C 21,1 C 94 % 1014,3 hPa 0,0 l/m 7,1 km/h (2 Bft) W-NW 303 2 min 0,000 mm 1,4 UV-I 521 W/m 14,6 C 15,2 C 12,9 km/h (3 Bft) 97,87 %
14.07.2019 09:08 15,7 C 19,4 C 21,1 C 94 % 1014,3 hPa 0,0 l/m 8,8 km/h (2 Bft) W-SW 248 2 min 0,000 mm 1,5 UV-I 516 W/m 14,7 C 14,4 C 17,7 km/h (3 Bft) 100,00 %
14.07.2019 09:10 15,8 C 19,4 C 22,2 C 94 % 1014,3 hPa 0,0 l/m 7,7 km/h (2 Bft) W-SW 256 2 min 0,000 mm 1,6 UV-I 520 W/m 14,8 C 15,1 C 14,5 km/h (3 Bft) 95,74 %
14.07.2019 09:12 15,9 C 19,4 C 23,3 C 93 % 1014,4 hPa 0,0 l/m 6,2 km/h (2 Bft) W 276 2 min 0,000 mm 1,7 UV-I 567 W/m 14,8 C 15,9 C 11,3 km/h (2 Bft) 100,00 %
14.07.2019 09:14 16,1 C 19,4 C 22,8 C 93 % 1014,4 hPa 0,0 l/m 9,2 km/h (2 Bft) W-NW 284 2 min 0,000 mm 1,5 UV-I 506 W/m 15,0 C 14,7 C 16,1 km/h (3 Bft) 98,00 %
14.07.2019 09:16 16,1 C 19,4 C 21,7 C 92 % 1014,3 hPa 0,0 l/m 8,2 km/h (2 Bft) W-SW 257 2 min 0,000 mm 1,4 UV-I 378 W/m 14,8 C 15,2 C 12,9 km/h (3 Bft) 100,00 %
14.07.2019 09:18 16,1 C 19,4 C 21,1 C 92 % 1014,4 hPa 0,0 l/m 3,3 km/h (1 Bft) NW 321 2 min 0,000 mm 1,3 UV-I 344 W/m 14,8 C 16,1 C 6,4 km/h (2 Bft) 100,00 %
14.07.2019 09:20 16,1 C 19,4 C 21,1 C 92 % 1014,4 hPa 0,0 l/m 3,2 km/h (1 Bft) W-NW 289 0 min 0,000 mm 1,3 UV-I 325 W/m 14,8 C 16,1 C 6,4 km/h (2 Bft) 95,74 %
14.07.2019 09:22 16,1 C 19,4 C 20,6 C 92 % 1014,4 hPa 0,0 l/m 4,5 km/h (1 Bft) W-NW 296 0 min 0,000 mm 1,3 UV-I 314 W/m 14,8 C 16,1 C 9,7 km/h (2 Bft) 97,44 %
14.07.2019 09:24 16,2 C 19,4 C 21,1 C 92 % 1014,4 hPa 0,0 l/m 5,1 km/h (1 Bft) W 277 2 min 0,000 mm 1,4 UV-I 340 W/m 14,9 C 16,2 C 11,3 km/h (2 Bft) 98,11 %
14.07.2019 09:26 16,1 C 19,4 C 20,6 C 92 % 1014,4 hPa 0,0 l/m 8,7 km/h (2 Bft) W 274 0 min 0,000 mm 1,3 UV-I 336 W/m 14,8 C 14,9 C 14,5 km/h (3 Bft) 98,00 %
14.07.2019 09:28 16,1 C 19,4 C 20,0 C 91 % 1014,4 hPa 0,0 l/m 9,6 km/h (2 Bft) SW 232 0 min 0,000 mm 1,1 UV-I 244 W/m 14,6 C 14,5 C 14,5 km/h (3 Bft) 97,87 %
14.07.2019 09:30 16,1 C 19,4 C 19,4 C 91 % 1014,3 hPa 0,0 l/m 7,1 km/h (2 Bft) W-SW 246 0 min 0,000 mm 1,3 UV-I 280 W/m 14,6 C 15,7 C 14,5 km/h (3 Bft) 97,87 %
14.07.2019 09:32 16,0 C 19,4 C 20,6 C 91 % 1014,3 hPa 0,0 l/m 5,8 km/h (2 Bft) W-SW 258 2 min 0,000 mm 1,5 UV-I 384 W/m 14,5 C 16,0 C 11,3 km/h (2 Bft) 97,37 %
14.07.2019 09:34 16,1 C 19,4 C 22,2 C 92 % 1014,3 hPa 0,0 l/m 3,8 km/h (1 Bft) SW 218 2 min 0,000 mm 1,7 UV-I 528 W/m 14,8 C 16,1 C 8,0 km/h (2 Bft) 97,87 %
14.07.2019 09:36 16,2 C 19,4 C 21,7 C 91 % 1014,3 hPa 0,0 l/m 7,4 km/h (2 Bft) W-SW 251 2 min 0,000 mm 1,4 UV-I 432 W/m 14,7 C 15,7 C 16,1 km/h (3 Bft) 95,74 %
14.07.2019 09:38 16,2 C 19,4 C 22,2 C 91 % 1014,3 hPa 0,0 l/m 7,2 km/h (2 Bft) W 269 2 min 0,000 mm 1,5 UV-I 377 W/m 14,7 C 15,8 C 11,3 km/h (2 Bft) 95,74 %
14.07.2019 09:40 16,2 C 19,4 C 21,7 C 90 % 1014,3 hPa 0,0 l/m 2,8 km/h (1 Bft) W 259 0 min 0,000 mm 1,3 UV-I 307 W/m 14,6 C 16,2 C 6,4 km/h (2 Bft) 93,62 %
14.07.2019 09:42 16,2 C 19,4 C 21,1 C 90 % 1014,4 hPa 0,0 l/m 8,3 km/h (2 Bft) W-SW 250 0 min 0,000 mm 1,2 UV-I 258 W/m 14,6 C 15,2 C 12,9 km/h (3 Bft) 98,00 %
14.07.2019 09:44 16,1 C 19,4 C 20,0 C 90 % 1014,4 hPa 0,0 l/m 5,3 km/h (1 Bft) NW 311 0 min 0,000 mm 1,1 UV-I 224 W/m 14,5 C 16,1 C 11,3 km/h (2 Bft) 91,49 %
14.07.2019 09:46 16,1 C 19,4 C 20,0 C 90 % 1014,4 hPa 0,0 l/m 7,9 km/h (2 Bft) W-SW 257 0 min 0,000 mm 1,2 UV-I 231 W/m 14,5 C 15,3 C 14,5 km/h (3 Bft) 93,62 %
14.07.2019 09:48 16,1 C 19,4 C 20,0 C 90 % 1014,4 hPa 0,0 l/m 7,6 km/h (2 Bft) W-SW 258 0 min 0,000 mm 1,3 UV-I 261 W/m 14,5 C 15,5 C 11,3 km/h (2 Bft) 95,74 %
14.07.2019 09:50 16,1 C 19,4 C 20,0 C 90 % 1014,4 hPa 0,0 l/m 11,5 km/h (2 Bft) W 262 0 min 0,000 mm 1,5 UV-I 357 W/m 14,5 C 13,7 C 16,1 km/h (3 Bft) 91,49 %
14.07.2019 09:52 16,1 C 19,4 C 21,1 C 91 % 1014,4 hPa 0,0 l/m 10,4 km/h (2 Bft) W-SW 242 2 min 0,000 mm 1,4 UV-I 377 W/m 14,6 C 14,2 C 14,5 km/h (3 Bft) 91,49 %
14.07.2019 09:54 16,2 C 19,4 C 20,6 C 91 % 1014,5 hPa 0,0 l/m 7,4 km/h (2 Bft) W-SW 242 0 min 0,000 mm 1,0 UV-I 239 W/m 14,7 C 15,7 C 11,3 km/h (2 Bft) 87,23 %
14.07.2019 09:56 16,2 C 19,4 C 20,0 C 91 % 1014,5 hPa 0,0 l/m 6,0 km/h (2 Bft) W-SW 252 0 min 0,000 mm 0,9 UV-I 183 W/m 14,7 C 16,2 C 9,7 km/h (2 Bft) 95,74 %
14.07.2019 09:58 16,1 C 19,4 C 19,4 C 90 % 1014,4 hPa 0,0 l/m 5,1 km/h (1 Bft) W-SW 254 0 min 0,000 mm 1,1 UV-I 205 W/m 14,5 C 16,1 C 8,0 km/h (2 Bft) 95,24 %
14.07.2019 10:00 16,1 C 19,4 C 19,4 C 90 % 1014,5 hPa 0,0 l/m 6,1 km/h (2 Bft) W-SW 242 0 min 0,203 mm 1,2 UV-I 222 W/m 14,5 C 16,1 C 11,3 km/h (2 Bft) 95,74 %
14.07.2019 10:02 16,1 C 19,4 C 20,0 C 90 % 1014,5 hPa 0,0 l/m 3,9 km/h (1 Bft) W 262 0 min 0,000 mm 1,4 UV-I 242 W/m 14,5 C 16,1 C 4,8 km/h (1 Bft) 94,00 %
14.07.2019 10:04 16,2 C 19,4 C 20,0 C 90 % 1014,5 hPa 0,0 l/m 3,6 km/h (1 Bft) NW 306 0 min 0,000 mm 1,5 UV-I 265 W/m 14,6 C 16,2 C 8,0 km/h (2 Bft) 93,62 %
14.07.2019 10:06 16,2 C 19,4 C 20,6 C 90 % 1014,5 hPa 0,0 l/m 5,4 km/h (1 Bft) W 279 0 min 0,000 mm 1,7 UV-I 304 W/m 14,6 C 16,2 C 9,7 km/h (2 Bft) 93,62 %
14.07.2019 10:08 16,3 C 19,4 C 21,1 C 91 % 1014,5 hPa 0,0 l/m 4,3 km/h (1 Bft) W-SW 255 0 min 0,000 mm 1,8 UV-I 346 W/m 14,8 C 16,3 C 8,0 km/h (2 Bft) 95,12 %
14.07.2019 10:10 16,3 C 19,4 C 21,1 C 90 % 1014,5 hPa 0,0 l/m 4,7 km/h (1 Bft) W 276 0 min 0,000 mm 1,9 UV-I 342 W/m 14,7 C 16,3 C 9,7 km/h (2 Bft) 97,87 %
14.07.2019 10:12 16,4 C 19,4 C 21,7 C 90 % 1014,4 hPa 0,0 l/m 5,1 km/h (1 Bft) W-SW 255 0 min 0,000 mm 1,9 UV-I 356 W/m 14,8 C 16,4 C 6,4 km/h (2 Bft) 97,87 %
14.07.2019 10:14 16,5 C 19,4 C 22,2 C 88 % 1014,5 hPa 0,0 l/m 5,6 km/h (1 Bft) SW 229 2 min 0,000 mm 2,0 UV-I 394 W/m 14,5 C 16,5 C 11,3 km/h (2 Bft) 97,87 %
14.07.2019 10:16 16,6 C 19,4 C 23,3 C 88 % 1014,4 hPa 0,0 l/m 9,2 km/h (2 Bft) W-SW 257 2 min 0,000 mm 2,3 UV-I 496 W/m 14,6 C 15,2 C 14,5 km/h (3 Bft) 98,00 %
14.07.2019 10:18 16,8 C 19,4 C 23,3 C 88 % 1014,4 hPa 0,0 l/m 5,3 km/h (1 Bft) W 262 2 min 0,000 mm 2,2 UV-I 465 W/m 14,8 C 16,8 C 9,7 km/h (2 Bft) 95,74 %
14.07.2019 10:20 16,8 C 19,4 C 23,3 C 86 % 1014,4 hPa 0,0 l/m 6,3 km/h (2 Bft) W 267 2 min 0,000 mm 2,1 UV-I 411 W/m 14,4 C 16,8 C 14,5 km/h (3 Bft) 98,00 %
14.07.2019 10:22 16,9 C 19,4 C 22,8 C 87 % 1014,4 hPa 0,0 l/m 5,0 km/h (1 Bft) W 269 0 min 0,000 mm 2,1 UV-I 374 W/m 14,7 C 16,9 C 11,3 km/h (2 Bft) 98,00 %
14.07.2019 10:24 16,9 C 19,4 C 23,3 C 86 % 1014,4 hPa 0,0 l/m 4,4 km/h (1 Bft) W-SW 248 0 min 0,000 mm 2,2 UV-I 375 W/m 14,5 C 16,9 C 6,4 km/h (2 Bft) 95,74 %
14.07.2019 10:26 16,8 C 19,4 C 23,3 C 85 % 1014,4 hPa 0,0 l/m 4,8 km/h (1 Bft) W 275 2 min 0,000 mm 2,3 UV-I 472 W/m 14,3 C 16,8 C 9,7 km/h (2 Bft) 97,37 %
14.07.2019 10:28 16,8 C 19,4 C 22,8 C 84 % 1014,3 hPa 0,0 l/m 2,7 km/h (1 Bft) W-NW 302 0 min 0,000 mm 2,3 UV-I 364 W/m 14,1 C 16,8 C 6,4 km/h (2 Bft) 95,74 %
14.07.2019 10:30 16,9 C 19,4 C 23,3 C 85 % 1014,3 hPa 0,0 l/m 2,8 km/h (1 Bft) N-NW 328 0 min 0,000 mm 2,5 UV-I 392 W/m 14,4 C 16,9 C 4,8 km/h (1 Bft) 97,87 %
14.07.2019 10:32 17,1 C 19,4 C 23,9 C 86 % 1014,3 hPa 0,0 l/m 2,3 km/h (1 Bft) N-NW 329 2 min 0,000 mm 2,6 UV-I 416 W/m 14,7 C 17,1 C 4,8 km/h (1 Bft) 97,87 %
14.07.2019 10:34 17,2 C 19,4 C 24,4 C 82 % 1014,3 hPa 0,0 l/m 2,8 km/h (1 Bft) N-NW 329 2 min 0,000 mm 2,7 UV-I 464 W/m 14,1 C 17,2 C 4,8 km/h (1 Bft) 97,92 %
14.07.2019 10:36 17,4 C 19,4 C 26,1 C 83 % 1014,3 hPa 0,0 l/m 1,8 km/h (1 Bft) N-NW 329 2 min 0,000 mm 2,9 UV-I 468 W/m 14,5 C 17,4 C 3,2 km/h (1 Bft) 97,87 %
14.07.2019 10:38 17,7 C 19,4 C 26,1 C 84 % 1014,3 hPa 0,0 l/m 4,1 km/h (1 Bft) N-NO 32 2 min 0,000 mm 2,8 UV-I 557 W/m 15,0 C 17,7 C 6,4 km/h (2 Bft) 97,87 %
14.07.2019 10:40 17,8 C 19,4 C 26,1 C 83 % 1014,3 hPa 0,0 l/m 4,4 km/h (1 Bft) N-NW 329 2 min 0,000 mm 2,8 UV-I 503 W/m 14,9 C 17,8 C 6,4 km/h (2 Bft) 95,74 %
14.07.2019 10:42 17,8 C 19,4 C 26,1 C 84 % 1014,4 hPa 0,0 l/m 7,2 km/h (2 Bft) N 5 2 min 0,000 mm 3,0 UV-I 526 W/m 15,1 C 17,4 C 12,9 km/h (3 Bft) 98,00 %
14.07.2019 10:44 17,9 C 19,4 C 27,2 C 84 % 1014,4 hPa 0,0 l/m 6,2 km/h (2 Bft) N 9 2 min 0,000 mm 3,4 UV-I 649 W/m 15,2 C 17,9 C 11,3 km/h (2 Bft) 97,87 %
14.07.2019 10:46 18,1 C 19,4 C 27,2 C 84 % 1014,3 hPa 0,0 l/m 5,3 km/h (1 Bft) W-NW 294 2 min 0,000 mm 3,1 UV-I 589 W/m 15,4 C 18,1 C 8,0 km/h (2 Bft) 97,87 %
14.07.2019 10:48 17,9 C 19,4 C 27,2 C 82 % 1014,4 hPa 0,0 l/m 5,5 km/h (1 Bft) W-NW 294 2 min 0,000 mm 2,9 UV-I 526 W/m 14,8 C 17,9 C 8,0 km/h (2 Bft) 97,87 %
14.07.2019 10:50 18,0 C 19,4 C 27,8 C 84 % 1014,4 hPa 0,0 l/m 4,4 km/h (1 Bft) NW 326 2 min 0,000 mm 2,9 UV-I 534 W/m 15,3 C 18,0 C 8,0 km/h (2 Bft) 97,87 %
14.07.2019 10:52 18,0 C 19,4 C 27,2 C 82 % 1014,3 hPa 0,0 l/m 2,4 km/h (1 Bft) N-NW 348 0 min 0,000 mm 2,5 UV-I 421 W/m 14,9 C 18,0 C 4,8 km/h (1 Bft) 95,74 %
14.07.2019 10:54 17,9 C 19,4 C 26,7 C 82 % 1014,3 hPa 0,0 l/m 4,1 km/h (1 Bft) W-NW 296 0 min 0,000 mm 2,5 UV-I 389 W/m 14,8 C 17,9 C 6,4 km/h (2 Bft) 96,00 %
14.07.2019 10:56 17,8 C 19,4 C 26,1 C 80 % 1014,3 hPa 0,0 l/m 6,4 km/h (2 Bft) NW 321 2 min 0,000 mm 3,0 UV-I 445 W/m 14,3 C 17,8 C 11,3 km/h (2 Bft) 95,74 %
14.07.2019 10:58 17,9 C 19,4 C 26,1 C 83 % 1014,3 hPa 0,0 l/m 4,0 km/h (1 Bft) N 5 2 min 0,000 mm 2,9 UV-I 503 W/m 15,0 C 17,9 C 8,0 km/h (2 Bft) 91,49 %
14.07.2019 11:00 18,2 C 19,4 C 27,2 C 82 % 1014,3 hPa 0,0 l/m 4,7 km/h (1 Bft) N 355 2 min 0,254 mm 3,2 UV-I 500 W/m 15,1 C 18,2 C 9,7 km/h (2 Bft) 100,00 %
14.07.2019 11:02 18,3 C 19,4 C 27,8 C 82 % 1014,2 hPa 0,0 l/m 5,9 km/h (2 Bft) N-NW 327 2 min 0,000 mm 3,4 UV-I 584 W/m 15,2 C 18,3 C 9,7 km/h (2 Bft) 94,00 %
14.07.2019 11:04 18,6 C 19,4 C 30,0 C 82 % 1014,2 hPa 0,0 l/m 4,5 km/h (1 Bft) N-NW 341 2 min 0,000 mm 4,0 UV-I 985 W/m 15,5 C 18,6 C 9,7 km/h (2 Bft) 95,74 %
14.07.2019 11:06 18,9 C 19,4 C 31,7 C 83 % 1014,2 hPa 0,0 l/m 1,5 km/h (1 Bft) N-NW 348 2 min 0,000 mm 4,1 UV-I 1009 W/m 15,9 C 18,9 C 3,2 km/h (1 Bft) 97,87 %
14.07.2019 11:08 19,1 C 19,4 C 32,2 C 78 % 1014,2 hPa 0,0 l/m 4,1 km/h (1 Bft) W-SW 248 2 min 0,000 mm 3,9 UV-I 854 W/m 15,2 C 19,1 C 6,4 km/h (2 Bft) 100,00 %
14.07.2019 11:10 19,0 C 20,0 C 32,8 C 79 % 1014,2 hPa 0,0 l/m 4,9 km/h (1 Bft) N-NW 330 2 min 0,000 mm 4,1 UV-I 857 W/m 15,3 C 19,0 C 9,7 km/h (2 Bft) 100,00 %
14.07.2019 11:12 19,0 C 20,0 C 32,2 C 79 % 1014,1 hPa 0,0 l/m 6,4 km/h (2 Bft) NO 36 2 min 0,000 mm 3,9 UV-I 819 W/m 15,3 C 19,0 C 11,3 km/h (2 Bft) 97,87 %
14.07.2019 11:14 19,1 C 20,0 C 32,2 C 78 % 1014,1 hPa 0,0 l/m 5,3 km/h (1 Bft) W 275 2 min 0,000 mm 4,0 UV-I 794 W/m 15,2 C 19,1 C 11,3 km/h (2 Bft) 97,44 %
14.07.2019 11:16 19,3 C 20,0 C 33,3 C 77 % 1014,1 hPa 0,0 l/m 6,0 km/h (2 Bft) N-NW 339 2 min 0,000 mm 4,3 UV-I 878 W/m 15,2 C 19,3 C 8,0 km/h (2 Bft) 97,87 %
14.07.2019 11:18 19,4 C 20,0 C 34,4 C 77 % 1014,1 hPa 0,0 l/m 2,8 km/h (1 Bft) W-NW 298 2 min 0,000 mm 4,2 UV-I 1089 W/m 15,3 C 19,4 C 6,4 km/h (2 Bft) 97,87 %
14.07.2019 11:20 19,4 C 20,0 C 33,9 C 75 % 1014,1 hPa 0,0 l/m 4,9 km/h (1 Bft) N 5 2 min 0,000 mm 3,8 UV-I 1093 W/m 14,8 C 19,4 C 9,7 km/h (2 Bft) 93,62 %
14.07.2019 11:22 19,2 C 20,0 C 31,1 C 76 % 1014,1 hPa 0,0 l/m 2,5 km/h (1 Bft) W-NW 300 2 min 0,000 mm 3,1 UV-I 837 W/m 14,9 C 19,2 C 6,4 km/h (2 Bft) 95,74 %
14.07.2019 11:24 18,9 C 20,0 C 29,4 C 76 % 1014,1 hPa 0,0 l/m 5,1 km/h (1 Bft) W-NW 302 0 min 0,000 mm 2,9 UV-I 383 W/m 14,6 C 18,9 C 11,3 km/h (2 Bft) 93,62 %
14.07.2019 11:26 18,6 C 20,0 C 28,3 C 74 % 1014,1 hPa 0,0 l/m 4,6 km/h (1 Bft) W 275 0 min 0,000 mm 3,3 UV-I 381 W/m 13,9 C 18,6 C 6,4 km/h (2 Bft) 91,49 %
14.07.2019 11:28 18,7 C 20,0 C 30,0 C 76 % 1014,1 hPa 0,0 l/m 4,2 km/h (1 Bft) W 262 2 min 0,000 mm 4,0 UV-I 599 W/m 14,4 C 18,7 C 6,4 km/h (2 Bft) 95,74 %
14.07.2019 11:30 18,8 C 20,0 C 32,8 C 77 % 1014,0 hPa 0,0 l/m 3,1 km/h (1 Bft) W-NW 288 2 min 0,000 mm 4,5 UV-I 1010 W/m 14,7 C 18,8 C 4,8 km/h (1 Bft) 95,74 %
14.07.2019 11:32 19,0 C 20,0 C 33,9 C 77 % 1014,0 hPa 0,0 l/m 4,4 km/h (1 Bft) W-SW 243 2 min 0,000 mm 4,5 UV-I 988 W/m 14,9 C 19,0 C 11,3 km/h (2 Bft) 93,62 %
14.07.2019 11:34 19,2 C 20,0 C 35,6 C 77 % 1013,9 hPa 0,0 l/m 5,9 km/h (2 Bft) W-NW 290 2 min 0,000 mm 4,7 UV-I 1017 W/m 15,1 C 19,2 C 11,3 km/h (2 Bft) 95,74 %
14.07.2019 11:36 19,4 C 20,0 C 36,1 C 76 % 1014,0 hPa 0,0 l/m 6,4 km/h (2 Bft) W 267 2 min 0,000 mm 4,8 UV-I 1025 W/m 15,1 C 19,4 C 12,9 km/h (3 Bft) 93,62 %
14.07.2019 11:38 19,6 C 20,0 C 36,7 C 76 % 1013,9 hPa 0,0 l/m 5,5 km/h (1 Bft) W 277 2 min 0,000 mm 4,9 UV-I 1028 W/m 15,2 C 19,6 C 11,3 km/h (2 Bft) 93,62 %
14.07.2019 11:40 19,4 C 20,0 C 36,7 C 72 % 1013,9 hPa 0,0 l/m 4,9 km/h (1 Bft) W-NW 285 2 min 0,000 mm 5,0 UV-I 1022 W/m 14,2 C 19,4 C 11,3 km/h (2 Bft) 96,00 %
14.07.2019 11:42 19,3 C 20,0 C 37,2 C 74 % 1013,9 hPa 0,0 l/m 3,3 km/h (1 Bft) W-NW 286 2 min 0,000 mm 5,0 UV-I 1016 W/m 14,5 C 19,3 C 6,4 km/h (2 Bft) 97,87 %
14.07.2019 11:44 19,3 C 20,0 C 36,7 C 74 % 1013,8 hPa 0,0 l/m 4,0 km/h (1 Bft) W-SW 248 2 min 0,000 mm 4,8 UV-I 1051 W/m 14,5 C 19,3 C 12,9 km/h (3 Bft) 98,00 %
14.07.2019 11:46 19,3 C 20,0 C 35,6 C 74 % 1013,9 hPa 0,0 l/m 6,2 km/h (2 Bft) W-SW 238 2 min 0,000 mm 4,4 UV-I 1055 W/m 14,5 C 19,3 C 11,3 km/h (2 Bft) 100,00 %
14.07.2019 11:48 19,4 C 20,0 C 35,0 C 72 % 1013,8 hPa 0,0 l/m 5,0 km/h (1 Bft) NW 304 2 min 0,000 mm 4,3 UV-I 918 W/m 14,2 C 19,4 C 8,0 km/h (2 Bft) 95,83 %
14.07.2019 11:50 19,4 C 20,0 C 32,2 C 71 % 1013,8 hPa 0,0 l/m 6,2 km/h (2 Bft) NW 315 2 min 0,000 mm 3,9 UV-I 776 W/m 14,0 C 19,4 C 8,0 km/h (2 Bft) 97,83 %
14.07.2019 11:52 19,2 C 20,0 C 30,0 C 72 % 1013,9 hPa 0,0 l/m 4,1 km/h (1 Bft) SW 226 0 min 0,000 mm 3,6 UV-I 419 W/m 14,0 C 19,2 C 11,3 km/h (2 Bft) 100,00 %
14.07.2019 11:54 19,2 C 20,0 C 30,6 C 72 % 1013,9 hPa 0,0 l/m 9,9 km/h (2 Bft) W-SW 244 2 min 0,000 mm 4,3 UV-I 680 W/m 14,0 C 17,8 C 16,1 km/h (3 Bft) 98,11 %
14.07.2019 11:56 19,4 C 20,0 C 32,2 C 70 % 1013,8 hPa 0,0 l/m 4,8 km/h (1 Bft) W-SW 254 2 min 0,000 mm 4,7 UV-I 961 W/m 13,8 C 19,4 C 8,0 km/h (2 Bft) 100,00 %
14.07.2019 11:58 19,6 C 20,0 C 33,3 C 67 % 1013,8 hPa 0,0 l/m 7,2 km/h (2 Bft) W-SW 240 2 min 0,000 mm 4,7 UV-I 1021 W/m 13,3 C 19,3 C 11,3 km/h (2 Bft) 100,00 %
14.07.2019 12:00 19,7 C 20,0 C 35,0 C 69 % 1013,8 hPa 0,0 l/m 4,9 km/h (1 Bft) W 273 2 min 0,000 mm 4,5 UV-I 1026 W/m 13,8 C 19,7 C 9,7 km/h (2 Bft) 100,00 %
14.07.2019 12:02 20,0 C 20,0 C 36,1 C 70 % 1013,8 hPa 0,0 l/m 5,3 km/h (1 Bft) W-SW 253 2 min 0,508 mm 4,0 UV-I 987 W/m 14,4 C 20,0 C 12,9 km/h (3 Bft) 100,00 %
14.07.2019 12:04 19,9 C 20,0 C 32,8 C 70 % 1013,8 hPa 0,0 l/m 6,6 km/h (2 Bft) W-SW 252 0 min 0,000 mm 2,8 UV-I 427 W/m 14,3 C 19,8 C 9,7 km/h (2 Bft) 98,00 %
14.07.2019 12:06 19,7 C 20,0 C 30,0 C 71 % 1013,9 hPa 0,0 l/m 4,7 km/h (1 Bft) W-NW 302 0 min 0,000 mm 2,6 UV-I 324 W/m 14,3 C 19,7 C 11,3 km/h (2 Bft) 100,00 %
14.07.2019 12:08 19,4 C 20,0 C 28,3 C 70 % 1013,9 hPa 0,0 l/m 5,6 km/h (1 Bft) W-SW 241 0 min 0,000 mm 2,6 UV-I 303 W/m 13,8 C 19,4 C 9,7 km/h (2 Bft) 100,00 %
14.07.2019 12:10 19,3 C 20,0 C 28,3 C 74 % 1013,8 hPa 0,0 l/m 4,6 km/h (1 Bft) W-SW 250 0 min 0,000 mm 3,3 UV-I 350 W/m 14,5 C 19,3 C 8,0 km/h (2 Bft) 100,00 %
14.07.2019 12:12 19,5 C 20,0 C 30,0 C 70 % 1013,8 hPa 0,0 l/m 5,0 km/h (1 Bft) NW 315 2 min 0,000 mm 4,1 UV-I 1010 W/m 13,9 C 19,5 C 6,4 km/h (2 Bft) 98,00 %
14.07.2019 12:14 19,7 C 20,0 C 32,2 C 72 % 1013,8 hPa 0,0 l/m 2,3 km/h (1 Bft) W-SW 239 2 min 0,000 mm 4,7 UV-I 1005 W/m 14,5 C 19,7 C 4,8 km/h (1 Bft) 100,00 %
14.07.2019 12:16 19,9 C 20,0 C 34,4 C 75 % 1013,7 hPa 0,0 l/m 2,4 km/h (1 Bft) NW 313 2 min 0,000 mm 4,7 UV-I 1000 W/m 15,3 C 19,9 C 6,4 km/h (2 Bft) 100,00 %
14.07.2019 12:18 20,2 C 20,0 C 35,0 C 68 % 1013,7 hPa 0,0 l/m 2,8 km/h (1 Bft) SW 216 2 min 0,000 mm 4,7 UV-I 1006 W/m 14,1 C 20,2 C 8,0 km/h (2 Bft) 100,00 %
14.07.2019 12:20 20,1 C 20,0 C 34,4 C 69 % 1013,7 hPa 0,0 l/m 5,2 km/h (1 Bft) SW 214 2 min 0,000 mm 4,2 UV-I 918 W/m 14,2 C 20,1 C 8,0 km/h (2 Bft) 100,00 %
14.07.2019 12:22 20,1 C 20,0 C 32,8 C 68 % 1013,7 hPa 0,0 l/m 4,8 km/h (1 Bft) W-SW 244 2 min 0,000 mm 4,1 UV-I 655 W/m 14,0 C 20,1 C 14,5 km/h (3 Bft) 100,00 %
14.07.2019 12:24 20,3 C 20,0 C 34,4 C 71 % 1013,6 hPa 0,0 l/m 3,6 km/h (1 Bft) W-SW 244 2 min 0,000 mm 5,0 UV-I 911 W/m 14,9 C 20,3 C 9,7 km/h (2 Bft) 100,00 %
14.07.2019 12:26 20,6 C 20,0 C 35,6 C 70 % 1013,6 hPa 0,0 l/m 3,4 km/h (1 Bft) S-SW 202 2 min 0,000 mm 4,9 UV-I 1001 W/m 14,9 C 20,6 C 6,4 km/h (2 Bft) 97,87 %
14.07.2019 12:28 20,4 C 20,0 C 36,7 C 64 % 1013,6 hPa 0,0 l/m 3,6 km/h (1 Bft) S 186 2 min 0,000 mm 4,9 UV-I 997 W/m 13,4 C 20,4 C 8,0 km/h (2 Bft) 97,92 %
14.07.2019 12:30 20,5 C 20,0 C 37,2 C 67 % 1013,6 hPa 0,0 l/m 4,0 km/h (1 Bft) W-SW 254 2 min 0,000 mm 4,8 UV-I 995 W/m 14,2 C 20,5 C 6,4 km/h (2 Bft) 100,00 %
14.07.2019 12:32 20,4 C 20,0 C 35,6 C 64 % 1013,6 hPa 0,0 l/m 5,3 km/h (1 Bft) W 260 2 min 0,000 mm 4,2 UV-I 995 W/m 13,4 C 20,4 C 11,3 km/h (2 Bft) 100,00 %
14.07.2019 12:34 20,3 C 20,0 C 32,2 C 67 % 1013,6 hPa 0,0 l/m 6,4 km/h (2 Bft) S-SW 196 0 min 0,000 mm 3,0 UV-I 362 W/m 14,0 C 20,3 C 9,7 km/h (2 Bft) 100,00 %
14.07.2019 12:36 20,0 C 20,0 C 30,0 C 66 % 1013,6 hPa 0,0 l/m 6,0 km/h (2 Bft) S-SW 203 0 min 0,000 mm 3,1 UV-I 323 W/m 13,4 C 20,0 C 12,9 km/h (3 Bft) 100,00 %
14.07.2019 12:38 19,7 C 20,0 C 28,3 C 69 % 1013,6 hPa 0,0 l/m 7,1 km/h (2 Bft) S-SW 204 0 min 0,000 mm 3,2 UV-I 359 W/m 13,8 C 19,4 C 12,9 km/h (3 Bft) 100,00 %
14.07.2019 12:40 19,7 C 20,0 C 27,8 C 71 % 1013,6 hPa 0,0 l/m 8,3 km/h (2 Bft) W-SW 250 0 min 0,000 mm 3,3 UV-I 383 W/m 14,3 C 18,9 C 14,5 km/h (3 Bft) 97,87 %
14.07.2019 12:42 19,7 C 20,0 C 27,8 C 69 % 1013,6 hPa 0,0 l/m 6,7 km/h (2 Bft) S-SW 199 0 min 0,000 mm 3,6 UV-I 397 W/m 13,8 C 19,6 C 11,3 km/h (2 Bft) 100,00 %
14.07.2019 12:44 19,9 C 20,0 C 28,9 C 70 % 1013,6 hPa 0,0 l/m 8,0 km/h (2 Bft) S 178 2 min 0,000 mm 3,7 UV-I 644 W/m 14,3 C 19,2 C 14,5 km/h (3 Bft) 100,00 %
14.07.2019 12:46 20,1 C 20,0 C 28,9 C 71 % 1013,6 hPa 0,0 l/m 9,9 km/h (2 Bft) S 180 2 min 0,000 mm 3,6 UV-I 502 W/m 14,7 C 18,8 C 14,5 km/h (3 Bft) 96,00 %
14.07.2019 12:48 20,1 C 20,0 C 28,9 C 71 % 1013,6 hPa 0,0 l/m 8,8 km/h (2 Bft) S-SW 198 2 min 0,000 mm 3,4 UV-I 513 W/m 14,7 C 19,2 C 12,9 km/h (3 Bft) 97,87 %
14.07.2019 12:50 20,1 C 20,0 C 30,0 C 70 % 1013,7 hPa 0,0 l/m 5,0 km/h (1 Bft) SW 234 2 min 0,000 mm 3,3 UV-I 537 W/m 14,5 C 20,1 C 9,7 km/h (2 Bft) 97,87 %
14.07.2019 12:52 20,1 C 20,0 C 28,9 C 69 % 1013,7 hPa 0,0 l/m 6,9 km/h (2 Bft) W 276 0 min 0,000 mm 2,8 UV-I 465 W/m 14,2 C 19,9 C 9,7 km/h (2 Bft) 95,74 %
14.07.2019 12:54 20,1 C 20,0 C 27,8 C 67 % 1013,7 hPa 0,0 l/m 6,1 km/h (2 Bft) W 276 0 min 0,000 mm 2,4 UV-I 352 W/m 13,8 C 20,1 C 11,3 km/h (2 Bft) 93,62 %
14.07.2019 12:56 20,0 C 20,0 C 27,2 C 67 % 1013,7 hPa 0,0 l/m 7,4 km/h (2 Bft) W 267 0 min 0,000 mm 2,5 UV-I 367 W/m 13,7 C 19,6 C 14,5 km/h (3 Bft) 97,87 %
14.07.2019 12:58 19,9 C 20,0 C 26,1 C 67 % 1013,7 hPa 0,0 l/m 9,6 km/h (2 Bft) W 273 0 min 0,000 mm 2,6 UV-I 375 W/m 13,6 C 18,7 C 16,1 km/h (3 Bft) 97,87 %
14.07.2019 13:00 19,9 C 20,0 C 26,1 C 68 % 1013,6 hPa 0,0 l/m 5,8 km/h (2 Bft) W-SW 252 0 min 0,381 mm 2,7 UV-I 384 W/m 13,8 C 19,9 C 9,7 km/h (2 Bft) 95,74 %
14.07.2019 13:02 19,8 C 20,0 C 25,6 C 66 % 1013,5 hPa 0,0 l/m 4,6 km/h (1 Bft) W 273 0 min 0,000 mm 2,7 UV-I 384 W/m 13,3 C 19,8 C 6,4 km/h (2 Bft) 97,87 %
14.07.2019 13:04 19,7 C 20,0 C 25,6 C 65 % 1013,5 hPa 0,0 l/m 2,0 km/h (1 Bft) W 273 0 min 0,000 mm 2,5 UV-I 366 W/m 12,9 C 19,7 C 4,8 km/h (1 Bft) 97,92 %
14.07.2019 13:06 19,7 C 20,0 C 25,6 C 65 % 1013,5 hPa 0,0 l/m 4,0 km/h (1 Bft) W 275 0 min 0,000 mm 2,2 UV-I 344 W/m 12,9 C 19,7 C 9,7 km/h (2 Bft) 97,37 %
14.07.2019 13:08 19,7 C 20,0 C 25,0 C 66 % 1013,5 hPa 0,0 l/m 6,1 km/h (2 Bft) W-NW 285 0 min 0,000 mm 2,1 UV-I 317 W/m 13,2 C 19,7 C 12,9 km/h (3 Bft) 96,00 %
14.07.2019 13:10 19,7 C 20,0 C 23,9 C 70 % 1013,6 hPa 0,0 l/m 16,6 km/h (3 Bft) W-SW 251 0 min 0,000 mm 2,1 UV-I 305 W/m 14,1 C 16,5 C 32,2 km/h (5 Bft) 97,87 %
14.07.2019 13:12 19,4 C 20,0 C 23,3 C 73 % 1013,6 hPa 0,0 l/m 17,3 km/h (3 Bft) W-SW 255 0 min 0,000 mm 2,2 UV-I 315 W/m 14,4 C 16,0 C 27,4 km/h (4 Bft) 100,00 %
14.07.2019 13:14 19,3 C 20,0 C 23,3 C 74 % 1013,6 hPa 0,0 l/m 17,8 km/h (3 Bft) SW 214 0 min 0,000 mm 2,3 UV-I 344 W/m 14,5 C 15,8 C 22,5 km/h (4 Bft) 97,87 %
14.07.2019 13:16 19,2 C 20,0 C 23,9 C 75 % 1013,6 hPa 0,0 l/m 12,6 km/h (3 Bft) W-SW 249 0 min 0,000 mm 2,5 UV-I 376 W/m 14,7 C 16,9 C 17,7 km/h (3 Bft) 97,87 %
14.07.2019 13:18 19,1 C 20,0 C 23,9 C 74 % 1013,6 hPa 0,0 l/m 15,6 km/h (3 Bft) W-SW 257 0 min 0,000 mm 2,7 UV-I 390 W/m 14,4 C 16,0 C 25,7 km/h (4 Bft) 95,74 %
14.07.2019 13:20 19,1 C 20,0 C 23,9 C 74 % 1013,6 hPa 0,0 l/m 18,1 km/h (3 Bft) W-SW 238 0 min 0,000 mm 2,7 UV-I 406 W/m 14,4 C 15,4 C 25,7 km/h (4 Bft) 97,37 %
14.07.2019 13:22 19,0 C 20,0 C 23,9 C 75 % 1013,6 hPa 0,0 l/m 20,7 km/h (4 Bft) SW 231 0 min 0,000 mm 2,9 UV-I 418 W/m 14,5 C 14,8 C 27,4 km/h (4 Bft) 95,74 %
14.07.2019 13:24 18,9 C 20,0 C 24,4 C 76 % 1013,6 hPa 0,0 l/m 17,2 km/h (3 Bft) S-SW 201 0 min 0,000 mm 3,0 UV-I 469 W/m 14,6 C 15,4 C 24,1 km/h (4 Bft) 95,74 %
14.07.2019 13:26 19,1 C 20,0 C 26,1 C 76 % 1013,5 hPa 0,0 l/m 17,3 km/h (3 Bft) W-SW 244 2 min 0,000 mm 3,3 UV-I 497 W/m 14,8 C 15,6 C 29,0 km/h (5 Bft) 93,62 %
14.07.2019 13:28 19,2 C 20,0 C 27,2 C 76 % 1013,5 hPa 0,0 l/m 20,1 km/h (4 Bft) W-SW 237 2 min 0,000 mm 3,8 UV-I 503 W/m 14,9 C 15,2 C 29,0 km/h (5 Bft) 95,74 %
14.07.2019 13:30 19,2 C 20,6 C 26,7 C 76 % 1013,5 hPa 0,0 l/m 14,9 km/h (3 Bft) SW 232 2 min 0,000 mm 3,3 UV-I 517 W/m 14,9 C 16,3 C 22,5 km/h (4 Bft) 95,74 %
14.07.2019 13:32 19,2 C 20,6 C 27,8 C 77 % 1013,5 hPa 0,0 l/m 12,1 km/h (2 Bft) SW 222 2 min 0,000 mm 3,3 UV-I 496 W/m 15,1 C 17,1 C 19,3 km/h (3 Bft) 98,00 %
14.07.2019 13:34 19,3 C 20,6 C 28,3 C 76 % 1013,4 hPa 0,0 l/m 15,0 km/h (3 Bft) W-NW 289 2 min 0,000 mm 3,7 UV-I 585 W/m 15,0 C 16,4 C 22,5 km/h (4 Bft) 96,00 %
14.07.2019 13:36 19,3 C 20,6 C 28,3 C 77 % 1013,4 hPa 0,0 l/m 16,7 km/h (3 Bft) S 187 2 min 0,000 mm 3,6 UV-I 621 W/m 15,2 C 16,0 C 25,7 km/h (4 Bft) 97,87 %
14.07.2019 13:38 19,3 C 20,6 C 28,3 C 77 % 1013,4 hPa 0,0 l/m 14,7 km/h (3 Bft) W-SW 248 2 min 0,000 mm 3,7 UV-I 654 W/m 15,2 C 16,5 C 22,5 km/h (4 Bft) 93,62 %
14.07.2019 13:40 19,3 C 20,6 C 28,3 C 78 % 1013,4 hPa 0,0 l/m 13,5 km/h (3 Bft) SW 232 2 min 0,000 mm 3,1 UV-I 616 W/m 15,4 C 16,8 C 20,9 km/h (4 Bft) 95,74 %
14.07.2019 13:42 19,4 C 20,6 C 29,4 C 77 % 1013,4 hPa 0,0 l/m 9,1 km/h (2 Bft) SW 217 2 min 0,000 mm 3,6 UV-I 488 W/m 15,3 C 18,3 C 20,9 km/h (4 Bft) 95,83 %
14.07.2019 13:44 19,7 C 20,6 C 30,6 C 77 % 1013,4 hPa 0,0 l/m 5,0 km/h (1 Bft) S 189 2 min 0,000 mm 3,5 UV-I 493 W/m 15,5 C 19,7 C 11,3 km/h (2 Bft) 97,87 %
14.07.2019 13:46 19,8 C 20,6 C 29,4 C 77 % 1013,4 hPa 0,0 l/m 5,3 km/h (1 Bft) W 259 0 min 0,000 mm 2,0 UV-I 354 W/m 15,6 C 19,8 C 16,1 km/h (3 Bft) 97,87 %
14.07.2019 13:48 19,6 C 20,6 C 27,2 C 74 % 1013,5 hPa 0,0 l/m 5,8 km/h (2 Bft) S-SW 194 0 min 0,000 mm 1,3 UV-I 239 W/m 14,8 C 19,6 C 9,7 km/h (2 Bft) 100,00 %
14.07.2019 13:50 19,2 C 20,6 C 25,0 C 74 % 1013,5 hPa 0,0 l/m 9,1 km/h (2 Bft) S-SO 165 0 min 0,000 mm 0,8 UV-I 140 W/m 14,4 C 18,1 C 12,9 km/h (3 Bft) 97,87 %
14.07.2019 13:52 18,7 C 20,6 C 23,3 C 73 % 1013,5 hPa 0,0 l/m 10,1 km/h (2 Bft) O 97 0 min 0,000 mm 0,5 UV-I 92 W/m 13,8 C 17,2 C 14,5 km/h (3 Bft) 100,00 %
14.07.2019 13:54 18,3 C 20,6 C 21,7 C 74 % 1013,5 hPa 0,0 l/m 7,3 km/h (2 Bft) O-SO 114 0 min 0,000 mm 0,0 UV-I 68 W/m 13,6 C 17,9 C 14,5 km/h (3 Bft) 97,87 %
14.07.2019 13:56 17,9 C 20,6 C 20,6 C 75 % 1013,6 hPa 0,0 l/m 4,7 km/h (1 Bft) O-SO 106 0 min 0,000 mm 0,0 UV-I 46 W/m 13,4 C 17,9 C 9,7 km/h (2 Bft) 97,87 %
14.07.2019 13:58 17,7 C 20,6 C 20,0 C 77 % 1013,7 hPa 0,0 l/m 5,4 km/h (1 Bft) O 83 0 min 0,000 mm 0,0 UV-I 32 W/m 13,6 C 17,7 C 11,3 km/h (2 Bft) 97,87 %
14.07.2019 14:00 17,6 C 20,6 C 18,9 C 78 % 1013,7 hPa 0,0 l/m 2,6 km/h (1 Bft) N-NO 24 0 min 0,254 mm 0,0 UV-I 26 W/m 13,7 C 17,6 C 4,8 km/h (1 Bft) 100,00 %
14.07.2019 14:02 17,4 C 20,6 C 17,8 C 80 % 1013,9 hPa 0,2 l/m 4,7 km/h (1 Bft) NW 312 0 min 0,000 mm 0,0 UV-I 25 W/m 13,9 C 17,4 C 6,4 km/h (2 Bft) 97,87 %
14.07.2019 14:04 17,2 C 20,6 C 16,7 C 81 % 1014,0 hPa 1,4 l/m 2,4 km/h (1 Bft) S 181 0 min 0,000 mm 0,0 UV-I 26 W/m 13,9 C 17,2 C 8,0 km/h (2 Bft) 100,00 %
14.07.2019 14:06 16,5 C 20,6 C 16,1 C 82 % 1014,0 hPa 0,8 l/m 8,9 km/h (2 Bft) O-SO 122 0 min 0,000 mm 0,0 UV-I 24 W/m 13,4 C 15,3 C 14,5 km/h (3 Bft) 100,00 %
14.07.2019 14:08 16,1 C 20,6 C 15,6 C 85 % 1014,1 hPa 1,2 l/m 8,1 km/h (2 Bft) S-SO 149 0 min 0,000 mm 0,0 UV-I 21 W/m 13,6 C 15,2 C 12,9 km/h (3 Bft) 100,00 %
14.07.2019 14:10 15,7 C 20,6 C 15,6 C 87 % 1014,2 hPa 1,2 l/m 9,8 km/h (2 Bft) SO 132 0 min 0,000 mm 0,0 UV-I 22 W/m 13,5 C 14,0 C 14,5 km/h (3 Bft) 100,00 %
14.07.2019 14:12 15,6 C 20,6 C 15,6 C 89 % 1014,1 hPa 1,0 l/m 6,1 km/h (2 Bft) S-SO 161 0 min 0,000 mm 0,0 UV-I 25 W/m 13,8 C 15,6 C 9,7 km/h (2 Bft) 100,00 %
14.07.2019 14:14 15,4 C 20,6 C 15,6 C 90 % 1014,1 hPa 1,2 l/m 12,9 km/h (3 Bft) S-SO 150 0 min 0,000 mm 0,0 UV-I 32 W/m 13,8 C 12,4 C 19,3 km/h (3 Bft) 100,00 %
14.07.2019 14:16 15,3 C 20,0 C 15,6 C 91 % 1014,1 hPa 0,8 l/m 16,1 km/h (3 Bft) SO 130 0 min 0,000 mm 0,0 UV-I 37 W/m 13,8 C 11,2 C 20,9 km/h (4 Bft) 100,00 %
14.07.2019 14:18 15,2 C 20,0 C 15,6 C 91 % 1014,0 hPa 0,6 l/m 17,5 km/h (3 Bft) SO 145 0 min 0,000 mm 0,0 UV-I 40 W/m 13,7 C 10,7 C 29,0 km/h (5 Bft) 94,44 %
14.07.2019 14:20 15,1 C 20,0 C 15,6 C 91 % 1014,0 hPa 0,2 l/m 17,2 km/h (3 Bft) S-SO 149 0 min 0,000 mm 0,0 UV-I 40 W/m 13,6 C 10,6 C 24,1 km/h (4 Bft) 96,00 %
14.07.2019 14:22 14,9 C 20,0 C 15,6 C 92 % 1014,1 hPa 0,4 l/m 17,0 km/h (3 Bft) S-SO 160 0 min 0,000 mm 0,0 UV-I 39 W/m 13,6 C 10,4 C 24,1 km/h (4 Bft) 97,87 %
14.07.2019 14:24 14,7 C 20,0 C 15,0 C 91 % 1014,2 hPa 0,0 l/m 16,2 km/h (3 Bft) SO 134 0 min 0,000 mm 0,0 UV-I 40 W/m 13,2 C 10,4 C 20,9 km/h (4 Bft) 96,00 %
14.07.2019 14:26 14,5 C 20,0 C 15,0 C 91 % 1014,2 hPa 0,2 l/m 12,2 km/h (2 Bft) SO 146 0 min 0,000 mm 0,0 UV-I 43 W/m 13,0 C 11,6 C 20,9 km/h (4 Bft) 98,00 %
14.07.2019 14:28 14,5 C 20,0 C 15,0 C 92 % 1014,2 hPa 0,0 l/m 8,1 km/h (2 Bft) S-SO 167 0 min 0,000 mm 0,0 UV-I 46 W/m 13,2 C 13,5 C 11,3 km/h (2 Bft) 95,74 %
14.07.2019 14:30 14,6 C 20,0 C 15,6 C 92 % 1014,1 hPa 0,0 l/m 9,9 km/h (2 Bft) S 181 0 min 0,000 mm 0,0 UV-I 49 W/m 13,3 C 12,7 C 12,9 km/h (3 Bft) 95,74 %
14.07.2019 14:32 14,6 C 20,0 C 15,6 C 92 % 1014,1 hPa 0,0 l/m 10,1 km/h (2 Bft) SO 144 0 min 0,000 mm 0,0 UV-I 49 W/m 13,3 C 12,6 C 16,1 km/h (3 Bft) 93,62 %
14.07.2019 14:34 14,7 C 20,0 C 15,6 C 92 % 1014,1 hPa 0,2 l/m 8,9 km/h (2 Bft) S 176 0 min 0,000 mm 0,0 UV-I 52 W/m 13,4 C 13,3 C 16,1 km/h (3 Bft) 94,00 %
14.07.2019 14:36 14,7 C 20,0 C 15,6 C 92 % 1014,1 hPa 0,0 l/m 9,4 km/h (2 Bft) S 173 0 min 0,000 mm 0,0 UV-I 53 W/m 13,4 C 13,1 C 16,1 km/h (3 Bft) 93,62 %
14.07.2019 14:38 14,7 C 20,0 C 15,6 C 92 % 1014,1 hPa 0,2 l/m 8,6 km/h (2 Bft) S 174 0 min 0,000 mm 0,0 UV-I 59 W/m 13,4 C 13,5 C 11,3 km/h (2 Bft) 97,37 %
14.07.2019 14:40 14,7 C 20,0 C 15,6 C 92 % 1014,0 hPa 0,0 l/m 8,5 km/h (2 Bft) S-SO 159 0 min 0,000 mm 0,3 UV-I 66 W/m 13,4 C 13,5 C 14,5 km/h (3 Bft) 95,74 %
14.07.2019 14:42 14,8 C 20,0 C 15,6 C 93 % 1014,0 hPa 0,2 l/m 10,3 km/h (2 Bft) S 180 0 min 0,000 mm 0,5 UV-I 74 W/m 13,7 C 12,8 C 14,5 km/h (3 Bft) 93,62 %
14.07.2019 14:44 14,8 C 20,0 C 16,1 C 93 % 1013,9 hPa 0,2 l/m 8,8 km/h (2 Bft) S 173 0 min 0,000 mm 0,6 UV-I 87 W/m 13,7 C 13,5 C 12,9 km/h (3 Bft) 93,62 %
14.07.2019 14:46 14,9 C 20,0 C 16,1 C 93 % 1013,9 hPa 0,0 l/m 10,1 km/h (2 Bft) S-SO 165 0 min 0,000 mm 0,7 UV-I 99 W/m 13,8 C 13,0 C 14,5 km/h (3 Bft) 97,87 %
14.07.2019 14:48 14,9 C 20,0 C 16,1 C 93 % 1013,7 hPa 0,2 l/m 11,1 km/h (2 Bft) S-SW 209 0 min 0,000 mm 0,8 UV-I 114 W/m 13,8 C 12,5 C 17,7 km/h (3 Bft) 97,87 %
14.07.2019 14:50 15,0 C 20,0 C 16,7 C 94 % 1013,7 hPa 0,0 l/m 10,8 km/h (2 Bft) S-SW 201 0 min 0,000 mm 1,0 UV-I 127 W/m 14,0 C 12,8 C 16,1 km/h (3 Bft) 97,87 %
14.07.2019 14:52 15,1 C 20,0 C 16,7 C 94 % 1013,6 hPa 0,0 l/m 9,6 km/h (2 Bft) S-SW 197 0 min 0,000 mm 1,0 UV-I 138 W/m 14,1 C 13,4 C 14,5 km/h (3 Bft) 95,74 %
14.07.2019 14:54 15,1 C 20,0 C 16,7 C 94 % 1013,6 hPa 0,0 l/m 11,6 km/h (2 Bft) S 185 0 min 0,000 mm 1,1 UV-I 147 W/m 14,1 C 12,5 C 20,9 km/h (4 Bft) 95,83 %
14.07.2019 14:56 15,2 C 20,0 C 17,2 C 94 % 1013,7 hPa 0,2 l/m 12,2 km/h (2 Bft) S 191 0 min 0,000 mm 1,2 UV-I 159 W/m 14,2 C 12,4 C 17,7 km/h (3 Bft) 97,87 %
14.07.2019 14:58 15,2 C 20,0 C 17,2 C 94 % 1013,7 hPa 0,0 l/m 12,0 km/h (2 Bft) S 180 0 min 0,000 mm 1,3 UV-I 173 W/m 14,2 C 12,5 C 24,1 km/h (4 Bft) 95,74 %
14.07.2019 15:00 15,3 C 20,0 C 17,2 C 94 % 1013,7 hPa 0,0 l/m 11,0 km/h (2 Bft) S-SW 195 0 min 0,051 mm 1,3 UV-I 188 W/m 14,3 C 13,0 C 19,3 km/h (3 Bft) 95,74 %
14.07.2019 15:02 15,3 C 20,0 C 17,8 C 94 % 1013,6 hPa 0,0 l/m 9,3 km/h (2 Bft) S-SW 200 0 min 0,000 mm 1,4 UV-I 202 W/m 14,3 C 13,8 C 17,7 km/h (3 Bft) 95,74 %
14.07.2019 15:04 15,5 C 20,0 C 18,3 C 94 % 1013,7 hPa 0,0 l/m 7,5 km/h (2 Bft) S 182 0 min 0,000 mm 1,4 UV-I 219 W/m 14,5 C 14,9 C 14,5 km/h (3 Bft) 97,87 %
14.07.2019 15:06 15,6 C 20,0 C 18,3 C 94 % 1013,7 hPa 0,0 l/m 8,5 km/h (2 Bft) S-SW 192 0 min 0,000 mm 1,5 UV-I 249 W/m 14,6 C 14,5 C 14,5 km/h (3 Bft) 96,00 %
14.07.2019 15:08 15,7 C 20,0 C 18,9 C 94 % 1013,6 hPa 0,0 l/m 6,3 km/h (2 Bft) S 188 0 min 0,000 mm 1,8 UV-I 284 W/m 14,7 C 15,7 C 9,7 km/h (2 Bft) 97,87 %
14.07.2019 15:10 15,7 C 20,0 C 19,4 C 94 % 1013,6 hPa 0,0 l/m 8,0 km/h (2 Bft) S 172 0 min 0,000 mm 2,0 UV-I 321 W/m 14,7 C 14,8 C 14,5 km/h (3 Bft) 97,87 %
14.07.2019 15:12 15,9 C 20,0 C 20,6 C 94 % 1013,5 hPa 0,0 l/m 7,2 km/h (2 Bft) S 169 0 min 0,000 mm 2,3 UV-I 409 W/m 14,9 C 15,5 C 11,3 km/h (2 Bft) 91,43 %
14.07.2019 15:14 16,0 C 20,0 C 21,1 C 94 % 1013,5 hPa 0,0 l/m 7,2 km/h (2 Bft) S-SO 149 0 min 0,000 mm 2,6 UV-I 416 W/m 15,0 C 15,6 C 9,7 km/h (2 Bft) 94,00 %
14.07.2019 15:16 16,2 C 20,0 C 21,1 C 94 % 1013,6 hPa 0,0 l/m 5,9 km/h (2 Bft) S 173 0 min 0,000 mm 2,2 UV-I 355 W/m 15,2 C 16,2 C 9,7 km/h (2 Bft) 95,74 %
14.07.2019 15:18 16,2 C 20,6 C 21,1 C 93 % 1013,5 hPa 0,0 l/m 6,7 km/h (2 Bft) S 180 0 min 0,000 mm 2,2 UV-I 344 W/m 15,1 C 16,1 C 11,3 km/h (2 Bft) 95,74 %
14.07.2019 15:20 16,3 C 20,6 C 20,6 C 93 % 1013,6 hPa 0,0 l/m 7,9 km/h (2 Bft) S 171 0 min 0,000 mm 2,0 UV-I 330 W/m 15,2 C 15,5 C 11,3 km/h (2 Bft) 94,00 %
14.07.2019 15:22 16,3 C 20,0 C 20,6 C 93 % 1013,6 hPa 0,0 l/m 6,5 km/h (2 Bft) S 178 0 min 0,000 mm 1,8 UV-I 298 W/m 15,2 C 16,3 C 11,3 km/h (2 Bft) 93,62 %
14.07.2019 15:24 16,3 C 20,0 C 20,0 C 92 % 1013,6 hPa 0,0 l/m 7,2 km/h (2 Bft) S 188 0 min 0,000 mm 1,6 UV-I 254 W/m 15,0 C 15,9 C 11,3 km/h (2 Bft) 94,00 %
14.07.2019 15:26 16,3 C 20,0 C 20,0 C 93 % 1013,6 hPa 0,0 l/m 6,1 km/h (2 Bft) S-SO 167 0 min 0,000 mm 1,3 UV-I 223 W/m 15,2 C 16,3 C 11,3 km/h (2 Bft) 97,14 %
14.07.2019 15:28 16,4 C 20,0 C 19,4 C 92 % 1013,6 hPa 0,0 l/m 7,6 km/h (2 Bft) S-SW 205 0 min 0,000 mm 1,3 UV-I 214 W/m 15,1 C 15,8 C 9,7 km/h (2 Bft) 95,16 %
14.07.2019 15:30 16,4 C 20,0 C 19,4 C 93 % 1013,7 hPa 0,0 l/m 6,6 km/h (2 Bft) S-SW 192 0 min 0,000 mm 1,3 UV-I 217 W/m 15,3 C 16,3 C 11,3 km/h (2 Bft) 95,74 %
14.07.2019 15:32 16,3 C 20,0 C 19,4 C 92 % 1013,7 hPa 0,0 l/m 6,8 km/h (2 Bft) S 184 0 min 0,000 mm 1,3 UV-I 223 W/m 15,0 C 16,1 C 11,3 km/h (2 Bft) 97,44 %
14.07.2019 15:34 16,3 C 20,0 C 19,4 C 92 % 1013,7 hPa 0,0 l/m 4,9 km/h (1 Bft) S 185 0 min 0,000 mm 1,3 UV-I 227 W/m 15,0 C 16,3 C 9,7 km/h (2 Bft) 96,00 %
14.07.2019 15:36 16,4 C 20,6 C 19,4 C 93 % 1013,8 hPa 0,0 l/m 3,0 km/h (1 Bft) S-SW 199 0 min 0,000 mm 1,3 UV-I 216 W/m 15,3 C 16,4 C 4,8 km/h (1 Bft) 97,87 %
14.07.2019 15:38 16,6 C 20,0 C 19,4 C 93 % 1013,8 hPa 0,0 l/m 4,1 km/h (1 Bft) SW 219 0 min 0,000 mm 1,2 UV-I 198 W/m 15,5 C 16,6 C 4,8 km/h (1 Bft) 95,74 %
14.07.2019 15:40 16,6 C 20,6 C 18,9 C 92 % 1013,9 hPa 0,0 l/m 3,9 km/h (1 Bft) S 178 0 min 0,000 mm 1,1 UV-I 182 W/m 15,3 C 16,6 C 8,0 km/h (2 Bft) 100,00 %
14.07.2019 15:42 16,7 C 20,6 C 18,9 C 92 % 1013,9 hPa 0,0 l/m 1,6 km/h (1 Bft) S 178 0 min 0,000 mm 1,0 UV-I 169 W/m 15,4 C 16,7 C 3,2 km/h (1 Bft) 92,00 %
14.07.2019 15:44 16,7 C 20,6 C 18,9 C 91 % 1013,9 hPa 0,0 l/m 2,5 km/h (1 Bft) SW 219 0 min 0,000 mm 1,0 UV-I 160 W/m 15,2 C 16,7 C 4,8 km/h (1 Bft) 97,14 %
14.07.2019 15:46 16,7 C 20,6 C 18,3 C 91 % 1014,0 hPa 0,0 l/m 4,9 km/h (1 Bft) SW 234 0 min 0,000 mm 1,0 UV-I 152 W/m 15,2 C 16,7 C 6,4 km/h (2 Bft) 96,00 %
14.07.2019 15:48 16,7 C 20,6 C 18,3 C 91 % 1013,9 hPa 0,0 l/m 3,4 km/h (1 Bft) SW 224 0 min 0,000 mm 1,0 UV-I 147 W/m 15,2 C 16,7 C 6,4 km/h (2 Bft) 97,87 %
14.07.2019 15:50 16,7 C 20,6 C 18,9 C 91 % 1014,0 hPa 0,0 l/m 1,1 km/h (1 Bft) SW 224 0 min 0,000 mm 1,0 UV-I 147 W/m 15,2 C 16,7 C 3,2 km/h (1 Bft) 93,62 %
14.07.2019 15:52 16,7 C 20,0 C 18,9 C 91 % 1014,0 hPa 0,0 l/m 0,9 km/h (0 Bft) SW 224 0 min 0,000 mm 1,0 UV-I 150 W/m 15,2 C 16,7 C 3,2 km/h (1 Bft) 95,74 %
14.07.2019 15:54 16,7 C 20,6 C 18,9 C 91 % 1014,0 hPa 0,0 l/m 3,2 km/h (1 Bft) SW 225 0 min 0,000 mm 1,0 UV-I 159 W/m 15,2 C 16,7 C 4,8 km/h (1 Bft) 94,00 %
14.07.2019 15:56 16,7 C 20,6 C 18,9 C 91 % 1014,0 hPa 0,0 l/m 4,8 km/h (1 Bft) W 270 0 min 0,000 mm 1,1 UV-I 172 W/m 15,2 C 16,7 C 6,4 km/h (2 Bft) 98,00 %
14.07.2019 15:58 16,8 C 20,6 C 18,9 C 91 % 1014,0 hPa 0,0 l/m 5,9 km/h (2 Bft) W 261 0 min 0,000 mm 1,1 UV-I 184 W/m 15,3 C 16,8 C 9,7 km/h (2 Bft) 97,87 %
14.07.2019 16:00 16,7 C 20,6 C 18,3 C 91 % 1014,0 hPa 0,0 l/m 6,9 km/h (2 Bft) W-NW 288 0 min 0,127 mm 1,1 UV-I 184 W/m 15,2 C 16,4 C 12,9 km/h (3 Bft) 93,62 %
14.07.2019 16:02 16,4 C 20,6 C 17,8 C 89 % 1014,0 hPa 0,0 l/m 6,2 km/h (2 Bft) W 275 0 min 0,000 mm 1,1 UV-I 186 W/m 14,6 C 16,4 C 11,3 km/h (2 Bft) 97,87 %
14.07.2019 16:04 16,3 C 20,6 C 17,8 C 90 % 1014,1 hPa 0,0 l/m 7,5 km/h (2 Bft) W-SW 258 0 min 0,000 mm 1,0 UV-I 184 W/m 14,7 C 15,7 C 12,9 km/h (3 Bft) 93,62 %
14.07.2019 16:06 16,3 C 20,6 C 17,8 C 89 % 1014,0 hPa 0,0 l/m 4,6 km/h (1 Bft) W 260 0 min 0,000 mm 1,0 UV-I 180 W/m 14,5 C 16,3 C 9,7 km/h (2 Bft) 97,87 %
14.07.2019 16:08 16,2 C 20,6 C 17,8 C 90 % 1014,0 hPa 0,0 l/m 3,9 km/h (1 Bft) W 263 0 min 0,000 mm 0,9 UV-I 177 W/m 14,6 C 16,2 C 6,4 km/h (2 Bft) 97,87 %
14.07.2019 16:10 16,2 C 20,6 C 17,8 C 89 % 1014,0 hPa 0,0 l/m 3,2 km/h (1 Bft) W 259 0 min 0,000 mm 0,9 UV-I 172 W/m 14,4 C 16,2 C 4,8 km/h (1 Bft) 97,87 %
14.07.2019 16:12 16,2 C 20,6 C 17,2 C 88 % 1014,0 hPa 0,0 l/m 4,8 km/h (1 Bft) W 267 0 min 0,000 mm 0,8 UV-I 167 W/m 14,2 C 16,2 C 11,3 km/h (2 Bft) 100,00 %
14.07.2019 16:14 16,1 C 20,6 C 17,8 C 86 % 1014,1 hPa 0,0 l/m 6,3 km/h (2 Bft) W-SW 249 0 min 0,000 mm 0,8 UV-I 159 W/m 13,8 C 16,1 C 9,7 km/h (2 Bft) 100,00 %
14.07.2019 16:16 16,2 C 20,6 C 17,2 C 87 % 1014,1 hPa 0,0 l/m 5,4 km/h (1 Bft) W-SW 239 0 min 0,000 mm 0,8 UV-I 153 W/m 14,0 C 16,2 C 8,0 km/h (2 Bft) 100,00 %
14.07.2019 16:18 16,1 C 20,6 C 17,2 C 87 % 1014,0 hPa 0,0 l/m 5,8 km/h (2 Bft) SW 221 0 min 0,000 mm 0,7 UV-I 153 W/m 13,9 C 16,1 C 9,7 km/h (2 Bft) 100,00 %
14.07.2019 16:20 15,9 C 20,6 C 17,2 C 88 % 1014,0 hPa 0,0 l/m 6,1 km/h (2 Bft) W-SW 252 0 min 0,000 mm 0,8 UV-I 159 W/m 13,9 C 15,9 C 11,3 km/h (2 Bft) 100,00 %
14.07.2019 16:22 15,8 C 20,6 C 17,2 C 87 % 1014,0 hPa 0,0 l/m 8,9 km/h (2 Bft) W-SW 240 0 min 0,000 mm 0,8 UV-I 169 W/m 13,6 C 14,5 C 12,9 km/h (3 Bft) 100,00 %
14.07.2019 16:24 15,7 C 20,6 C 16,7 C 88 % 1013,9 hPa 0,0 l/m 8,5 km/h (2 Bft) SW 228 0 min 0,000 mm 0,9 UV-I 182 W/m 13,7 C 14,6 C 11,3 km/h (2 Bft) 100,00 %
14.07.2019 16:26 15,7 C 20,6 C 17,2 C 88 % 1013,9 hPa 0,0 l/m 6,6 km/h (2 Bft) SW 228 0 min 0,000 mm 0,9 UV-I 190 W/m 13,7 C 15,6 C 11,3 km/h (2 Bft) 95,74 %
14.07.2019 16:28 15,6 C 20,6 C 17,2 C 89 % 1013,9 hPa 0,0 l/m 6,7 km/h (2 Bft) SW 234 0 min 0,000 mm 1,0 UV-I 198 W/m 13,8 C 15,4 C 9,7 km/h (2 Bft) 100,00 %
14.07.2019 16:30 15,7 C 20,6 C 17,8 C 90 % 1013,9 hPa 0,0 l/m 5,3 km/h (1 Bft) W-SW 240 0 min 0,000 mm 1,0 UV-I 205 W/m 14,1 C 15,7 C 9,7 km/h (2 Bft) 97,87 %
14.07.2019 16:32 15,6 C 20,6 C 17,8 C 90 % 1014,0 hPa 0,0 l/m 3,2 km/h (1 Bft) W-SW 237 0 min 0,000 mm 1,0 UV-I 209 W/m 14,0 C 15,6 C 8,0 km/h (2 Bft) 97,87 %
14.07.2019 16:34 15,6 C 20,6 C 17,8 C 90 % 1014,0 hPa 0,0 l/m 5,8 km/h (2 Bft) SW 221 0 min 0,000 mm 1,0 UV-I 213 W/m 14,0 C 15,6 C 8,0 km/h (2 Bft) 97,87 %
14.07.2019 16:36 15,6 C 20,6 C 17,8 C 90 % 1014,0 hPa 0,0 l/m 4,6 km/h (1 Bft) SW 222 0 min 0,000 mm 1,0 UV-I 219 W/m 14,0 C 15,6 C 6,4 km/h (2 Bft) 97,87 %
14.07.2019 16:38 15,7 C 20,6 C 17,8 C 90 % 1013,9 hPa 0,0 l/m 3,8 km/h (1 Bft) SW 222 0 min 0,000 mm 1,0 UV-I 227 W/m 14,1 C 15,7 C 6,4 km/h (2 Bft) 98,00 %
14.07.2019 16:40 15,7 C 20,6 C 18,3 C 91 % 1013,9 hPa 0,0 l/m 4,9 km/h (1 Bft) SW 229 0 min 0,000 mm 1,1 UV-I 236 W/m 14,2 C 15,7 C 6,4 km/h (2 Bft) 100,00 %
14.07.2019 16:42 15,7 C 20,6 C 18,3 C 91 % 1013,9 hPa 0,0 l/m 6,0 km/h (2 Bft) SW 225 0 min 0,000 mm 1,1 UV-I 245 W/m 14,2 C 15,7 C 8,0 km/h (2 Bft) 97,87 %
14.07.2019 16:44 15,7 C 20,6 C 18,9 C 92 % 1013,9 hPa 0,0 l/m 3,6 km/h (1 Bft) W-SW 241 0 min 0,000 mm 1,1 UV-I 257 W/m 14,4 C 15,7 C 4,8 km/h (1 Bft) 95,74 %
14.07.2019 16:46 15,8 C 20,6 C 19,4 C 91 % 1013,8 hPa 0,0 l/m 3,9 km/h (1 Bft) W-SW 240 0 min 0,000 mm 1,2 UV-I 283 W/m 14,3 C 15,8 C 6,4 km/h (2 Bft) 100,00 %
14.07.2019 16:48 15,8 C 20,6 C 19,4 C 92 % 1013,8 hPa 0,0 l/m 6,1 km/h (2 Bft) W 270 0 min 0,000 mm 1,2 UV-I 295 W/m 14,5 C 15,8 C 11,3 km/h (2 Bft) 97,87 %
14.07.2019 16:50 15,9 C 20,6 C 19,4 C 91 % 1013,8 hPa 0,0 l/m 6,1 km/h (2 Bft) SW 216 0 min 0,000 mm 1,3 UV-I 316 W/m 14,4 C 15,9 C 9,7 km/h (2 Bft) 100,00 %
14.07.2019 16:52 15,8 C 20,6 C 20,0 C 90 % 1013,7 hPa 0,0 l/m 6,8 km/h (2 Bft) W-SW 258 2 min 0,000 mm 1,4 UV-I 381 W/m 14,2 C 15,6 C 11,3 km/h (2 Bft) 100,00 %
14.07.2019 16:54 15,9 C 20,6 C 20,6 C 90 % 1013,7 hPa 0,0 l/m 3,8 km/h (1 Bft) W 259 2 min 0,000 mm 1,5 UV-I 433 W/m 14,3 C 15,9 C 9,7 km/h (2 Bft) 97,87 %
14.07.2019 16:56 15,9 C 20,6 C 21,1 C 89 % 1013,7 hPa 0,0 l/m 4,4 km/h (1 Bft) SW 220 2 min 0,000 mm 1,6 UV-I 478 W/m 14,1 C 15,9 C 6,4 km/h (2 Bft) 100,00 %
14.07.2019 16:58 16,1 C 20,6 C 21,7 C 89 % 1013,6 hPa 0,0 l/m 5,4 km/h (1 Bft) SW 236 2 min 0,000 mm 1,6 UV-I 516 W/m 14,3 C 16,1 C 8,0 km/h (2 Bft) 100,00 %
14.07.2019 17:00 16,3 C 20,6 C 22,8 C 90 % 1013,6 hPa 0,0 l/m 4,3 km/h (1 Bft) S-SW 207 2 min 0,152 mm 1,6 UV-I 555 W/m 14,7 C 16,3 C 6,4 km/h (2 Bft) 100,00 %
14.07.2019 17:02 16,5 C 20,6 C 23,3 C 90 % 1013,7 hPa 0,0 l/m 6,7 km/h (2 Bft) W-SW 242 2 min 0,000 mm 1,5 UV-I 524 W/m 14,9 C 16,4 C 11,3 km/h (2 Bft) 100,00 %
14.07.2019 17:04 16,6 C 20,6 C 23,3 C 90 % 1013,7 hPa 0,0 l/m 4,0 km/h (1 Bft) W-SW 238 2 min 0,000 mm 1,5 UV-I 481 W/m 15,0 C 16,6 C 6,4 km/h (2 Bft) 100,00 %
14.07.2019 17:06 16,5 C 20,6 C 23,3 C 89 % 1013,7 hPa 0,0 l/m 3,6 km/h (1 Bft) W-SW 238 2 min 0,000 mm 1,4 UV-I 445 W/m 14,7 C 16,5 C 4,8 km/h (1 Bft) 97,87 %
14.07.2019 17:08 16,6 C 20,6 C 22,8 C 88 % 1013,7 hPa 0,0 l/m 3,9 km/h (1 Bft) W-SW 248 2 min 0,000 mm 1,4 UV-I 437 W/m 14,6 C 16,6 C 6,4 km/h (2 Bft) 100,00 %
14.07.2019 17:10 16,6 C 20,6 C 22,8 C 88 % 1013,6 hPa 0,0 l/m 3,8 km/h (1 Bft) W-NW 302 2 min 0,000 mm 1,4 UV-I 447 W/m 14,6 C 16,6 C 6,4 km/h (2 Bft) 97,87 %
14.07.2019 17:12 16,5 C 20,6 C 22,8 C 88 % 1013,6 hPa 0,0 l/m 2,2 km/h (1 Bft) W-NW 301 2 min 0,000 mm 1,4 UV-I 462 W/m 14,5 C 16,5 C 3,2 km/h (1 Bft) 100,00 %
14.07.2019 17:14 16,5 C 20,6 C 23,3 C 88 % 1013,6 hPa 0,0 l/m 2,9 km/h (1 Bft) W-NW 284 2 min 0,000 mm 1,3 UV-I 418 W/m 14,5 C 16,5 C 6,4 km/h (2 Bft) 97,87 %
14.07.2019 17:16 16,6 C 20,6 C 22,2 C 88 % 1013,5 hPa 0,0 l/m 4,2 km/h (1 Bft) W-NW 288 2 min 0,000 mm 1,3 UV-I 399 W/m 14,6 C 16,6 C 6,4 km/h (2 Bft) 95,74 %
14.07.2019 17:18 16,6 C 20,6 C 21,7 C 87 % 1013,5 hPa 0,0 l/m 4,1 km/h (1 Bft) W-NW 288 2 min 0,000 mm 1,3 UV-I 382 W/m 14,4 C 16,6 C 6,4 km/h (2 Bft) 98,00 %
14.07.2019 17:20 16,6 C 20,6 C 22,2 C 89 % 1013,5 hPa 0,0 l/m 2,6 km/h (1 Bft) W-NW 288 2 min 0,000 mm 1,3 UV-I 375 W/m 14,8 C 16,6 C 4,8 km/h (1 Bft) 95,74 %
14.07.2019 17:22 16,6 C 20,6 C 22,2 C 87 % 1013,5 hPa 0,0 l/m 4,3 km/h (1 Bft) W 280 2 min 0,000 mm 1,3 UV-I 361 W/m 14,4 C 16,6 C 6,4 km/h (2 Bft) 96,00 %
14.07.2019 17:24 16,7 C 20,6 C 22,2 C 89 % 1013,5 hPa 0,0 l/m 2,4 km/h (1 Bft) W 274 2 min 0,000 mm 1,2 UV-I 354 W/m 14,9 C 16,7 C 6,4 km/h (2 Bft) 91,49 %
14.07.2019 17:26 16,8 C 20,6 C 22,2 C 88 % 1013,5 hPa 0,0 l/m 0,1 km/h (0 Bft) W 274 2 min 0,000 mm 1,2 UV-I 338 W/m 14,8 C 16,8 C 1,6 km/h (1 Bft) 93,62 %
14.07.2019 17:28 16,9 C 20,6 C 22,8 C 88 % 1013,5 hPa 0,0 l/m 0,6 km/h (0 Bft) W 274 2 min 0,000 mm 1,2 UV-I 362 W/m 14,9 C 16,9 C 3,2 km/h (1 Bft) 94,87 %
14.07.2019 17:30 17,1 C 20,6 C 22,8 C 87 % 1013,5 hPa 0,0 l/m 1,8 km/h (1 Bft) W 276 2 min 0,000 mm 1,2 UV-I 347 W/m 14,9 C 17,1 C 4,8 km/h (1 Bft) 95,74 %
14.07.2019 17:32 17,3 C 20,6 C 22,8 C 87 % 1013,5 hPa 0,0 l/m 1,9 km/h (1 Bft) W 276 2 min 0,000 mm 1,2 UV-I 316 W/m 15,1 C 17,3 C 4,8 km/h (1 Bft) 93,62 %
14.07.2019 17:34 17,4 C 20,6 C 22,8 C 87 % 1013,5 hPa 0,0 l/m 1,0 km/h (0 Bft) W 275 2 min 0,000 mm 1,1 UV-I 311 W/m 15,2 C 17,4 C 3,2 km/h (1 Bft) 94,00 %
14.07.2019 17:36 17,4 C 20,6 C 25,0 C 86 % 1013,5 hPa 0,0 l/m 3,2 km/h (1 Bft) W 263 2 min 0,000 mm 1,3 UV-I 426 W/m 15,0 C 17,4 C 4,8 km/h (1 Bft) 93,62 %
14.07.2019 17:38 17,5 C 20,6 C 26,1 C 85 % 1013,4 hPa 0,0 l/m 2,4 km/h (1 Bft) W 264 2 min 0,000 mm 1,3 UV-I 643 W/m 14,9 C 17,5 C 4,8 km/h (1 Bft) 95,74 %
14.07.2019 17:40 17,5 C 20,6 C 25,6 C 85 % 1013,4 hPa 0,0 l/m 2,8 km/h (1 Bft) W 263 2 min 0,000 mm 1,1 UV-I 361 W/m 14,9 C 17,5 C 4,8 km/h (1 Bft) 95,74 %
14.07.2019 17:42 17,6 C 20,6 C 26,1 C 86 % 1013,4 hPa 0,0 l/m 2,3 km/h (1 Bft) W 263 2 min 0,000 mm 1,1 UV-I 410 W/m 15,2 C 17,6 C 4,8 km/h (1 Bft) 95,74 %
14.07.2019 17:44 17,6 C 20,6 C 26,1 C 86 % 1013,4 hPa 0,0 l/m 2,8 km/h (1 Bft) S-SW 207 2 min 0,000 mm 1,1 UV-I 415 W/m 15,2 C 17,6 C 4,8 km/h (1 Bft) 93,62 %
14.07.2019 17:46 17,4 C 20,6 C 26,1 C 86 % 1013,3 hPa 0,0 l/m 2,3 km/h (1 Bft) S-SW 206 2 min 0,000 mm 1,0 UV-I 392 W/m 15,0 C 17,4 C 4,8 km/h (1 Bft) 96,00 %
14.07.2019 17:49 17,6 C 20,6 C 25,6 C 88 % 1013,3 hPa 0,0 l/m 2,8 km/h (1 Bft) O-SO 121 3 min 0,000 mm 0,9 UV-I 363 W/m 15,6 C 17,6 C 6,4 km/h (2 Bft) 98,57 %
14.07.2019 17:50 17,7 C 20,6 C 25,6 C 88 % 1013,3 hPa 0,0 l/m 4,2 km/h (1 Bft) N-NO 23 1 min 0,000 mm 0,8 UV-I 336 W/m 15,7 C 17,7 C 6,4 km/h (2 Bft) 95,83 %
14.07.2019 17:52 17,7 C 20,6 C 25,0 C 86 % 1013,3 hPa 0,0 l/m 3,4 km/h (1 Bft) N-NO 24 2 min 0,000 mm 0,8 UV-I 350 W/m 15,3 C 17,7 C 4,8 km/h (1 Bft) 97,14 %
14.07.2019 17:54 17,8 C 20,6 C 23,9 C 87 % 1013,3 hPa 0,0 l/m 3,6 km/h (1 Bft) NO 50 2 min 0,000 mm 0,6 UV-I 266 W/m 15,6 C 17,8 C 6,4 km/h (2 Bft) 98,00 %
14.07.2019 17:56 17,7 C 20,6 C 22,2 C 87 % 1013,3 hPa 0,0 l/m 3,4 km/h (1 Bft) NO 50 0 min 0,000 mm 0,3 UV-I 166 W/m 15,5 C 17,7 C 4,8 km/h (1 Bft) 100,00 %
14.07.2019 17:58 17,5 C 20,6 C 21,1 C 87 % 1013,4 hPa 0,0 l/m 3,8 km/h (1 Bft) O-NO 76 0 min 0,000 mm 0,0 UV-I 123 W/m 15,3 C 17,5 C 6,4 km/h (2 Bft) 100,00 %
14.07.2019 18:00 17,4 C 20,6 C 20,6 C 88 % 1013,4 hPa 0,0 l/m 2,6 km/h (1 Bft) O-NO 72 0 min 0,203 mm 0,0 UV-I 104 W/m 15,4 C 17,4 C 6,4 km/h (2 Bft) 97,87 %
14.07.2019 18:02 17,3 C 20,6 C 20,0 C 89 % 1013,4 hPa 0,0 l/m 1,8 km/h (1 Bft) O-NO 72 0 min 0,000 mm 0,0 UV-I 93 W/m 15,5 C 17,3 C 3,2 km/h (1 Bft) 95,74 %
14.07.2019 18:04 17,2 C 20,6 C 20,0 C 88 % 1013,4 hPa 0,0 l/m 1,2 km/h (1 Bft) O-NO 72 0 min 0,000 mm 0,0 UV-I 88 W/m 15,2 C 17,2 C 3,2 km/h (1 Bft) 100,00 %
14.07.2019 18:06 17,2 C 20,6 C 19,4 C 89 % 1013,4 hPa 0,0 l/m 1,5 km/h (1 Bft) O-NO 72 0 min 0,000 mm 0,0 UV-I 85 W/m 15,4 C 17,2 C 3,2 km/h (1 Bft) 100,00 %
14.07.2019 18:08 17,1 C 20,6 C 19,4 C 89 % 1013,5 hPa 0,0 l/m 0,8 km/h (0 Bft) O-NO 72 0 min 0,000 mm 0,0 UV-I 83 W/m 15,3 C 17,1 C 1,6 km/h (1 Bft) 97,87 %
14.07.2019 18:10 16,9 C 20,6 C 19,4 C 89 % 1013,4 hPa 0,0 l/m 3,3 km/h (1 Bft) S 169 0 min 0,000 mm 0,0 UV-I 80 W/m 15,1 C 16,9 C 6,4 km/h (2 Bft) 100,00 %
14.07.2019 18:12 16,8 C 20,6 C 18,9 C 89 % 1013,5 hPa 0,0 l/m 5,4 km/h (1 Bft) S 190 0 min 0,000 mm 0,0 UV-I 77 W/m 15,0 C 16,8 C 8,0 km/h (2 Bft) 100,00 %
14.07.2019 18:14 16,7 C 20,6 C 18,9 C 89 % 1013,4 hPa 0,0 l/m 5,1 km/h (1 Bft) S-SW 204 0 min 0,000 mm 0,0 UV-I 80 W/m 14,9 C 16,7 C 6,4 km/h (2 Bft) 100,00 %
14.07.2019 18:16 16,6 C 20,6 C 18,9 C 90 % 1013,5 hPa 0,0 l/m 4,7 km/h (1 Bft) SO 141 0 min 0,000 mm 0,0 UV-I 80 W/m 15,0 C 16,6 C 8,0 km/h (2 Bft) 100,00 %
14.07.2019 18:18 16,7 C 20,6 C 18,9 C 91 % 1013,5 hPa 0,0 l/m 2,7 km/h (1 Bft) SO 146 0 min 0,000 mm 0,0 UV-I 77 W/m 15,2 C 16,7 C 4,8 km/h (1 Bft) 100,00 %
14.07.2019 18:20 16,6 C 20,6 C 18,9 C 91 % 1013,5 hPa 0,0 l/m 2,9 km/h (1 Bft) SO 146 0 min 0,000 mm 0,0 UV-I 74 W/m 15,1 C 16,6 C 4,8 km/h (1 Bft) 100,00 %
14.07.2019 18:22 16,6 C 20,6 C 18,3 C 91 % 1013,5 hPa 0,0 l/m 4,4 km/h (1 Bft) S-SO 165 0 min 0,000 mm 0,0 UV-I 71 W/m 15,1 C 16,6 C 6,4 km/h (2 Bft) 97,87 %
14.07.2019 18:24 16,5 C 20,6 C 18,3 C 90 % 1013,6 hPa 0,0 l/m 3,6 km/h (1 Bft) S-SO 166 0 min 0,000 mm 0,0 UV-I 72 W/m 14,9 C 16,5 C 6,4 km/h (2 Bft) 98,00 %
14.07.2019 18:26 16,5 C 20,6 C 18,3 C 91 % 1013,6 hPa 0,0 l/m 3,1 km/h (1 Bft) S-SO 165 0 min 0,000 mm 0,0 UV-I 73 W/m 15,0 C 16,5 C 4,8 km/h (1 Bft) 100,00 %
14.07.2019 18:28 16,5 C 20,6 C 18,3 C 91 % 1013,6 hPa 0,0 l/m 2,2 km/h (1 Bft) S-SO 165 0 min 0,000 mm 0,0 UV-I 74 W/m 15,0 C 16,5 C 6,4 km/h (2 Bft) 100,00 %
14.07.2019 18:30 16,6 C 20,6 C 18,3 C 91 % 1013,7 hPa 0,0 l/m 0,6 km/h (0 Bft) S-SO 165 0 min 0,000 mm 0,0 UV-I 72 W/m 15,1 C 16,6 C 1,6 km/h (1 Bft) 97,87 %
14.07.2019 18:32 16,5 C 20,6 C 18,3 C 90 % 1013,7 hPa 0,0 l/m 1,5 km/h (1 Bft) S-SO 165 0 min 0,000 mm 0,0 UV-I 69 W/m 14,9 C 16,5 C 3,2 km/h (1 Bft) 100,00 %
14.07.2019 18:34 16,4 C 20,6 C 18,3 C 91 % 1013,7 hPa 0,0 l/m 3,1 km/h (1 Bft) S-SO 165 0 min 0,000 mm 0,0 UV-I 70 W/m 14,9 C 16,4 C 6,4 km/h (2 Bft) 100,00 %
14.07.2019 18:36 16,3 C 20,6 C 18,3 C 90 % 1013,7 hPa 0,0 l/m 3,9 km/h (1 Bft) SO 134 0 min 0,000 mm 0,0 UV-I 72 W/m 14,7 C 16,3 C 8,0 km/h (2 Bft) 100,00 %
14.07.2019 18:38 16,4 C 20,6 C 18,3 C 91 % 1013,7 hPa 0,0 l/m 2,7 km/h (1 Bft) SO 138 0 min 0,000 mm 0,0 UV-I 72 W/m 14,9 C 16,4 C 4,8 km/h (1 Bft) 100,00 %
14.07.2019 18:40 16,4 C 20,6 C 18,3 C 92 % 1013,8 hPa 0,0 l/m 0,4 km/h (0 Bft) SO 138 0 min 0,000 mm 0,0 UV-I 71 W/m 15,1 C 16,4 C 3,2 km/h (1 Bft) 100,00 %
14.07.2019 18:42 16,4 C 20,6 C 18,3 C 91 % 1013,8 hPa 0,0 l/m 1,6 km/h (1 Bft) SO 139 0 min 0,000 mm 0,0 UV-I 70 W/m 14,9 C 16,4 C 3,2 km/h (1 Bft) 100,00 %
14.07.2019 18:44 16,4 C 20,6 C 18,3 C 90 % 1013,8 hPa 0,0 l/m 1,4 km/h (1 Bft) SO 142 0 min 0,000 mm 0,0 UV-I 75 W/m 14,8 C 16,4 C 3,2 km/h (1 Bft) 100,00 %
14.07.2019 18:46 16,4 C 20,6 C 18,3 C 91 % 1013,7 hPa 0,0 l/m 2,5 km/h (1 Bft) W-SW 248 0 min 0,000 mm 0,0 UV-I 88 W/m 14,9 C 16,4 C 4,8 km/h (1 Bft) 100,00 %
14.07.2019 18:48 16,4 C 20,6 C 18,9 C 91 % 1013,7 hPa 0,0 l/m 3,2 km/h (1 Bft) W-SW 246 0 min 0,000 mm 0,0 UV-I 103 W/m 14,9 C 16,4 C 4,8 km/h (1 Bft) 98,00 %
14.07.2019 18:50 16,4 C 20,6 C 18,9 C 91 % 1013,6 hPa 0,0 l/m 3,3 km/h (1 Bft) W-SW 246 0 min 0,000 mm 0,0 UV-I 111 W/m 14,9 C 16,4 C 6,4 km/h (2 Bft) 98,00 %
14.07.2019 18:52 16,6 C 20,6 C 18,9 C 91 % 1013,7 hPa 0,0 l/m 2,8 km/h (1 Bft) W-SW 246 0 min 0,000 mm 0,0 UV-I 118 W/m 15,1 C 16,6 C 4,8 km/h (1 Bft) 97,87 %
14.07.2019 18:54 16,6 C 20,6 C 19,4 C 90 % 1013,7 hPa 0,0 l/m 2,0 km/h (1 Bft) W-SW 246 0 min 0,000 mm 0,0 UV-I 126 W/m 15,0 C 16,6 C 3,2 km/h (1 Bft) 95,74 %
14.07.2019 18:56 16,6 C 20,6 C 19,4 C 89 % 1013,7 hPa 0,0 l/m 2,3 km/h (1 Bft) W-SW 246 0 min 0,000 mm 0,0 UV-I 134 W/m 14,8 C 16,6 C 3,2 km/h (1 Bft) 96,00 %
14.07.2019 18:58 16,7 C 20,6 C 19,4 C 88 % 1013,8 hPa 0,0 l/m 2,3 km/h (1 Bft) W-SW 246 0 min 0,000 mm 0,0 UV-I 140 W/m 14,7 C 16,7 C 4,8 km/h (1 Bft) 95,74 %
14.07.2019 19:00 16,7 C 20,6 C 19,4 C 89 % 1013,8 hPa 0,0 l/m 2,3 km/h (1 Bft) W-SW 246 0 min 0,000 mm 0,0 UV-I 141 W/m 14,9 C 16,7 C 4,8 km/h (1 Bft) 93,62 %
14.07.2019 19:02 16,7 C 20,6 C 19,4 C 89 % 1013,7 hPa 0,0 l/m 2,8 km/h (1 Bft) W-SW 246 0 min 0,051 mm 0,0 UV-I 141 W/m 14,9 C 16,7 C 4,8 km/h (1 Bft) 94,29 %
14.07.2019 19:04 16,7 C 20,6 C 19,4 C 89 % 1013,7 hPa 0,0 l/m 3,1 km/h (1 Bft) W-SW 246 0 min 0,000 mm 0,0 UV-I 141 W/m 14,9 C 16,7 C 4,8 km/h (1 Bft) 94,92 %
14.07.2019 19:06 16,8 C 20,6 C 19,4 C 89 % 1013,8 hPa 0,0 l/m 2,5 km/h (1 Bft) W-SW 246 0 min 0,000 mm 0,0 UV-I 144 W/m 15,0 C 16,8 C 4,8 km/h (1 Bft) 92,11 %
14.07.2019 19:08 16,8 C 20,6 C 19,4 C 89 % 1013,8 hPa 0,0 l/m 1,5 km/h (1 Bft) W-SW 246 0 min 0,000 mm 0,0 UV-I 138 W/m 15,0 C 16,8 C 3,2 km/h (1 Bft) 96,00 %
14.07.2019 19:10 16,8 C 20,6 C 19,4 C 89 % 1013,8 hPa 0,0 l/m 0,8 km/h (0 Bft) W-SW 246 0 min 0,000 mm 0,0 UV-I 130 W/m 15,0 C 16,8 C 1,6 km/h (1 Bft) 95,74 %
14.07.2019 19:12 16,8 C 20,6 C 19,4 C 89 % 1013,8 hPa 0,0 l/m 1,5 km/h (1 Bft) W-SW 248 0 min 0,000 mm 0,0 UV-I 125 W/m 15,0 C 16,8 C 3,2 km/h (1 Bft) 95,74 %
14.07.2019 19:14 16,8 C 20,6 C 19,4 C 89 % 1013,8 hPa 0,0 l/m 1,5 km/h (1 Bft) W-SW 248 0 min 0,000 mm 0,0 UV-I 119 W/m 15,0 C 16,8 C 3,2 km/h (1 Bft) 95,74 %
14.07.2019 19:16 16,8 C 20,6 C 19,4 C 89 % 1013,8 hPa 0,0 l/m 1,5 km/h (1 Bft) W-SW 248 0 min 0,000 mm 0,0 UV-I 114 W/m 15,0 C 16,8 C 3,2 km/h (1 Bft) 93,62 %
14.07.2019 19:18 16,8 C 20,6 C 19,4 C 89 % 1013,8 hPa 0,0 l/m 3,3 km/h (1 Bft) N-NW 334 0 min 0,000 mm 0,0 UV-I 108 W/m 15,0 C 16,8 C 4,8 km/h (1 Bft) 93,62 %
14.07.2019 19:20 16,8 C 20,6 C 18,9 C 90 % 1013,9 hPa 0,0 l/m 3,2 km/h (1 Bft) N-NW 334 0 min 0,000 mm 0,0 UV-I 102 W/m 15,1 C 16,8 C 4,8 km/h (1 Bft) 95,74 %
14.07.2019 19:22 16,8 C 20,6 C 18,9 C 90 % 1013,9 hPa 0,0 l/m 4,0 km/h (1 Bft) N-NW 339 0 min 0,000 mm 0,0 UV-I 90 W/m 15,1 C 16,8 C 6,4 km/h (2 Bft) 93,62 %
14.07.2019 19:24 16,8 C 20,6 C 18,9 C 91 % 1013,9 hPa 0,0 l/m 4,0 km/h (1 Bft) N-NO 26 0 min 0,000 mm 0,0 UV-I 83 W/m 15,3 C 16,8 C 6,4 km/h (2 Bft) 96,00 %
14.07.2019 19:26 16,8 C 20,6 C 18,9 C 91 % 1013,9 hPa 0,0 l/m 4,8 km/h (1 Bft) N-NO 27 0 min 0,000 mm 0,0 UV-I 76 W/m 15,3 C 16,8 C 6,4 km/h (2 Bft) 92,31 %
14.07.2019 19:28 16,7 C 20,6 C 18,3 C 91 % 1013,9 hPa 0,0 l/m 6,2 km/h (2 Bft) N-NO 33 0 min 0,000 mm 0,0 UV-I 72 W/m 15,2 C 16,7 C 8,0 km/h (2 Bft) 93,62 %
14.07.2019 19:30 16,6 C 20,6 C 18,3 C 91 % 1013,9 hPa 0,0 l/m 5,6 km/h (1 Bft) NO 42 0 min 0,000 mm 0,0 UV-I 71 W/m 15,1 C 16,6 C 8,0 km/h (2 Bft) 96,00 %
14.07.2019 19:32 16,4 C 20,6 C 17,8 C 91 % 1013,9 hPa 0,0 l/m 5,4 km/h (1 Bft) NO 48 0 min 0,000 mm 0,0 UV-I 73 W/m 14,9 C 16,4 C 8,0 km/h (2 Bft) 95,74 %
14.07.2019 19:34 16,3 C 20,6 C 17,8 C 92 % 1013,9 hPa 0,0 l/m 5,3 km/h (1 Bft) NO 50 0 min 0,000 mm 0,0 UV-I 74 W/m 15,0 C 16,3 C 6,4 km/h (2 Bft) 93,62 %
14.07.2019 19:36 16,3 C 20,6 C 17,8 C 92 % 1013,9 hPa 0,0 l/m 3,7 km/h (1 Bft) NO 50 0 min 0,000 mm 0,0 UV-I 75 W/m 15,0 C 16,3 C 6,4 km/h (2 Bft) 95,74 %
14.07.2019 19:38 16,3 C 20,6 C 17,8 C 92 % 1013,8 hPa 0,0 l/m 4,3 km/h (1 Bft) NO 49 0 min 0,000 mm 0,0 UV-I 77 W/m 15,0 C 16,3 C 6,4 km/h (2 Bft) 93,62 %
14.07.2019 19:40 16,3 C 20,6 C 17,8 C 92 % 1013,8 hPa 0,0 l/m 4,2 km/h (1 Bft) NO 49 0 min 0,000 mm 0,0 UV-I 83 W/m 15,0 C 16,3 C 6,4 km/h (2 Bft) 93,62 %
14.07.2019 19:42 16,2 C 20,6 C 17,8 C 92 % 1013,8 hPa 0,0 l/m 5,5 km/h (1 Bft) NO 48 0 min 0,000 mm 0,0 UV-I 81 W/m 14,9 C 16,2 C 8,0 km/h (2 Bft) 93,62 %
14.07.2019 19:44 16,2 C 20,6 C 17,8 C 92 % 1013,8 hPa 0,0 l/m 7,0 km/h (2 Bft) N-NO 32 0 min 0,000 mm 0,0 UV-I 76 W/m 14,9 C 15,9 C 9,7 km/h (2 Bft) 93,62 %
14.07.2019 19:46 16,1 C 20,6 C 17,8 C 92 % 1013,7 hPa 0,0 l/m 5,9 km/h (2 Bft) NO 48 0 min 0,000 mm 0,0 UV-I 76 W/m 14,8 C 16,1 C 8,0 km/h (2 Bft) 95,74 %
14.07.2019 19:48 16,1 C 20,6 C 17,8 C 92 % 1013,7 hPa 0,0 l/m 4,3 km/h (1 Bft) NO 40 0 min 0,000 mm 0,0 UV-I 77 W/m 14,8 C 16,1 C 8,0 km/h (2 Bft) 91,49 %
14.07.2019 19:50 16,0 C 20,6 C 17,8 C 92 % 1013,7 hPa 0,0 l/m 3,7 km/h (1 Bft) NO 45 0 min 0,000 mm 0,0 UV-I 80 W/m 14,7 C 16,0 C 6,4 km/h (2 Bft) 95,74 %
14.07.2019 19:52 15,9 C 20,6 C 17,8 C 92 % 1013,7 hPa 0,0 l/m 3,2 km/h (1 Bft) NO 45 0 min 0,000 mm 0,0 UV-I 76 W/m 14,6 C 15,9 C 4,8 km/h (1 Bft) 95,74 %
14.07.2019 19:54 15,9 C 20,6 C 17,2 C 91 % 1013,7 hPa 0,0 l/m 3,1 km/h (1 Bft) NO 39 0 min 0,000 mm 0,0 UV-I 68 W/m 14,4 C 15,9 C 4,8 km/h (1 Bft) 97,56 %
14.07.2019 19:56 15,8 C 20,6 C 17,2 C 91 % 1013,7 hPa 0,0 l/m 2,8 km/h (1 Bft) NO 34 0 min 0,000 mm 0,0 UV-I 60 W/m 14,3 C 15,8 C 4,8 km/h (1 Bft) 95,74 %
14.07.2019 19:58 15,8 C 20,6 C 17,2 C 91 % 1013,6 hPa 0,0 l/m 0,9 km/h (0 Bft) NO 34 0 min 0,000 mm 0,0 UV-I 54 W/m 14,3 C 15,8 C 1,6 km/h (1 Bft) 95,83 %
14.07.2019 20:00 15,8 C 20,6 C 16,7 C 91 % 1013,7 hPa 0,0 l/m 0,6 km/h (0 Bft) NO 34 0 min 0,051 mm 0,0 UV-I 50 W/m 14,3 C 15,8 C 1,6 km/h (1 Bft) 100,00 %
14.07.2019 20:02 15,8 C 20,6 C 16,7 C 91 % 1013,7 hPa 0,0 l/m 0,0 km/h (0 Bft) NO 34 0 min 0,000 mm 0,0 UV-I 46 W/m 14,3 C 15,8 C 0,0 km/h (0 Bft) 97,87 %
14.07.2019 20:04 15,8 C 20,6 C 16,7 C 91 % 1013,7 hPa 0,0 l/m 0,0 km/h (0 Bft) NO 34 0 min 0,000 mm 0,0 UV-I 44 W/m 14,3 C 15,8 C 0,0 km/h (0 Bft) 100,00 %
14.07.2019 20:06 15,8 C 20,6 C 16,7 C 91 % 1013,7 hPa 0,0 l/m 0,0 km/h (0 Bft) NO 34 0 min 0,000 mm 0,0 UV-I 42 W/m 14,3 C 15,8 C 0,0 km/h (0 Bft) 97,87 %
14.07.2019 20:08 15,7 C 20,6 C 16,7 C 91 % 1013,8 hPa 0,0 l/m 0,0 km/h (0 Bft) NO 34 0 min 0,000 mm 0,0 UV-I 41 W/m 14,2 C 15,7 C 0,0 km/h (0 Bft) 100,00 %
14.07.2019 20:10 15,7 C 20,6 C 16,7 C 91 % 1013,7 hPa 0,0 l/m 0,0 km/h (0 Bft) NO 34 0 min 0,000 mm 0,0 UV-I 40 W/m 14,2 C 15,7 C 0,0 km/h (0 Bft) 100,00 %
14.07.2019 20:12 15,7 C 20,6 C 16,7 C 92 % 1013,7 hPa 0,0 l/m 0,0 km/h (0 Bft) NO 34 0 min 0,000 mm 0,0 UV-I 37 W/m 14,4 C 15,7 C 0,0 km/h (0 Bft) 100,00 %
14.07.2019 20:14 15,7 C 20,6 C 16,7 C 92 % 1013,7 hPa 0,0 l/m 0,0 km/h (0 Bft) NO 34 0 min 0,000 mm 0,0 UV-I 33 W/m 14,4 C 15,7 C 0,0 km/h (0 Bft) 100,00 %
14.07.2019 20:16 15,7 C 20,6 C 16,7 C 92 % 1013,7 hPa 0,0 l/m 0,0 km/h (0 Bft) NO 34 0 min 0,000 mm 0,0 UV-I 29 W/m 14,4 C 15,7 C 0,0 km/h (0 Bft) 100,00 %
14.07.2019 20:18 15,7 C 20,6 C 16,7 C 92 % 1013,7 hPa 0,0 l/m 0,0 km/h (0 Bft) NO 34 0 min 0,000 mm 0,0 UV-I 26 W/m 14,4 C 15,7 C 0,0 km/h (0 Bft) 100,00 %
14.07.2019 20:20 15,6 C 20,6 C 16,7 C 92 % 1013,7 hPa 0,0 l/m 0,0 km/h (0 Bft) NO 34 0 min 0,000 mm 0,0 UV-I 24 W/m 14,3 C 15,6 C 0,0 km/h (0 Bft) 100,00 %
14.07.2019 20:22 15,6 C 20,6 C 16,1 C 92 % 1013,7 hPa 0,0 l/m 0,0 km/h (0 Bft) NO 34 0 min 0,000 mm 0,0 UV-I 21 W/m 14,3 C 15,6 C 0,0 km/h (0 Bft) 97,87 %
14.07.2019 20:24 15,6 C 20,6 C 16,1 C 92 % 1013,7 hPa 0,0 l/m 0,0 km/h (0 Bft) NO 34 0 min 0,000 mm 0,0 UV-I 20 W/m 14,3 C 15,6 C 0,0 km/h (0 Bft) 100,00 %
14.07.2019 20:26 15,6 C 20,6 C 16,1 C 92 % 1013,8 hPa 0,0 l/m 0,0 km/h (0 Bft) NO 34 0 min 0,000 mm 0,0 UV-I 19 W/m 14,3 C 15,6 C 0,0 km/h (0 Bft) 97,87 %
14.07.2019 20:28 15,6 C 20,6 C 16,1 C 92 % 1013,7 hPa 0,0 l/m 0,0 km/h (0 Bft) NO 34 0 min 0,000 mm 0,0 UV-I 18 W/m 14,3 C 15,6 C 0,0 km/h (0 Bft) 95,74 %
14.07.2019 20:30 15,6 C 20,6 C 16,1 C 92 % 1013,7 hPa 0,0 l/m 0,0 km/h (0 Bft) NO 34 0 min 0,000 mm 0,0 UV-I 19 W/m 14,3 C 15,6 C 0,0 km/h (0 Bft) 97,56 %
14.07.2019 20:32 15,6 C 20,6 C 16,1 C 91 % 1013,7 hPa 0,0 l/m 0,0 km/h (0 Bft) NO 34 0 min 0,000 mm 0,0 UV-I 18 W/m 14,1 C 15,6 C 0,0 km/h (0 Bft) 95,74 %
14.07.2019 20:34 15,7 C 20,6 C 16,1 C 91 % 1013,7 hPa 0,0 l/m 0,0 km/h (0 Bft) NO 34 0 min 0,000 mm 0,0 UV-I 14 W/m 14,2 C 15,7 C 0,0 km/h (0 Bft) 96,00 %
14.07.2019 20:36 15,7 C 20,6 C 16,1 C 92 % 1013,7 hPa 0,0 l/m 0,0 km/h (0 Bft) NO 34 0 min 0,000 mm 0,0 UV-I 14 W/m 14,4 C 15,7 C 0,0 km/h (0 Bft) 95,74 %
14.07.2019 20:38 15,7 C 20,6 C 16,1 C 92 % 1013,8 hPa 0,0 l/m 0,0 km/h (0 Bft) NO 34 0 min 0,000 mm 0,0 UV-I 12 W/m 14,4 C 15,7 C 0,0 km/h (0 Bft) 95,83 %
14.07.2019 20:40 15,6 C 20,6 C 16,1 C 92 % 1013,8 hPa 0,0 l/m 0,0 km/h (0 Bft) NO 34 0 min 0,000 mm 0,0 UV-I 12 W/m 14,3 C 15,6 C 0,0 km/h (0 Bft) 97,87 %
14.07.2019 20:42 15,6 C 20,6 C 16,1 C 92 % 1013,9 hPa 0,0 l/m 2,0 km/h (1 Bft) O-NO 74 0 min 0,000 mm 0,0 UV-I 12 W/m 14,3 C 15,6 C 4,8 km/h (1 Bft) 95,74 %
14.07.2019 20:44 15,5 C 20,6 C 16,1 C 93 % 1013,9 hPa 0,0 l/m 4,0 km/h (1 Bft) O-NO 67 0 min 0,000 mm 0,0 UV-I 11 W/m 14,4 C 15,5 C 4,8 km/h (1 Bft) 97,87 %
14.07.2019 20:46 15,4 C 20,6 C 16,1 C 93 % 1013,9 hPa 0,0 l/m 3,7 km/h (1 Bft) O-NO 78 0 min 0,000 mm 0,0 UV-I 11 W/m 14,3 C 15,4 C 4,8 km/h (1 Bft) 97,87 %
14.07.2019 20:48 15,3 C 20,6 C 15,6 C 93 % 1013,9 hPa 0,0 l/m 3,5 km/h (1 Bft) O-NO 78 2 min 0,000 mm 0,0 UV-I 10 W/m 14,2 C 15,3 C 4,8 km/h (1 Bft) 97,87 %
14.07.2019 20:50 15,3 C 20,6 C 15,6 C 94 % 1013,9 hPa 0,0 l/m 3,9 km/h (1 Bft) O-NO 68 0 min 0,000 mm 0,0 UV-I 9 W/m 14,3 C 15,3 C 4,8 km/h (1 Bft) 100,00 %
14.07.2019 20:52 15,3 C 20,6 C 15,6 C 94 % 1013,9 hPa 0,0 l/m 3,4 km/h (1 Bft) NO 37 0 min 0,000 mm 0,0 UV-I 9 W/m 14,3 C 15,3 C 4,8 km/h (1 Bft) 100,00 %
14.07.2019 20:54 15,2 C 20,6 C 15,6 C 94 % 1013,9 hPa 0,0 l/m 2,9 km/h (1 Bft) N-NW 340 0 min 0,000 mm 0,0 UV-I 7 W/m 14,2 C 15,2 C 4,8 km/h (1 Bft) 100,00 %
14.07.2019 20:56 15,2 C 20,6 C 15,6 C 94 % 1013,9 hPa 0,0 l/m 1,3 km/h (1 Bft) N-NW 340 0 min 0,000 mm 0,0 UV-I 7 W/m 14,2 C 15,2 C 3,2 km/h (1 Bft) 97,87 %
14.07.2019 20:58 15,2 C 20,6 C 15,6 C 94 % 1013,9 hPa 0,0 l/m 0,0 km/h (0 Bft) N-NW 340 0 min 0,000 mm 0,0 UV-I 7 W/m 14,2 C 15,2 C 0,0 km/h (0 Bft) 100,00 %
14.07.2019 21:00 15,3 C 20,6 C 15,6 C 94 % 1013,9 hPa 0,0 l/m 0,0 km/h (0 Bft) N-NW 340 0 min 0,000 mm 0,0 UV-I 5 W/m 14,3 C 15,3 C 0,0 km/h (0 Bft) 97,87 %
14.07.2019 21:02 15,3 C 20,6 C 15,6 C 94 % 1013,9 hPa 0,0 l/m 1,2 km/h (1 Bft) N-NW 340 0 min 0,025 mm 0,0 UV-I 5 W/m 14,3 C 15,3 C 3,2 km/h (1 Bft) 100,00 %
14.07.2019 21:04 15,3 C 20,6 C 15,6 C 94 % 1013,9 hPa 0,0 l/m 2,2 km/h (1 Bft) N-NW 340 0 min 0,000 mm 0,0 UV-I 5 W/m 14,3 C 15,3 C 3,2 km/h (1 Bft) 100,00 %
14.07.2019 21:06 15,3 C 20,6 C 15,6 C 94 % 1013,9 hPa 0,0 l/m 2,1 km/h (1 Bft) N-NW 340 0 min 0,000 mm 0,0 UV-I 5 W/m 14,3 C 15,3 C 3,2 km/h (1 Bft) 100,00 %
14.07.2019 21:08 15,3 C 20,6 C 15,6 C 94 % 1014,0 hPa 0,0 l/m 0,7 km/h (0 Bft) N-NW 340 0 min 0,000 mm 0,0 UV-I 5 W/m 14,3 C 15,3 C 1,6 km/h (1 Bft) 100,00 %
14.07.2019 21:10 15,3 C 20,6 C 15,6 C 94 % 1014,0 hPa 0,0 l/m 0,4 km/h (0 Bft) N-NW 340 0 min 0,000 mm 0,0 UV-I 5 W/m 14,3 C 15,3 C 1,6 km/h (1 Bft) 100,00 %
14.07.2019 21:12 15,3 C 20,6 C 15,6 C 94 % 1014,0 hPa 0,0 l/m 0,9 km/h (0 Bft) N-NW 340 0 min 0,000 mm 0,0 UV-I 5 W/m 14,3 C 15,3 C 1,6 km/h (1 Bft) 100,00 %
14.07.2019 21:14 15,2 C 20,6 C 15,0 C 93 % 1014,0 hPa 0,0 l/m 1,2 km/h (1 Bft) N-NW 340 0 min 0,000 mm 0,0 UV-I 5 W/m 14,1 C 15,2 C 1,6 km/h (1 Bft) 100,00 %
14.07.2019 21:16 15,1 C 20,6 C 15,0 C 93 % 1014,1 hPa 0,0 l/m 0,9 km/h (0 Bft) N-NW 340 0 min 0,000 mm 0,0 UV-I 5 W/m 14,0 C 15,1 C 1,6 km/h (1 Bft) 100,00 %
14.07.2019 21:18 15,1 C 20,6 C 15,0 C 94 % 1014,1 hPa 0,0 l/m 1,3 km/h (1 Bft) N-NW 340 0 min 0,000 mm 0,0 UV-I 4 W/m 14,1 C 15,1 C 1,6 km/h (1 Bft) 100,00 %
14.07.2019 21:20 15,1 C 20,6 C 15,0 C 94 % 1014,1 hPa 0,0 l/m 1,3 km/h (1 Bft) N-NW 340 0 min 0,000 mm 0,0 UV-I 0 W/m 14,1 C 15,1 C 1,6 km/h (1 Bft) 95,74 %
14.07.2019 21:22 15,1 C 20,6 C 15,0 C 94 % 1014,1 hPa 0,0 l/m 1,6 km/h (1 Bft) N-NW 340 0 min 0,000 mm 0,0 UV-I 0 W/m 14,1 C 15,1 C 3,2 km/h (1 Bft) 97,87 %
14.07.2019 21:24 15,1 C 20,6 C 14,4 C 94 % 1014,1 hPa 0,0 l/m 2,5 km/h (1 Bft) N-NW 340 0 min 0,000 mm 0,0 UV-I 0 W/m 14,1 C 15,1 C 4,8 km/h (1 Bft) 98,00 %
14.07.2019 21:26 15,1 C 20,6 C 14,4 C 94 % 1014,1 hPa 0,0 l/m 2,8 km/h (1 Bft) N-NW 341 0 min 0,000 mm 0,0 UV-I 0 W/m 14,1 C 15,1 C 4,8 km/h (1 Bft) 89,36 %
14.07.2019 21:28 14,9 C 20,6 C 14,4 C 94 % 1014,1 hPa 0,0 l/m 2,4 km/h (1 Bft) N-NW 341 0 min 0,000 mm 0,0 UV-I 0 W/m 13,9 C 14,9 C 3,2 km/h (1 Bft) 93,62 %
14.07.2019 21:30 14,8 C 20,6 C 14,4 C 94 % 1014,2 hPa 0,0 l/m 1,5 km/h (1 Bft) N-NW 341 0 min 0,000 mm 0,0 UV-I 0 W/m 13,8 C 14,8 C 3,2 km/h (1 Bft) 94,74 %
14.07.2019 21:32 14,7 C 20,0 C 14,4 C 94 % 1014,1 hPa 0,0 l/m 2,0 km/h (1 Bft) N-NW 341 0 min 0,000 mm 0,0 UV-I 0 W/m 13,7 C 14,7 C 3,2 km/h (1 Bft) 97,87 %
14.07.2019 21:34 14,7 C 20,0 C 14,4 C 94 % 1014,2 hPa 0,0 l/m 1,9 km/h (1 Bft) N-NW 341 0 min 0,000 mm 0,0 UV-I 0 W/m 13,7 C 14,7 C 3,2 km/h (1 Bft) 95,74 %
14.07.2019 21:36 14,7 C 20,0 C 14,4 C 94 % 1014,2 hPa 0,0 l/m 1,6 km/h (1 Bft) N-NW 341 0 min 0,000 mm 0,0 UV-I 0 W/m 13,7 C 14,7 C 3,2 km/h (1 Bft) 97,87 %
14.07.2019 21:38 14,7 C 20,0 C 14,4 C 94 % 1014,2 hPa 0,0 l/m 1,3 km/h (1 Bft) N-NW 341 0 min 0,000 mm 0,0 UV-I 0 W/m 13,7 C 14,7 C 1,6 km/h (1 Bft) 97,87 %
14.07.2019 21:40 14,7 C 20,0 C 14,4 C 94 % 1014,2 hPa 0,0 l/m 1,6 km/h (1 Bft) N-NW 341 0 min 0,000 mm 0,0 UV-I 0 W/m 13,7 C 14,7 C 3,2 km/h (1 Bft) 97,87 %
14.07.2019 21:42 14,7 C 20,0 C 14,4 C 94 % 1014,2 hPa 0,0 l/m 1,0 km/h (0 Bft) N-NW 341 0 min 0,000 mm 0,0 UV-I 0 W/m 13,7 C 14,7 C 1,6 km/h (1 Bft) 97,87 %
14.07.2019 21:44 14,6 C 20,0 C 14,4 C 94 % 1014,2 hPa 0,0 l/m 1,3 km/h (1 Bft) N-NW 341 0 min 0,000 mm 0,0 UV-I 0 W/m 13,6 C 14,6 C 3,2 km/h (1 Bft) 97,87 %
14.07.2019 21:46 14,5 C 20,0 C 14,4 C 94 % 1014,2 hPa 0,0 l/m 2,0 km/h (1 Bft) N-NW 341 0 min 0,000 mm 0,0 UV-I 0 W/m 13,5 C 14,5 C 3,2 km/h (1 Bft) 95,74 %
14.07.2019 21:48 14,4 C 20,0 C 13,9 C 94 % 1014,2 hPa 0,0 l/m 2,0 km/h (1 Bft) N-NW 341 0 min 0,000 mm 0,0 UV-I 0 W/m 13,4 C 14,4 C 3,2 km/h (1 Bft) 95,74 %
14.07.2019 21:50 14,3 C 20,0 C 13,9 C 95 % 1014,2 hPa 0,0 l/m 1,8 km/h (1 Bft) N-NW 341 0 min 0,000 mm 0,0 UV-I 0 W/m 13,5 C 14,3 C 3,2 km/h (1 Bft) 97,87 %
14.07.2019 21:52 14,3 C 20,0 C 13,9 C 95 % 1014,2 hPa 0,0 l/m 2,5 km/h (1 Bft) N-NW 341 0 min 0,000 mm 0,0 UV-I 0 W/m 13,5 C 14,3 C 3,2 km/h (1 Bft) 97,92 %
14.07.2019 21:54 14,2 C 20,0 C 13,9 C 95 % 1014,2 hPa 0,0 l/m 2,3 km/h (1 Bft) N-NW 344 0 min 0,000 mm 0,0 UV-I 0 W/m 13,4 C 14,2 C 3,2 km/h (1 Bft) 97,87 %
14.07.2019 21:56 14,1 C 20,0 C 13,9 C 95 % 1014,2 hPa 0,0 l/m 3,1 km/h (1 Bft) N-NW 344 0 min 0,000 mm 0,0 UV-I 0 W/m 13,3 C 14,1 C 4,8 km/h (1 Bft) 98,00 %
14.07.2019 21:58 14,1 C 20,0 C 13,9 C 95 % 1014,2 hPa 0,0 l/m 3,2 km/h (1 Bft) N-NW 344 0 min 0,000 mm 0,0 UV-I 0 W/m 13,3 C 14,1 C 4,8 km/h (1 Bft) 97,87 %
14.07.2019 22:00 14,0 C 20,0 C 13,3 C 95 % 1014,2 hPa 0,0 l/m 2,4 km/h (1 Bft) N-NW 344 0 min 0,000 mm 0,0 UV-I 0 W/m 13,2 C 14,0 C 3,2 km/h (1 Bft) 97,87 %
14.07.2019 22:02 13,9 C 20,0 C 13,9 C 95 % 1014,1 hPa 0,0 l/m 2,3 km/h (1 Bft) N-NW 344 0 min 0,000 mm 0,0 UV-I 0 W/m 13,1 C 13,9 C 3,2 km/h (1 Bft) 95,74 %
14.07.2019 22:04 13,9 C 20,0 C 13,9 C 95 % 1014,1 hPa 0,0 l/m 1,9 km/h (1 Bft) N-NW 344 0 min 0,000 mm 0,0 UV-I 0 W/m 13,1 C 13,9 C 3,2 km/h (1 Bft) 93,62 %
14.07.2019 22:06 13,9 C 20,0 C 13,9 C 95 % 1014,1 hPa 0,0 l/m 2,4 km/h (1 Bft) N-NW 344 0 min 0,000 mm 0,0 UV-I 0 W/m 13,1 C 13,9 C 3,2 km/h (1 Bft) 97,87 %
14.07.2019 22:08 13,8 C 20,0 C 13,3 C 95 % 1014,1 hPa 0,0 l/m 2,2 km/h (1 Bft) N-NW 344 0 min 0,000 mm 0,0 UV-I 0 W/m 13,0 C 13,8 C 3,2 km/h (1 Bft) 97,56 %
14.07.2019 22:10 13,7 C 20,0 C 13,3 C 95 % 1014,1 hPa 0,0 l/m 2,2 km/h (1 Bft) N-NW 344 0 min 0,000 mm 0,0 UV-I 0 W/m 12,9 C 13,7 C 3,2 km/h (1 Bft) 96,00 %
14.07.2019 22:12 13,7 C 20,0 C 13,3 C 96 % 1014,1 hPa 0,0 l/m 1,2 km/h (1 Bft) N-NW 344 0 min 0,000 mm 0,0 UV-I 0 W/m 13,1 C 13,7 C 3,2 km/h (1 Bft) 97,87 %
14.07.2019 22:14 13,7 C 20,0 C 13,3 C 96 % 1014,1 hPa 0,0 l/m 1,5 km/h (1 Bft) N-NW 344 0 min 0,000 mm 0,0 UV-I 0 W/m 13,1 C 13,7 C 3,2 km/h (1 Bft) 96,00 %
14.07.2019 22:16 13,7 C 20,0 C 13,3 C 96 % 1014,1 hPa 0,0 l/m 1,8 km/h (1 Bft) N-NW 344 0 min 0,000 mm 0,0 UV-I 0 W/m 13,1 C 13,7 C 3,2 km/h (1 Bft) 97,87 %
14.07.2019 22:18 13,7 C 20,0 C 13,3 C 96 % 1014,1 hPa 0,0 l/m 2,4 km/h (1 Bft) N-NW 344 0 min 0,000 mm 0,0 UV-I 0 W/m 13,1 C 13,7 C 3,2 km/h (1 Bft) 97,87 %
14.07.2019 22:20 13,7 C 20,0 C 13,3 C 96 % 1014,1 hPa 0,0 l/m 2,8 km/h (1 Bft) N-NW 344 0 min 0,000 mm 0,0 UV-I 0 W/m 13,1 C 13,7 C 3,2 km/h (1 Bft) 100,00 %
14.07.2019 22:22 13,7 C 20,0 C 13,3 C 96 % 1014,1 hPa 0,0 l/m 1,8 km/h (1 Bft) N-NW 344 0 min 0,000 mm 0,0 UV-I 0 W/m 13,1 C 13,7 C 3,2 km/h (1 Bft) 100,00 %
14.07.2019 22:24 13,7 C 20,0 C 13,3 C 96 % 1014,1 hPa 0,0 l/m 1,7 km/h (1 Bft) N-NW 344 0 min 0,000 mm 0,0 UV-I 0 W/m 13,1 C 13,7 C 3,2 km/h (1 Bft) 97,87 %
14.07.2019 22:26 13,7 C 20,0 C 12,8 C 96 % 1014,1 hPa 0,0 l/m 2,3 km/h (1 Bft) N-NW 344 0 min 0,000 mm 0,0 UV-I 0 W/m 13,1 C 13,7 C 3,2 km/h (1 Bft) 97,92 %
14.07.2019 22:28 13,7 C 20,0 C 12,8 C 96 % 1014,1 hPa 0,0 l/m 2,3 km/h (1 Bft) N-NW 344 0 min 0,000 mm 0,0 UV-I 0 W/m 13,1 C 13,7 C 3,2 km/h (1 Bft) 97,87 %
14.07.2019 22:30 13,7 C 20,0 C 12,8 C 96 % 1014,2 hPa 0,0 l/m 1,5 km/h (1 Bft) N-NW 344 0 min 0,000 mm 0,0 UV-I 0 W/m 13,1 C 13,7 C 3,2 km/h (1 Bft) 100,00 %
14.07.2019 22:32 13,7 C 20,0 C 12,8 C 96 % 1014,2 hPa 0,0 l/m 0,6 km/h (0 Bft) N-NW 344 0 min 0,000 mm 0,0 UV-I 0 W/m 13,1 C 13,7 C 1,6 km/h (1 Bft) 97,87 %
14.07.2019 22:34 13,7 C 20,0 C 12,2 C 96 % 1014,2 hPa 0,0 l/m 0,0 km/h (0 Bft) N-NW 344 0 min 0,000 mm 0,0 UV-I 0 W/m 13,1 C 13,7 C 0,0 km/h (0 Bft) 100,00 %
14.07.2019 22:36 13,7 C 20,0 C 12,2 C 96 % 1014,2 hPa 0,0 l/m 0,0 km/h (0 Bft) N-NW 344 0 min 0,000 mm 0,0 UV-I 0 W/m 13,1 C 13,7 C 0,0 km/h (0 Bft) 100,00 %
14.07.2019 22:38 13,7 C 20,0 C 12,2 C 96 % 1014,1 hPa 0,0 l/m 0,8 km/h (0 Bft) N-NW 344 0 min 0,000 mm 0,0 UV-I 0 W/m 13,1 C 13,7 C 1,6 km/h (1 Bft) 95,74 %
14.07.2019 22:40 13,6 C 20,0 C 12,2 C 96 % 1014,1 hPa 0,0 l/m 1,0 km/h (0 Bft) N-NW 344 0 min 0,000 mm 0,0 UV-I 0 W/m 13,0 C 13,6 C 1,6 km/h (1 Bft) 95,74 %
14.07.2019 22:42 13,5 C 20,0 C 12,2 C 96 % 1014,1 hPa 0,0 l/m 1,7 km/h (1 Bft) N-NW 344 0 min 0,000 mm 0,0 UV-I 0 W/m 12,9 C 13,5 C 3,2 km/h (1 Bft) 98,00 %
14.07.2019 22:44 13,4 C 20,0 C 12,2 C 96 % 1014,2 hPa 0,0 l/m 1,8 km/h (1 Bft) N-NW 344 0 min 0,000 mm 0,0 UV-I 0 W/m 12,8 C 13,4 C 3,2 km/h (1 Bft) 94,74 %
14.07.2019 22:46 13,4 C 20,0 C 12,8 C 96 % 1014,1 hPa 0,0 l/m 2,4 km/h (1 Bft) N-NW 344 0 min 0,000 mm 0,0 UV-I 0 W/m 12,8 C 13,4 C 4,8 km/h (1 Bft) 97,87 %
14.07.2019 22:48 13,4 C 20,0 C 12,8 C 96 % 1014,2 hPa 0,0 l/m 3,7 km/h (1 Bft) S-SW 204 0 min 0,000 mm 0,0 UV-I 0 W/m 12,8 C 13,4 C 4,8 km/h (1 Bft) 97,87 %
14.07.2019 22:50 13,3 C 20,0 C 12,8 C 96 % 1014,1 hPa 0,0 l/m 3,1 km/h (1 Bft) S-SW 204 0 min 0,000 mm 0,0 UV-I 0 W/m 12,7 C 13,3 C 3,2 km/h (1 Bft) 97,87 %
14.07.2019 22:52 13,3 C 20,0 C 12,8 C 96 % 1014,1 hPa 0,0 l/m 3,5 km/h (1 Bft) S-SW 204 0 min 0,000 mm 0,0 UV-I 0 W/m 12,7 C 13,3 C 4,8 km/h (1 Bft) 96,00 %
14.07.2019 22:54 13,3 C 20,0 C 13,3 C 96 % 1014,2 hPa 0,0 l/m 3,0 km/h (1 Bft) S-SW 204 0 min 0,000 mm 0,0 UV-I 0 W/m 12,7 C 13,3 C 4,8 km/h (1 Bft) 98,00 %
14.07.2019 22:56 13,3 C 20,0 C 12,8 C 96 % 1014,2 hPa 0,0 l/m 2,6 km/h (1 Bft) S-SW 204 0 min 0,000 mm 0,0 UV-I 0 W/m 12,7 C 13,3 C 3,2 km/h (1 Bft) 97,87 %
14.07.2019 22:59 13,1 C 20,0 C 12,8 C 96 % 1014,2 hPa 0,0 l/m 1,0 km/h (0 Bft) S-SW 204 0 min 0,000 mm 0,0 UV-I 0 W/m 12,5 C 13,1 C 3,2 km/h (1 Bft) 97,18 %
14.07.2019 23:00 13,1 C 20,0 C 12,8 C 96 % 1014,2 hPa 0,0 l/m 0,8 km/h (0 Bft) S-SW 204 0 min 0,000 mm 0,0 UV-I 0 W/m 12,5 C 13,1 C 1,6 km/h (1 Bft) 100,00 %
14.07.2019 23:02 13,1 C 20,0 C 12,2 C 96 % 1014,2 hPa 0,0 l/m 0,6 km/h (0 Bft) S-SW 204 0 min 0,000 mm 0,0 UV-I 0 W/m 12,5 C 13,1 C 1,6 km/h (1 Bft) 98,00 %
14.07.2019 23:04 13,2 C 20,0 C 12,2 C 96 % 1014,2 hPa 0,0 l/m 1,3 km/h (1 Bft) S-SW 204 0 min 0,000 mm 0,0 UV-I 0 W/m 12,6 C 13,2 C 1,6 km/h (1 Bft) 97,22 %
14.07.2019 23:06 13,3 C 20,0 C 12,2 C 96 % 1014,2 hPa 0,0 l/m 2,0 km/h (1 Bft) S-SW 204 0 min 0,000 mm 0,0 UV-I 0 W/m 12,7 C 13,3 C 3,2 km/h (1 Bft) 98,00 %
14.07.2019 23:09 13,3 C 20,0 C 12,8 C 96 % 1014,2 hPa 0,0 l/m 4,0 km/h (1 Bft) S-SW 204 0 min 0,000 mm 0,0 UV-I 0 W/m 12,7 C 13,3 C 4,8 km/h (1 Bft) 95,71 %
14.07.2019 23:10 13,2 C 20,0 C 12,8 C 96 % 1014,2 hPa 0,0 l/m 4,2 km/h (1 Bft) S-SW 204 0 min 0,000 mm 0,0 UV-I 0 W/m 12,6 C 13,2 C 4,8 km/h (1 Bft) 100,00 %
14.07.2019 23:12 13,2 C 20,0 C 12,8 C 96 % 1014,2 hPa 0,0 l/m 2,7 km/h (1 Bft) S-SW 204 0 min 0,000 mm 0,0 UV-I 0 W/m 12,6 C 13,2 C 4,8 km/h (1 Bft) 97,87 %
14.07.2019 23:14 13,1 C 20,0 C 12,8 C 96 % 1014,2 hPa 0,0 l/m 3,4 km/h (1 Bft) S-SW 204 0 min 0,000 mm 0,0 UV-I 0 W/m 12,5 C 13,1 C 4,8 km/h (1 Bft) 97,87 %
14.07.2019 23:16 13,1 C 20,0 C 12,8 C 96 % 1014,2 hPa 0,0 l/m 4,0 km/h (1 Bft) S-SW 204 0 min 0,000 mm 0,0 UV-I 0 W/m 12,5 C 13,1 C 4,8 km/h (1 Bft) 95,74 %
14.07.2019 23:18 13,1 C 20,0 C 12,8 C 96 % 1014,1 hPa 0,0 l/m 3,5 km/h (1 Bft) S-SW 204 0 min 0,000 mm 0,0 UV-I 0 W/m 12,5 C 13,1 C 4,8 km/h (1 Bft) 96,00 %
14.07.2019 23:20 13,1 C 20,0 C 12,8 C 96 % 1014,2 hPa 0,0 l/m 3,4 km/h (1 Bft) S-SW 204 0 min 0,000 mm 0,0 UV-I 0 W/m 12,5 C 13,1 C 4,8 km/h (1 Bft) 95,74 %
14.07.2019 23:22 13,0 C 20,0 C 12,2 C 96 % 1014,1 hPa 0,0 l/m 2,5 km/h (1 Bft) S-SW 204 0 min 0,000 mm 0,0 UV-I 0 W/m 12,4 C 13,0 C 3,2 km/h (1 Bft) 91,49 %
14.07.2019 23:24 12,8 C 20,0 C 12,2 C 96 % 1014,2 hPa 0,0 l/m 1,3 km/h (1 Bft) S-SW 204 0 min 0,000 mm 0,0 UV-I 0 W/m 12,2 C 12,8 C 3,2 km/h (1 Bft) 93,62 %
14.07.2019 23:26 12,8 C 20,0 C 12,2 C 96 % 1014,2 hPa 0,0 l/m 1,5 km/h (1 Bft) S-SW 204 0 min 0,000 mm 0,0 UV-I 0 W/m 12,2 C 12,8 C 1,6 km/h (1 Bft) 92,00 %
14.07.2019 23:28 12,8 C 20,0 C 12,2 C 96 % 1014,1 hPa 0,0 l/m 1,7 km/h (1 Bft) S-SW 204 0 min 0,000 mm 0,0 UV-I 0 W/m 12,2 C 12,8 C 3,2 km/h (1 Bft) 91,49 %
14.07.2019 23:30 12,9 C 20,0 C 12,2 C 96 % 1014,2 hPa 0,0 l/m 2,2 km/h (1 Bft) S-SW 204 0 min 0,000 mm 0,0 UV-I 0 W/m 12,3 C 12,9 C 3,2 km/h (1 Bft) 91,49 %
14.07.2019 23:32 12,9 C 20,0 C 12,2 C 96 % 1014,1 hPa 0,0 l/m 2,4 km/h (1 Bft) S-SW 204 0 min 0,000 mm 0,0 UV-I 0 W/m 12,3 C 12,9 C 3,2 km/h (1 Bft) 91,43 %
14.07.2019 23:34 12,9 C 20,0 C 12,2 C 96 % 1014,1 hPa 0,0 l/m 1,6 km/h (1 Bft) S-SW 204 0 min 0,000 mm 0,0 UV-I 0 W/m 12,3 C 12,9 C 3,2 km/h (1 Bft) 93,62 %
14.07.2019 23:36 13,0 C 20,0 C 12,2 C 96 % 1014,1 hPa 0,0 l/m 1,7 km/h (1 Bft) S-SW 204 0 min 0,000 mm 0,0 UV-I 0 W/m 12,4 C 13,0 C 3,2 km/h (1 Bft) 91,49 %
14.07.2019 23:39 12,9 C 20,0 C 11,7 C 96 % 1014,1 hPa 0,0 l/m 1,6 km/h (1 Bft) S-SW 204 0 min 0,000 mm 0,0 UV-I 0 W/m 12,3 C 12,9 C 1,6 km/h (1 Bft) 92,77 %
14.07.2019 23:40 12,9 C 20,0 C 11,7 C 96 % 1014,1 hPa 0,0 l/m 0,8 km/h (0 Bft) S-SW 204 0 min 0,000 mm 0,0 UV-I 0 W/m 12,3 C 12,9 C 1,6 km/h (1 Bft) 100,00 %
14.07.2019 23:42 12,9 C 20,0 C 11,7 C 96 % 1014,1 hPa 0,0 l/m 0,9 km/h (0 Bft) S-SW 204 0 min 0,000 mm 0,0 UV-I 0 W/m 12,3 C 12,9 C 1,6 km/h (1 Bft) 95,83 %
14.07.2019 23:44 12,8 C 20,0 C 11,7 C 96 % 1014,1 hPa 0,0 l/m 1,1 km/h (1 Bft) S-SW 204 0 min 0,000 mm 0,0 UV-I 0 W/m 12,2 C 12,8 C 1,6 km/h (1 Bft) 96,00 %
14.07.2019 23:46 12,7 C 20,0 C 11,7 C 96 % 1014,1 hPa 0,0 l/m 0,0 km/h (0 Bft) S-SW 204 0 min 0,000 mm 0,0 UV-I 0 W/m 12,1 C 12,7 C 0,0 km/h (0 Bft) 95,74 %
14.07.2019 23:48 12,7 C 20,0 C 11,7 C 96 % 1014,2 hPa 0,0 l/m 0,0 km/h (0 Bft) S-SW 204 0 min 0,000 mm 0,0 UV-I 0 W/m 12,1 C 12,7 C 0,0 km/h (0 Bft) 93,62 %
14.07.2019 23:50 12,7 C 20,0 C 11,1 C 96 % 1014,1 hPa 0,0 l/m 1,3 km/h (1 Bft) S-SW 204 0 min 0,000 mm 0,0 UV-I 0 W/m 12,1 C 12,7 C 3,2 km/h (1 Bft) 98,00 %
14.07.2019 23:52 12,7 C 20,0 C 11,1 C 96 % 1014,1 hPa 0,0 l/m 1,2 km/h (1 Bft) S-SW 204 0 min 0,000 mm 0,0 UV-I 0 W/m 12,1 C 12,7 C 1,6 km/h (1 Bft) 96,00 %
14.07.2019 23:54 12,7 C 20,0 C 11,1 C 96 % 1014,1 hPa 0,0 l/m 1,6 km/h (1 Bft) S-SW 204 0 min 0,000 mm 0,0 UV-I 0 W/m 12,1 C 12,7 C 3,2 km/h (1 Bft) 97,37 %
14.07.2019 23:56 12,7 C 20,0 C 11,1 C 96 % 1014,2 hPa 0,0 l/m 0,8 km/h (0 Bft) S-SW 204 0 min 0,000 mm 0,0 UV-I 0 W/m 12,1 C 12,7 C 1,6 km/h (1 Bft) 97,87 %
14.07.2019 23:59 12,7 C 20,0 C 11,1 C 96 % 1014,2 hPa 0,0 l/m 0,5 km/h (0 Bft) S-SW 204 0 min 0,000 mm 0,0 UV-I 0 W/m 12,1 C 12,7 C 1,6 km/h (1 Bft) 100,00 %
_ Min-Zeit 23:28 01:14 23:50 12:28 17:46 - 20:02 - - - - - - 23:46 00:50 20:02 09:54
Minimum _ 12,7 C 19,4 C 11,1 C 64 % 1013,3 hPa - 0,0 km/h (0 Bft) - - - - - - 12,1 C 9,8 C 0,0 km/h (0 Bft) 87,23 %
_ Max-Zeit 12:26 13:30 11:42 06:32 00:42 14:04 13:22 - - 17:49 12:02 11:40 11:20 11:06 12:26 13:10 00:01
Maximum _ 20,6 C 20,6 C 37,2 C 96 % 1015,0 hPa 1,4 l/m 20,7 km/h
SW (4 Bft)
- - 3 min 0,508 mm 5,0 UV-I 1093 W/m 15,9 C 20,6 C 32,2 km/h
SW (5 Bft)
100,00 %
Durchschnitt _ 15,6 C 19,9 C 18,2 C 90 % 1014,1 hPa #16,4 l/m 6,6 km/h (2 Bft) W-SW - #3:56 h #2,489 mm 2,0 UV-I 251 W/m 13,9 C 14,7 C 10,5 km/h (2 Bft) 97,19 %